<?xml version="1.0" encoding="UTF-8"?><gpx xmlns="http://www.topografix.com/GPX/1/1" version="1.1" creator="Polar Flow"><metadata><author><name>Polar</name></author><time>2015-11-29T12:02:45.665Z</time></metadata><trk><trkseg><trkpt lat="46.49376333" lon="13.48998833"><ele>792.0</ele><time>2015-11-29T12:02:46.678Z</time></trkpt><trkpt lat="46.49376333" lon="13.48998833"><ele>792.0</ele><time>2015-11-29T12:02:47.691Z</time></trkpt><trkpt lat="46.49376333" lon="13.48998833"><ele>792.0</ele><time>2015-11-29T12:02:48.697Z</time></trkpt><trkpt lat="46.49376333" lon="13.48998833"><ele>792.0</ele><time>2015-11-29T12:02:49.666Z</time></trkpt><trkpt lat="46.49376333" lon="13.48998833"><ele>792.0</ele><time>2015-11-29T12:02:50.671Z</time></trkpt><trkpt lat="46.493775" lon="13.49000833"><ele>792.0</ele><time>2015-11-29T12:02:51.667Z</time></trkpt><trkpt lat="46.493775" lon="13.49000833"><ele>792.0</ele><time>2015-11-29T12:02:52.680Z</time></trkpt><trkpt lat="46.493785" lon="13.49002333"><ele>793.0</ele><time>2015-11-29T12:02:53.685Z</time></trkpt><trkpt lat="46.493785" lon="13.49002333"><ele>793.0</ele><time>2015-11-29T12:02:54.693Z</time></trkpt><trkpt lat="46.49379333" lon="13.49005"><ele>793.0</ele><time>2015-11-29T12:02:55.668Z</time></trkpt><trkpt lat="46.49379667" lon="13.49006667"><ele>793.0</ele><time>2015-11-29T12:02:56.694Z</time></trkpt><trkpt lat="46.49379667" lon="13.49006667"><ele>793.0</ele><time>2015-11-29T12:02:57.666Z</time></trkpt><trkpt lat="46.49379833" lon="13.49010333"><ele>793.0</ele><time>2015-11-29T12:02:58.681Z</time></trkpt><trkpt lat="46.49379833" lon="13.49010333"><ele>793.0</ele><time>2015-11-29T12:02:59.702Z</time></trkpt><trkpt lat="46.49380833" lon="13.49014333"><ele>793.0</ele><time>2015-11-29T12:03:00.665Z</time></trkpt><trkpt lat="46.49382667" lon="13.49016833"><ele>793.0</ele><time>2015-11-29T12:03:01.687Z</time></trkpt><trkpt lat="46.49382667" lon="13.49016833"><ele>793.0</ele><time>2015-11-29T12:03:02.700Z</time></trkpt><trkpt lat="46.49384667" lon="13.49020833"><ele>793.0</ele><time>2015-11-29T12:03:03.677Z</time></trkpt><trkpt lat="46.493855" lon="13.490225"><ele>793.0</ele><time>2015-11-29T12:03:04.673Z</time></trkpt><trkpt lat="46.493855" lon="13.490225"><ele>793.0</ele><time>2015-11-29T12:03:05.665Z</time></trkpt><trkpt lat="46.49385833" lon="13.49026167"><ele>793.0</ele><time>2015-11-29T12:03:06.667Z</time></trkpt><trkpt lat="46.49385833" lon="13.49026167"><ele>793.0</ele><time>2015-11-29T12:03:07.693Z</time></trkpt><trkpt lat="46.49386833" lon="13.490295"><ele>793.0</ele><time>2015-11-29T12:03:08.685Z</time></trkpt><trkpt lat="46.49386833" lon="13.490295"><ele>793.0</ele><time>2015-11-29T12:03:09.700Z</time></trkpt><trkpt lat="46.49388333" lon="13.49033"><ele>793.0</ele><time>2015-11-29T12:03:10.678Z</time></trkpt><trkpt lat="46.49388333" lon="13.49033"><ele>793.0</ele><time>2015-11-29T12:03:11.703Z</time></trkpt><trkpt lat="46.49389" lon="13.49036333"><ele>794.0</ele><time>2015-11-29T12:03:12.676Z</time></trkpt><trkpt lat="46.49389" lon="13.49036333"><ele>794.0</ele><time>2015-11-29T12:03:13.703Z</time></trkpt><trkpt lat="46.49390333" lon="13.49039667"><ele>794.0</ele><time>2015-11-29T12:03:14.686Z</time></trkpt><trkpt lat="46.49390333" lon="13.49039667"><ele>794.0</ele><time>2015-11-29T12:03:15.700Z</time></trkpt><trkpt lat="46.49391833" lon="13.49043333"><ele>794.0</ele><time>2015-11-29T12:03:16.674Z</time></trkpt><trkpt lat="46.49391833" lon="13.49043333"><ele>794.0</ele><time>2015-11-29T12:03:17.665Z</time></trkpt><trkpt lat="46.49393333" lon="13.49046333"><ele>793.0</ele><time>2015-11-29T12:03:18.679Z</time></trkpt><trkpt lat="46.49393333" lon="13.49046333"><ele>793.0</ele><time>2015-11-29T12:03:19.703Z</time></trkpt><trkpt lat="46.49393833" lon="13.49049167"><ele>793.0</ele><time>2015-11-29T12:03:20.679Z</time></trkpt><trkpt lat="46.49394333" lon="13.490505"><ele>793.0</ele><time>2015-11-29T12:03:21.671Z</time></trkpt><trkpt lat="46.49394333" lon="13.490505"><ele>793.0</ele><time>2015-11-29T12:03:22.695Z</time></trkpt><trkpt lat="46.49395333" lon="13.49054"><ele>793.0</ele><time>2015-11-29T12:03:23.670Z</time></trkpt><trkpt lat="46.49395333" lon="13.49054"><ele>793.0</ele><time>2015-11-29T12:03:24.684Z</time></trkpt><trkpt lat="46.49396167" lon="13.49057"><ele>793.0</ele><time>2015-11-29T12:03:25.702Z</time></trkpt><trkpt lat="46.49396333" lon="13.49059"><ele>793.0</ele><time>2015-11-29T12:03:26.688Z</time></trkpt><trkpt lat="46.49396333" lon="13.49059"><ele>793.0</ele><time>2015-11-29T12:03:27.665Z</time></trkpt><trkpt lat="46.49397167" lon="13.49062"><ele>793.0</ele><time>2015-11-29T12:03:28.680Z</time></trkpt><trkpt lat="46.49397167" lon="13.49062"><ele>793.0</ele><time>2015-11-29T12:03:29.703Z</time></trkpt><trkpt lat="46.49397" lon="13.49065333"><ele>793.0</ele><time>2015-11-29T12:03:30.682Z</time></trkpt><trkpt lat="46.49397" lon="13.49065333"><ele>793.0</ele><time>2015-11-29T12:03:31.703Z</time></trkpt><trkpt lat="46.493965" lon="13.49069333"><ele>792.0</ele><time>2015-11-29T12:03:32.678Z</time></trkpt><trkpt lat="46.493965" lon="13.49071"><ele>792.0</ele><time>2015-11-29T12:03:33.671Z</time></trkpt><trkpt lat="46.493965" lon="13.49071"><ele>792.0</ele><time>2015-11-29T12:03:34.684Z</time></trkpt><trkpt lat="46.49396333" lon="13.49075333"><ele>792.0</ele><time>2015-11-29T12:03:35.703Z</time></trkpt><trkpt lat="46.49396333" lon="13.49075333"><ele>792.0</ele><time>2015-11-29T12:03:36.678Z</time></trkpt><trkpt lat="46.49396833" lon="13.49079167"><ele>792.0</ele><time>2015-11-29T12:03:37.674Z</time></trkpt><trkpt lat="46.49397" lon="13.49081167"><ele>792.0</ele><time>2015-11-29T12:03:38.665Z</time></trkpt><trkpt lat="46.49397" lon="13.49081167"><ele>792.0</ele><time>2015-11-29T12:03:39.678Z</time></trkpt><trkpt lat="46.493975" lon="13.49084833"><ele>792.0</ele><time>2015-11-29T12:03:40.674Z</time></trkpt><trkpt lat="46.493975" lon="13.49084833"><ele>792.0</ele><time>2015-11-29T12:03:41.700Z</time></trkpt><trkpt lat="46.49398167" lon="13.49088333"><ele>792.0</ele><time>2015-11-29T12:03:42.675Z</time></trkpt><trkpt lat="46.49398167" lon="13.49088333"><ele>792.0</ele><time>2015-11-29T12:03:43.703Z</time></trkpt><trkpt lat="46.49399333" lon="13.49091833"><ele>792.0</ele><time>2015-11-29T12:03:44.677Z</time></trkpt><trkpt lat="46.49399333" lon="13.49091833"><ele>792.0</ele><time>2015-11-29T12:03:45.703Z</time></trkpt><trkpt lat="46.49399833" lon="13.49095167"><ele>791.0</ele><time>2015-11-29T12:03:46.694Z</time></trkpt><trkpt lat="46.494" lon="13.49097167"><ele>791.0</ele><time>2015-11-29T12:03:47.678Z</time></trkpt><trkpt lat="46.494" lon="13.49097167"><ele>791.0</ele><time>2015-11-29T12:03:48.701Z</time></trkpt><trkpt lat="46.494005" lon="13.49100833"><ele>791.0</ele><time>2015-11-29T12:03:49.678Z</time></trkpt><trkpt lat="46.49400833" lon="13.49102833"><ele>792.0</ele><time>2015-11-29T12:03:50.670Z</time></trkpt><trkpt lat="46.49400833" lon="13.49102833"><ele>792.0</ele><time>2015-11-29T12:03:51.682Z</time></trkpt><trkpt lat="46.49401833" lon="13.49106167"><ele>791.0</ele><time>2015-11-29T12:03:52.665Z</time></trkpt><trkpt lat="46.49401833" lon="13.49106167"><ele>791.0</ele><time>2015-11-29T12:03:53.679Z</time></trkpt><trkpt lat="46.49402667" lon="13.4911"><ele>791.0</ele><time>2015-11-29T12:03:54.704Z</time></trkpt><trkpt lat="46.49402833" lon="13.49111833"><ele>791.0</ele><time>2015-11-29T12:03:55.679Z</time></trkpt><trkpt lat="46.49402833" lon="13.49111833"><ele>791.0</ele><time>2015-11-29T12:03:56.704Z</time></trkpt><trkpt lat="46.49403667" lon="13.49115333"><ele>791.0</ele><time>2015-11-29T12:03:57.684Z</time></trkpt><trkpt lat="46.49403667" lon="13.49115333"><ele>791.0</ele><time>2015-11-29T12:03:58.700Z</time></trkpt><trkpt lat="46.49404167" lon="13.491185"><ele>791.0</ele><time>2015-11-29T12:03:59.686Z</time></trkpt><trkpt lat="46.49404167" lon="13.491185"><ele>791.0</ele><time>2015-11-29T12:04:00.665Z</time></trkpt><trkpt lat="46.494045" lon="13.49122333"><ele>791.0</ele><time>2015-11-29T12:04:01.682Z</time></trkpt><trkpt lat="46.49404667" lon="13.49124"><ele>791.0</ele><time>2015-11-29T12:04:02.675Z</time></trkpt><trkpt lat="46.49404667" lon="13.49124"><ele>791.0</ele><time>2015-11-29T12:04:03.703Z</time></trkpt><trkpt lat="46.494055" lon="13.49128167"><ele>791.0</ele><time>2015-11-29T12:04:04.681Z</time></trkpt><trkpt lat="46.494055" lon="13.49128167"><ele>791.0</ele><time>2015-11-29T12:04:05.702Z</time></trkpt><trkpt lat="46.49406" lon="13.49131167"><ele>790.0</ele><time>2015-11-29T12:04:06.687Z</time></trkpt><trkpt lat="46.49406" lon="13.49131167"><ele>790.0</ele><time>2015-11-29T12:04:07.704Z</time></trkpt><trkpt lat="46.49406833" lon="13.49134667"><ele>790.0</ele><time>2015-11-29T12:04:08.681Z</time></trkpt><trkpt lat="46.49406833" lon="13.49134667"><ele>790.0</ele><time>2015-11-29T12:04:09.695Z</time></trkpt><trkpt lat="46.49407667" lon="13.49138333"><ele>790.0</ele><time>2015-11-29T12:04:10.672Z</time></trkpt><trkpt lat="46.49407667" lon="13.49138333"><ele>790.0</ele><time>2015-11-29T12:04:11.694Z</time></trkpt><trkpt lat="46.49408333" lon="13.49144167"><ele>790.0</ele><time>2015-11-29T12:04:12.671Z</time></trkpt><trkpt lat="46.49408333" lon="13.49144167"><ele>790.0</ele><time>2015-11-29T12:04:13.685Z</time></trkpt><trkpt lat="46.49408667" lon="13.49149"><ele>790.0</ele><time>2015-11-29T12:04:14.674Z</time></trkpt><trkpt lat="46.49408667" lon="13.49149"><ele>790.0</ele><time>2015-11-29T12:04:15.682Z</time></trkpt><trkpt lat="46.49408667" lon="13.49152"><ele>790.0</ele><time>2015-11-29T12:04:16.689Z</time></trkpt><trkpt lat="46.49408833" lon="13.49153333"><ele>790.0</ele><time>2015-11-29T12:04:17.696Z</time></trkpt><trkpt lat="46.49408833" lon="13.49153333"><ele>790.0</ele><time>2015-11-29T12:04:18.702Z</time></trkpt><trkpt lat="46.4941" lon="13.49157333"><ele>790.0</ele><time>2015-11-29T12:04:19.681Z</time></trkpt><trkpt lat="46.4941" lon="13.49157333"><ele>790.0</ele><time>2015-11-29T12:04:20.690Z</time></trkpt><trkpt lat="46.49410833" lon="13.49161833"><ele>790.0</ele><time>2015-11-29T12:04:21.671Z</time></trkpt><trkpt lat="46.49411167" lon="13.49163167"><ele>790.0</ele><time>2015-11-29T12:04:22.685Z</time></trkpt><trkpt lat="46.49411167" lon="13.49163167"><ele>790.0</ele><time>2015-11-29T12:04:23.666Z</time></trkpt><trkpt lat="46.49411667" lon="13.49165167"><ele>790.0</ele><time>2015-11-29T12:04:24.690Z</time></trkpt><trkpt lat="46.49411667" lon="13.49165167"><ele>790.0</ele><time>2015-11-29T12:04:25.703Z</time></trkpt><trkpt lat="46.49412" lon="13.49168167"><ele>790.0</ele><time>2015-11-29T12:04:26.678Z</time></trkpt><trkpt lat="46.49412" lon="13.49168167"><ele>790.0</ele><time>2015-11-29T12:04:27.703Z</time></trkpt><trkpt lat="46.49413333" lon="13.49173167"><ele>790.0</ele><time>2015-11-29T12:04:28.677Z</time></trkpt><trkpt lat="46.49413333" lon="13.49173167"><ele>790.0</ele><time>2015-11-29T12:04:29.700Z</time></trkpt><trkpt lat="46.49414333" lon="13.49177667"><ele>790.0</ele><time>2015-11-29T12:04:30.675Z</time></trkpt><trkpt lat="46.494145" lon="13.491795"><ele>790.0</ele><time>2015-11-29T12:04:31.692Z</time></trkpt><trkpt lat="46.49414167" lon="13.49181167"><ele>790.0</ele><time>2015-11-29T12:04:32.674Z</time></trkpt><trkpt lat="46.49414167" lon="13.49181167"><ele>790.0</ele><time>2015-11-29T12:04:33.700Z</time></trkpt><trkpt lat="46.494145" lon="13.49184667"><ele>790.0</ele><time>2015-11-29T12:04:34.679Z</time></trkpt><trkpt lat="46.494145" lon="13.49184667"><ele>790.0</ele><time>2015-11-29T12:04:35.700Z</time></trkpt><trkpt lat="46.49415833" lon="13.491895"><ele>790.0</ele><time>2015-11-29T12:04:36.686Z</time></trkpt><trkpt lat="46.49416333" lon="13.49191167"><ele>790.0</ele><time>2015-11-29T12:04:37.674Z</time></trkpt><trkpt lat="46.49416333" lon="13.49191167"><ele>790.0</ele><time>2015-11-29T12:04:38.684Z</time></trkpt><trkpt lat="46.49416667" lon="13.49195167"><ele>790.0</ele><time>2015-11-29T12:04:39.703Z</time></trkpt><trkpt lat="46.49417167" lon="13.49196833"><ele>790.0</ele><time>2015-11-29T12:04:40.685Z</time></trkpt><trkpt lat="46.49417167" lon="13.49196833"><ele>790.0</ele><time>2015-11-29T12:04:41.701Z</time></trkpt><trkpt lat="46.49418167" lon="13.49199833"><ele>790.0</ele><time>2015-11-29T12:04:42.677Z</time></trkpt><trkpt lat="46.49418167" lon="13.49199833"><ele>790.0</ele><time>2015-11-29T12:04:43.701Z</time></trkpt><trkpt lat="46.49419" lon="13.49203"><ele>791.0</ele><time>2015-11-29T12:04:44.676Z</time></trkpt><trkpt lat="46.49419" lon="13.49203"><ele>791.0</ele><time>2015-11-29T12:04:45.665Z</time></trkpt><trkpt lat="46.49419167" lon="13.492065"><ele>791.0</ele><time>2015-11-29T12:04:46.694Z</time></trkpt><trkpt lat="46.49419167" lon="13.49208167"><ele>791.0</ele><time>2015-11-29T12:04:47.672Z</time></trkpt><trkpt lat="46.49419167" lon="13.49208167"><ele>791.0</ele><time>2015-11-29T12:04:48.668Z</time></trkpt><trkpt lat="46.494195" lon="13.492115"><ele>791.0</ele><time>2015-11-29T12:04:49.673Z</time></trkpt><trkpt lat="46.494195" lon="13.49212833"><ele>791.0</ele><time>2015-11-29T12:04:50.678Z</time></trkpt><trkpt lat="46.494195" lon="13.49212833"><ele>791.0</ele><time>2015-11-29T12:04:51.665Z</time></trkpt><trkpt lat="46.4942" lon="13.492165"><ele>791.0</ele><time>2015-11-29T12:04:52.679Z</time></trkpt><trkpt lat="46.4942" lon="13.492165"><ele>791.0</ele><time>2015-11-29T12:04:53.665Z</time></trkpt><trkpt lat="46.49420667" lon="13.49220667"><ele>791.0</ele><time>2015-11-29T12:04:54.681Z</time></trkpt><trkpt lat="46.49420667" lon="13.49220667"><ele>791.0</ele><time>2015-11-29T12:04:55.704Z</time></trkpt><trkpt lat="46.49422833" lon="13.49223"><ele>791.0</ele><time>2015-11-29T12:04:56.686Z</time></trkpt><trkpt lat="46.49422833" lon="13.49223"><ele>791.0</ele><time>2015-11-29T12:04:57.703Z</time></trkpt><trkpt lat="46.49424167" lon="13.49226167"><ele>791.0</ele><time>2015-11-29T12:04:58.686Z</time></trkpt><trkpt lat="46.49424167" lon="13.49226167"><ele>791.0</ele><time>2015-11-29T12:04:59.666Z</time></trkpt><trkpt lat="46.49424167" lon="13.49231833"><ele>791.0</ele><time>2015-11-29T12:05:00.700Z</time></trkpt><trkpt lat="46.49424167" lon="13.49231833"><ele>791.0</ele><time>2015-11-29T12:05:01.674Z</time></trkpt><trkpt lat="46.49423167" lon="13.49234667"><ele>791.0</ele><time>2015-11-29T12:05:02.670Z</time></trkpt><trkpt lat="46.49423167" lon="13.49234667"><ele>791.0</ele><time>2015-11-29T12:05:03.683Z</time></trkpt><trkpt lat="46.49423167" lon="13.49238333"><ele>791.0</ele><time>2015-11-29T12:05:04.665Z</time></trkpt><trkpt lat="46.49423167" lon="13.49240333"><ele>791.0</ele><time>2015-11-29T12:05:05.679Z</time></trkpt><trkpt lat="46.49423167" lon="13.49240333"><ele>791.0</ele><time>2015-11-29T12:05:06.704Z</time></trkpt><trkpt lat="46.49423833" lon="13.492435"><ele>791.0</ele><time>2015-11-29T12:05:07.686Z</time></trkpt><trkpt lat="46.49423833" lon="13.49244833"><ele>791.0</ele><time>2015-11-29T12:05:08.677Z</time></trkpt><trkpt lat="46.49423833" lon="13.49244833"><ele>791.0</ele><time>2015-11-29T12:05:09.681Z</time></trkpt><trkpt lat="46.49424" lon="13.49247667"><ele>791.0</ele><time>2015-11-29T12:05:10.687Z</time></trkpt><trkpt lat="46.49424" lon="13.49247667"><ele>791.0</ele><time>2015-11-29T12:05:11.694Z</time></trkpt><trkpt lat="46.49424333" lon="13.492505"><ele>791.0</ele><time>2015-11-29T12:05:12.699Z</time></trkpt><trkpt lat="46.49424167" lon="13.49252167"><ele>790.0</ele><time>2015-11-29T12:05:13.671Z</time></trkpt><trkpt lat="46.49424" lon="13.492535"><ele>790.0</ele><time>2015-11-29T12:05:14.684Z</time></trkpt><trkpt lat="46.49424" lon="13.492535"><ele>790.0</ele><time>2015-11-29T12:05:15.697Z</time></trkpt><trkpt lat="46.49424167" lon="13.492575"><ele>790.0</ele><time>2015-11-29T12:05:16.672Z</time></trkpt><trkpt lat="46.49424167" lon="13.492575"><ele>790.0</ele><time>2015-11-29T12:05:17.685Z</time></trkpt><trkpt lat="46.49424667" lon="13.49262667"><ele>790.0</ele><time>2015-11-29T12:05:18.670Z</time></trkpt><trkpt lat="46.49424667" lon="13.49262667"><ele>790.0</ele><time>2015-11-29T12:05:19.691Z</time></trkpt><trkpt lat="46.494255" lon="13.49265667"><ele>791.0</ele><time>2015-11-29T12:05:20.665Z</time></trkpt><trkpt lat="46.494255" lon="13.49265667"><ele>791.0</ele><time>2015-11-29T12:05:21.678Z</time></trkpt><trkpt lat="46.49426" lon="13.49269"><ele>791.0</ele><time>2015-11-29T12:05:22.666Z</time></trkpt><trkpt lat="46.49426" lon="13.49269"><ele>791.0</ele><time>2015-11-29T12:05:23.679Z</time></trkpt><trkpt lat="46.49427" lon="13.49272"><ele>791.0</ele><time>2015-11-29T12:05:24.692Z</time></trkpt><trkpt lat="46.494275" lon="13.49273"><ele>791.0</ele><time>2015-11-29T12:05:25.674Z</time></trkpt><trkpt lat="46.494275" lon="13.49273"><ele>791.0</ele><time>2015-11-29T12:05:26.700Z</time></trkpt><trkpt lat="46.49428167" lon="13.49276"><ele>791.0</ele><time>2015-11-29T12:05:27.674Z</time></trkpt><trkpt lat="46.49428667" lon="13.49277833"><ele>791.0</ele><time>2015-11-29T12:05:28.688Z</time></trkpt><trkpt lat="46.49428667" lon="13.49277833"><ele>791.0</ele><time>2015-11-29T12:05:29.701Z</time></trkpt><trkpt lat="46.49429667" lon="13.49279833"><ele>792.0</ele><time>2015-11-29T12:05:30.675Z</time></trkpt><trkpt lat="46.49429667" lon="13.49279833"><ele>792.0</ele><time>2015-11-29T12:05:31.700Z</time></trkpt><trkpt lat="46.49430667" lon="13.49283333"><ele>791.0</ele><time>2015-11-29T12:05:32.676Z</time></trkpt><trkpt lat="46.49430667" lon="13.49283333"><ele>791.0</ele><time>2015-11-29T12:05:33.700Z</time></trkpt><trkpt lat="46.49431333" lon="13.49286667"><ele>792.0</ele><time>2015-11-29T12:05:34.675Z</time></trkpt><trkpt lat="46.49431333" lon="13.49286667"><ele>792.0</ele><time>2015-11-29T12:05:35.700Z</time></trkpt><trkpt lat="46.49432167" lon="13.49289667"><ele>792.0</ele><time>2015-11-29T12:05:36.673Z</time></trkpt><trkpt lat="46.494325" lon="13.492915"><ele>792.0</ele><time>2015-11-29T12:05:37.691Z</time></trkpt><trkpt lat="46.49433" lon="13.49293333"><ele>792.0</ele><time>2015-11-29T12:05:38.674Z</time></trkpt><trkpt lat="46.49433" lon="13.49293333"><ele>792.0</ele><time>2015-11-29T12:05:39.701Z</time></trkpt><trkpt lat="46.494335" lon="13.49296167"><ele>792.0</ele><time>2015-11-29T12:05:40.675Z</time></trkpt><trkpt lat="46.494335" lon="13.49296167"><ele>792.0</ele><time>2015-11-29T12:05:41.699Z</time></trkpt><trkpt lat="46.494345" lon="13.49299167"><ele>792.0</ele><time>2015-11-29T12:05:42.676Z</time></trkpt><trkpt lat="46.49435" lon="13.49300667"><ele>793.0</ele><time>2015-11-29T12:05:43.701Z</time></trkpt><trkpt lat="46.49435" lon="13.49300667"><ele>793.0</ele><time>2015-11-29T12:05:44.674Z</time></trkpt><trkpt lat="46.49436" lon="13.49304"><ele>793.0</ele><time>2015-11-29T12:05:45.704Z</time></trkpt><trkpt lat="46.49436" lon="13.49304"><ele>793.0</ele><time>2015-11-29T12:05:46.694Z</time></trkpt><trkpt lat="46.49436833" lon="13.49307"><ele>793.0</ele><time>2015-11-29T12:05:47.691Z</time></trkpt><trkpt lat="46.49437333" lon="13.49308667"><ele>793.0</ele><time>2015-11-29T12:05:48.669Z</time></trkpt><trkpt lat="46.49437333" lon="13.49308667"><ele>793.0</ele><time>2015-11-29T12:05:49.685Z</time></trkpt><trkpt lat="46.494385" lon="13.49312167"><ele>793.0</ele><time>2015-11-29T12:05:50.692Z</time></trkpt><trkpt lat="46.49439" lon="13.49313667"><ele>793.0</ele><time>2015-11-29T12:05:51.675Z</time></trkpt><trkpt lat="46.49439" lon="13.49313667"><ele>793.0</ele><time>2015-11-29T12:05:52.665Z</time></trkpt><trkpt lat="46.494405" lon="13.49316"><ele>793.0</ele><time>2015-11-29T12:05:53.681Z</time></trkpt><trkpt lat="46.49441167" lon="13.49317333"><ele>793.0</ele><time>2015-11-29T12:05:54.699Z</time></trkpt><trkpt lat="46.49441167" lon="13.49317333"><ele>793.0</ele><time>2015-11-29T12:05:55.675Z</time></trkpt><trkpt lat="46.494425" lon="13.4932"><ele>793.0</ele><time>2015-11-29T12:05:56.699Z</time></trkpt><trkpt lat="46.49443167" lon="13.493215"><ele>793.0</ele><time>2015-11-29T12:05:57.694Z</time></trkpt><trkpt lat="46.49443167" lon="13.493215"><ele>793.0</ele><time>2015-11-29T12:05:58.669Z</time></trkpt><trkpt lat="46.49444667" lon="13.49325"><ele>793.0</ele><time>2015-11-29T12:05:59.683Z</time></trkpt><trkpt lat="46.49445167" lon="13.49326167"><ele>793.0</ele><time>2015-11-29T12:06:00.687Z</time></trkpt><trkpt lat="46.49445167" lon="13.49326167"><ele>793.0</ele><time>2015-11-29T12:06:01.702Z</time></trkpt><trkpt lat="46.49446" lon="13.493285"><ele>792.0</ele><time>2015-11-29T12:06:02.676Z</time></trkpt><trkpt lat="46.49446" lon="13.493285"><ele>792.0</ele><time>2015-11-29T12:06:03.700Z</time></trkpt><trkpt lat="46.49447333" lon="13.49332"><ele>792.0</ele><time>2015-11-29T12:06:04.683Z</time></trkpt><trkpt lat="46.49447333" lon="13.49332"><ele>792.0</ele><time>2015-11-29T12:06:05.700Z</time></trkpt><trkpt lat="46.49448167" lon="13.49336167"><ele>792.0</ele><time>2015-11-29T12:06:06.694Z</time></trkpt><trkpt lat="46.49448167" lon="13.49336167"><ele>792.0</ele><time>2015-11-29T12:06:07.669Z</time></trkpt><trkpt lat="46.49450333" lon="13.49339"><ele>792.0</ele><time>2015-11-29T12:06:08.682Z</time></trkpt><trkpt lat="46.49451167" lon="13.49340333"><ele>792.0</ele><time>2015-11-29T12:06:09.700Z</time></trkpt><trkpt lat="46.49451167" lon="13.49340333"><ele>792.0</ele><time>2015-11-29T12:06:10.672Z</time></trkpt><trkpt lat="46.49453167" lon="13.49343333"><ele>792.0</ele><time>2015-11-29T12:06:11.686Z</time></trkpt><trkpt lat="46.49453167" lon="13.49343333"><ele>792.0</ele><time>2015-11-29T12:06:12.700Z</time></trkpt><trkpt lat="46.49455167" lon="13.49346667"><ele>792.0</ele><time>2015-11-29T12:06:13.686Z</time></trkpt><trkpt lat="46.49456" lon="13.49348167"><ele>792.0</ele><time>2015-11-29T12:06:14.674Z</time></trkpt><trkpt lat="46.49456" lon="13.49348167"><ele>792.0</ele><time>2015-11-29T12:06:15.700Z</time></trkpt><trkpt lat="46.494575" lon="13.493515"><ele>792.0</ele><time>2015-11-29T12:06:16.674Z</time></trkpt><trkpt lat="46.494575" lon="13.493515"><ele>792.0</ele><time>2015-11-29T12:06:17.687Z</time></trkpt><trkpt lat="46.49458167" lon="13.49354333"><ele>791.0</ele><time>2015-11-29T12:06:18.673Z</time></trkpt><trkpt lat="46.49458167" lon="13.49354333"><ele>791.0</ele><time>2015-11-29T12:06:19.687Z</time></trkpt><trkpt lat="46.494595" lon="13.49357333"><ele>791.0</ele><time>2015-11-29T12:06:20.666Z</time></trkpt><trkpt lat="46.494595" lon="13.49357333"><ele>791.0</ele><time>2015-11-29T12:06:21.679Z</time></trkpt><trkpt lat="46.49460833" lon="13.49359667"><ele>791.0</ele><time>2015-11-29T12:06:22.672Z</time></trkpt><trkpt lat="46.49460833" lon="13.49359667"><ele>791.0</ele><time>2015-11-29T12:06:23.668Z</time></trkpt><trkpt lat="46.49463167" lon="13.493625"><ele>791.0</ele><time>2015-11-29T12:06:24.681Z</time></trkpt><trkpt lat="46.49464333" lon="13.49363833"><ele>791.0</ele><time>2015-11-29T12:06:25.673Z</time></trkpt><trkpt lat="46.49465167" lon="13.49365167"><ele>790.0</ele><time>2015-11-29T12:06:26.697Z</time></trkpt><trkpt lat="46.49465167" lon="13.49365167"><ele>790.0</ele><time>2015-11-29T12:06:27.671Z</time></trkpt><trkpt lat="46.494675" lon="13.49367833"><ele>790.0</ele><time>2015-11-29T12:06:28.687Z</time></trkpt><trkpt lat="46.494675" lon="13.49367833"><ele>790.0</ele><time>2015-11-29T12:06:29.700Z</time></trkpt><trkpt lat="46.49469833" lon="13.4937"><ele>790.0</ele><time>2015-11-29T12:06:30.673Z</time></trkpt><trkpt lat="46.49469833" lon="13.4937"><ele>790.0</ele><time>2015-11-29T12:06:31.700Z</time></trkpt><trkpt lat="46.49472333" lon="13.493715"><ele>790.0</ele><time>2015-11-29T12:06:32.675Z</time></trkpt><trkpt lat="46.49472333" lon="13.493715"><ele>790.0</ele><time>2015-11-29T12:06:33.698Z</time></trkpt><trkpt lat="46.494745" lon="13.49373667"><ele>790.0</ele><time>2015-11-29T12:06:34.673Z</time></trkpt><trkpt lat="46.494745" lon="13.49373667"><ele>790.0</ele><time>2015-11-29T12:06:35.685Z</time></trkpt><trkpt lat="46.49477" lon="13.493755"><ele>790.0</ele><time>2015-11-29T12:06:36.673Z</time></trkpt><trkpt lat="46.49477" lon="13.493755"><ele>790.0</ele><time>2015-11-29T12:06:37.689Z</time></trkpt><trkpt lat="46.4948" lon="13.49376833"><ele>790.0</ele><time>2015-11-29T12:06:38.677Z</time></trkpt><trkpt lat="46.4948" lon="13.49376833"><ele>790.0</ele><time>2015-11-29T12:06:39.699Z</time></trkpt><trkpt lat="46.49484333" lon="13.49378833"><ele>790.0</ele><time>2015-11-29T12:06:40.673Z</time></trkpt><trkpt lat="46.49484333" lon="13.49378833"><ele>790.0</ele><time>2015-11-29T12:06:41.686Z</time></trkpt><trkpt lat="46.49486667" lon="13.49378667"><ele>790.0</ele><time>2015-11-29T12:06:42.673Z</time></trkpt><trkpt lat="46.49486667" lon="13.49378667"><ele>790.0</ele><time>2015-11-29T12:06:43.695Z</time></trkpt><trkpt lat="46.49489167" lon="13.49378167"><ele>790.0</ele><time>2015-11-29T12:06:44.677Z</time></trkpt><trkpt lat="46.49489167" lon="13.49378167"><ele>790.0</ele><time>2015-11-29T12:06:45.700Z</time></trkpt><trkpt lat="46.49491833" lon="13.49377333"><ele>790.0</ele><time>2015-11-29T12:06:46.687Z</time></trkpt><trkpt lat="46.49493333" lon="13.49377167"><ele>790.0</ele><time>2015-11-29T12:06:47.674Z</time></trkpt><trkpt lat="46.49493333" lon="13.49377167"><ele>790.0</ele><time>2015-11-29T12:06:48.702Z</time></trkpt><trkpt lat="46.49494667" lon="13.49376667"><ele>789.0</ele><time>2015-11-29T12:06:49.703Z</time></trkpt><trkpt lat="46.49495167" lon="13.493755"><ele>789.0</ele><time>2015-11-29T12:06:50.676Z</time></trkpt><trkpt lat="46.49495167" lon="13.493755"><ele>789.0</ele><time>2015-11-29T12:06:51.682Z</time></trkpt><trkpt lat="46.49498833" lon="13.49373667"><ele>789.0</ele><time>2015-11-29T12:06:52.674Z</time></trkpt><trkpt lat="46.49498833" lon="13.49373667"><ele>789.0</ele><time>2015-11-29T12:06:53.687Z</time></trkpt><trkpt lat="46.49503" lon="13.493725"><ele>789.0</ele><time>2015-11-29T12:06:54.674Z</time></trkpt><trkpt lat="46.49504667" lon="13.49371333"><ele>789.0</ele><time>2015-11-29T12:06:55.674Z</time></trkpt><trkpt lat="46.49504667" lon="13.49371333"><ele>789.0</ele><time>2015-11-29T12:06:56.695Z</time></trkpt><trkpt lat="46.49507" lon="13.4937"><ele>789.0</ele><time>2015-11-29T12:06:57.672Z</time></trkpt><trkpt lat="46.49508333" lon="13.49369833"><ele>789.0</ele><time>2015-11-29T12:06:58.685Z</time></trkpt><trkpt lat="46.49508333" lon="13.49369833"><ele>789.0</ele><time>2015-11-29T12:06:59.699Z</time></trkpt><trkpt lat="46.49510833" lon="13.49368333"><ele>789.0</ele><time>2015-11-29T12:07:00.696Z</time></trkpt><trkpt lat="46.49511833" lon="13.49368"><ele>789.0</ele><time>2015-11-29T12:07:01.672Z</time></trkpt><trkpt lat="46.49511833" lon="13.49368"><ele>789.0</ele><time>2015-11-29T12:07:02.685Z</time></trkpt><trkpt lat="46.49515167" lon="13.49366333"><ele>789.0</ele><time>2015-11-29T12:07:03.665Z</time></trkpt><trkpt lat="46.495165" lon="13.49366833"><ele>789.0</ele><time>2015-11-29T12:07:04.679Z</time></trkpt><trkpt lat="46.495165" lon="13.49366833"><ele>789.0</ele><time>2015-11-29T12:07:05.665Z</time></trkpt><trkpt lat="46.49518333" lon="13.493675"><ele>789.0</ele><time>2015-11-29T12:07:06.678Z</time></trkpt><trkpt lat="46.49519667" lon="13.49368167"><ele>789.0</ele><time>2015-11-29T12:07:07.699Z</time></trkpt><trkpt lat="46.49519667" lon="13.49368167"><ele>789.0</ele><time>2015-11-29T12:07:08.672Z</time></trkpt><trkpt lat="46.49522833" lon="13.49365667"><ele>788.0</ele><time>2015-11-29T12:07:09.688Z</time></trkpt><trkpt lat="46.495255" lon="13.49364167"><ele>788.0</ele><time>2015-11-29T12:07:10.673Z</time></trkpt><trkpt lat="46.495255" lon="13.49364167"><ele>788.0</ele><time>2015-11-29T12:07:11.690Z</time></trkpt><trkpt lat="46.495285" lon="13.49359833"><ele>789.0</ele><time>2015-11-29T12:07:12.673Z</time></trkpt><trkpt lat="46.495285" lon="13.49359833"><ele>789.0</ele><time>2015-11-29T12:07:13.685Z</time></trkpt><trkpt lat="46.49530833" lon="13.49360167"><ele>789.0</ele><time>2015-11-29T12:07:14.674Z</time></trkpt><trkpt lat="46.49530833" lon="13.49360167"><ele>789.0</ele><time>2015-11-29T12:07:15.701Z</time></trkpt><trkpt lat="46.49534" lon="13.4936"><ele>789.0</ele><time>2015-11-29T12:07:16.675Z</time></trkpt><trkpt lat="46.49534" lon="13.4936"><ele>789.0</ele><time>2015-11-29T12:07:17.665Z</time></trkpt><trkpt lat="46.495365" lon="13.493585"><ele>788.0</ele><time>2015-11-29T12:07:18.679Z</time></trkpt><trkpt lat="46.495365" lon="13.493585"><ele>788.0</ele><time>2015-11-29T12:07:19.700Z</time></trkpt><trkpt lat="46.49539167" lon="13.49357"><ele>788.0</ele><time>2015-11-29T12:07:20.674Z</time></trkpt><trkpt lat="46.49540833" lon="13.49356667"><ele>788.0</ele><time>2015-11-29T12:07:21.700Z</time></trkpt><trkpt lat="46.49540833" lon="13.49356667"><ele>788.0</ele><time>2015-11-29T12:07:22.672Z</time></trkpt><trkpt lat="46.495435" lon="13.49357167"><ele>788.0</ele><time>2015-11-29T12:07:23.691Z</time></trkpt><trkpt lat="46.495435" lon="13.49357167"><ele>788.0</ele><time>2015-11-29T12:07:24.665Z</time></trkpt><trkpt lat="46.49544667" lon="13.493575"><ele>788.0</ele><time>2015-11-29T12:07:25.679Z</time></trkpt><trkpt lat="46.49545833" lon="13.49357"><ele>788.0</ele><time>2015-11-29T12:07:26.695Z</time></trkpt><trkpt lat="46.49545833" lon="13.49357"><ele>788.0</ele><time>2015-11-29T12:07:27.680Z</time></trkpt><trkpt lat="46.49548" lon="13.49356167"><ele>788.0</ele><time>2015-11-29T12:07:28.673Z</time></trkpt><trkpt lat="46.49548" lon="13.49356167"><ele>788.0</ele><time>2015-11-29T12:07:29.687Z</time></trkpt><trkpt lat="46.49551667" lon="13.49354667"><ele>787.0</ele><time>2015-11-29T12:07:30.674Z</time></trkpt><trkpt lat="46.49551667" lon="13.49354667"><ele>787.0</ele><time>2015-11-29T12:07:31.702Z</time></trkpt><trkpt lat="46.49556" lon="13.49353667"><ele>787.0</ele><time>2015-11-29T12:07:32.677Z</time></trkpt><trkpt lat="46.49557167" lon="13.49352667"><ele>787.0</ele><time>2015-11-29T12:07:33.672Z</time></trkpt><trkpt lat="46.49557167" lon="13.49352667"><ele>787.0</ele><time>2015-11-29T12:07:34.685Z</time></trkpt><trkpt lat="46.49558833" lon="13.49353"><ele>787.0</ele><time>2015-11-29T12:07:35.700Z</time></trkpt><trkpt lat="46.49558833" lon="13.49353"><ele>787.0</ele><time>2015-11-29T12:07:36.688Z</time></trkpt><trkpt lat="46.49560333" lon="13.493525"><ele>786.0</ele><time>2015-11-29T12:07:37.673Z</time></trkpt><trkpt lat="46.49561333" lon="13.49351667"><ele>786.0</ele><time>2015-11-29T12:07:38.686Z</time></trkpt><trkpt lat="46.49561333" lon="13.49351667"><ele>786.0</ele><time>2015-11-29T12:07:39.702Z</time></trkpt><trkpt lat="46.49562833" lon="13.49352167"><ele>786.0</ele><time>2015-11-29T12:07:40.677Z</time></trkpt><trkpt lat="46.49563" lon="13.49352667"><ele>786.0</ele><time>2015-11-29T12:07:41.700Z</time></trkpt><trkpt lat="46.49563" lon="13.49352667"><ele>786.0</ele><time>2015-11-29T12:07:42.673Z</time></trkpt><trkpt lat="46.49563333" lon="13.49353167"><ele>786.0</ele><time>2015-11-29T12:07:43.687Z</time></trkpt><trkpt lat="46.49563833" lon="13.493535"><ele>786.0</ele><time>2015-11-29T12:07:44.667Z</time></trkpt><trkpt lat="46.49563833" lon="13.493535"><ele>786.0</ele><time>2015-11-29T12:07:45.680Z</time></trkpt><trkpt lat="46.49564167" lon="13.49351667"><ele>786.0</ele><time>2015-11-29T12:07:46.704Z</time></trkpt><trkpt lat="46.49564333" lon="13.49350667"><ele>786.0</ele><time>2015-11-29T12:07:47.679Z</time></trkpt><trkpt lat="46.49564333" lon="13.49350667"><ele>786.0</ele><time>2015-11-29T12:07:48.699Z</time></trkpt><trkpt lat="46.49564833" lon="13.49347667"><ele>786.0</ele><time>2015-11-29T12:07:49.675Z</time></trkpt><trkpt lat="46.495655" lon="13.493465"><ele>786.0</ele><time>2015-11-29T12:07:50.673Z</time></trkpt><trkpt lat="46.495665" lon="13.49345667"><ele>786.0</ele><time>2015-11-29T12:07:51.686Z</time></trkpt><trkpt lat="46.495665" lon="13.49345667"><ele>786.0</ele><time>2015-11-29T12:07:52.701Z</time></trkpt><trkpt lat="46.49567667" lon="13.49344167"><ele>786.0</ele><time>2015-11-29T12:07:53.675Z</time></trkpt><trkpt lat="46.495685" lon="13.49343167"><ele>785.0</ele><time>2015-11-29T12:07:54.674Z</time></trkpt><trkpt lat="46.495685" lon="13.49343167"><ele>785.0</ele><time>2015-11-29T12:07:55.679Z</time></trkpt><trkpt lat="46.49569667" lon="13.49342667"><ele>785.0</ele><time>2015-11-29T12:07:56.685Z</time></trkpt><trkpt lat="46.49569667" lon="13.49342667"><ele>785.0</ele><time>2015-11-29T12:07:57.690Z</time></trkpt><trkpt lat="46.49572667" lon="13.49342833"><ele>785.0</ele><time>2015-11-29T12:07:58.695Z</time></trkpt><trkpt lat="46.49576" lon="13.49343333"><ele>785.0</ele><time>2015-11-29T12:07:59.702Z</time></trkpt><trkpt lat="46.495765" lon="13.493435"><ele>785.0</ele><time>2015-11-29T12:08:00.681Z</time></trkpt><trkpt lat="46.495775" lon="13.49342667"><ele>785.0</ele><time>2015-11-29T12:08:01.699Z</time></trkpt><trkpt lat="46.495775" lon="13.49342667"><ele>785.0</ele><time>2015-11-29T12:08:02.671Z</time></trkpt><trkpt lat="46.49578333" lon="13.49340333"><ele>785.0</ele><time>2015-11-29T12:08:03.684Z</time></trkpt><trkpt lat="46.49578333" lon="13.49340333"><ele>785.0</ele><time>2015-11-29T12:08:04.675Z</time></trkpt><trkpt lat="46.49579167" lon="13.493385"><ele>785.0</ele><time>2015-11-29T12:08:05.700Z</time></trkpt><trkpt lat="46.49579167" lon="13.493385"><ele>785.0</ele><time>2015-11-29T12:08:06.672Z</time></trkpt><trkpt lat="46.49579667" lon="13.493375"><ele>785.0</ele><time>2015-11-29T12:08:07.675Z</time></trkpt><trkpt lat="46.4958" lon="13.49336333"><ele>785.0</ele><time>2015-11-29T12:08:08.688Z</time></trkpt><trkpt lat="46.4958" lon="13.49336333"><ele>785.0</ele><time>2015-11-29T12:08:09.665Z</time></trkpt><trkpt lat="46.49583167" lon="13.49334833"><ele>784.0</ele><time>2015-11-29T12:08:10.675Z</time></trkpt><trkpt lat="46.49583167" lon="13.49334833"><ele>784.0</ele><time>2015-11-29T12:08:11.665Z</time></trkpt><trkpt lat="46.49585167" lon="13.49334833"><ele>784.0</ele><time>2015-11-29T12:08:12.679Z</time></trkpt><trkpt lat="46.49585167" lon="13.49334833"><ele>784.0</ele><time>2015-11-29T12:08:13.703Z</time></trkpt><trkpt lat="46.49586167" lon="13.493345"><ele>784.0</ele><time>2015-11-29T12:08:14.676Z</time></trkpt><trkpt lat="46.49586667" lon="13.49333833"><ele>784.0</ele><time>2015-11-29T12:08:15.673Z</time></trkpt><trkpt lat="46.49586667" lon="13.49333833"><ele>784.0</ele><time>2015-11-29T12:08:16.691Z</time></trkpt><trkpt lat="46.49588167" lon="13.49332667"><ele>784.0</ele><time>2015-11-29T12:08:17.672Z</time></trkpt><trkpt lat="46.49588167" lon="13.49332667"><ele>784.0</ele><time>2015-11-29T12:08:18.684Z</time></trkpt><trkpt lat="46.49590667" lon="13.4933"><ele>783.0</ele><time>2015-11-29T12:08:19.674Z</time></trkpt><trkpt lat="46.49590667" lon="13.4933"><ele>783.0</ele><time>2015-11-29T12:08:20.679Z</time></trkpt><trkpt lat="46.495945" lon="13.49329333"><ele>783.0</ele><time>2015-11-29T12:08:21.684Z</time></trkpt><trkpt lat="46.495945" lon="13.49329333"><ele>783.0</ele><time>2015-11-29T12:08:22.689Z</time></trkpt><trkpt lat="46.49596167" lon="13.49327833"><ele>783.0</ele><time>2015-11-29T12:08:23.695Z</time></trkpt><trkpt lat="46.49597333" lon="13.49326833"><ele>783.0</ele><time>2015-11-29T12:08:24.703Z</time></trkpt><trkpt lat="46.49597333" lon="13.49326833"><ele>783.0</ele><time>2015-11-29T12:08:25.669Z</time></trkpt><trkpt lat="46.496025" lon="13.49324333"><ele>784.0</ele><time>2015-11-29T12:08:26.675Z</time></trkpt><trkpt lat="46.496025" lon="13.49324333"><ele>784.0</ele><time>2015-11-29T12:08:27.705Z</time></trkpt><trkpt lat="46.49612833" lon="13.49324667"><ele>785.0</ele><time>2015-11-29T12:08:28.690Z</time></trkpt><trkpt lat="46.49612833" lon="13.49324667"><ele>785.0</ele><time>2015-11-29T12:08:29.673Z</time></trkpt><trkpt lat="46.49613833" lon="13.49325667"><ele>785.0</ele><time>2015-11-29T12:08:30.683Z</time></trkpt><trkpt lat="46.49615333" lon="13.493255"><ele>785.0</ele><time>2015-11-29T12:08:31.682Z</time></trkpt><trkpt lat="46.49617167" lon="13.493255"><ele>785.0</ele><time>2015-11-29T12:08:32.665Z</time></trkpt><trkpt lat="46.49617167" lon="13.493255"><ele>785.0</ele><time>2015-11-29T12:08:33.682Z</time></trkpt><trkpt lat="46.4962" lon="13.49325"><ele>786.0</ele><time>2015-11-29T12:08:34.703Z</time></trkpt><trkpt lat="46.49620833" lon="13.493245"><ele>786.0</ele><time>2015-11-29T12:08:35.680Z</time></trkpt><trkpt lat="46.49620833" lon="13.493245"><ele>786.0</ele><time>2015-11-29T12:08:36.686Z</time></trkpt><trkpt lat="46.49622667" lon="13.49322833"><ele>786.0</ele><time>2015-11-29T12:08:37.691Z</time></trkpt><trkpt lat="46.496235" lon="13.49321833"><ele>786.0</ele><time>2015-11-29T12:08:38.700Z</time></trkpt><trkpt lat="46.496235" lon="13.49321833"><ele>786.0</ele><time>2015-11-29T12:08:39.666Z</time></trkpt><trkpt lat="46.49625333" lon="13.49320833"><ele>785.0</ele><time>2015-11-29T12:08:40.667Z</time></trkpt><trkpt lat="46.49625333" lon="13.49320833"><ele>785.0</ele><time>2015-11-29T12:08:41.674Z</time></trkpt><trkpt lat="46.49626167" lon="13.49320167"><ele>785.0</ele><time>2015-11-29T12:08:42.680Z</time></trkpt><trkpt lat="46.49626167" lon="13.49320167"><ele>785.0</ele><time>2015-11-29T12:08:43.696Z</time></trkpt><trkpt lat="46.49627833" lon="13.49318833"><ele>785.0</ele><time>2015-11-29T12:08:44.674Z</time></trkpt><trkpt lat="46.49629" lon="13.493165"><ele>785.0</ele><time>2015-11-29T12:08:45.686Z</time></trkpt><trkpt lat="46.49629" lon="13.493165"><ele>785.0</ele><time>2015-11-29T12:08:46.668Z</time></trkpt><trkpt lat="46.496325" lon="13.493145"><ele>785.0</ele><time>2015-11-29T12:08:47.686Z</time></trkpt><trkpt lat="46.496325" lon="13.493145"><ele>785.0</ele><time>2015-11-29T12:08:48.703Z</time></trkpt><trkpt lat="46.49634" lon="13.493125"><ele>785.0</ele><time>2015-11-29T12:08:49.677Z</time></trkpt><trkpt lat="46.49634333" lon="13.493115"><ele>785.0</ele><time>2015-11-29T12:08:50.670Z</time></trkpt><trkpt lat="46.49634333" lon="13.493115"><ele>785.0</ele><time>2015-11-29T12:08:51.684Z</time></trkpt><trkpt lat="46.49635333" lon="13.49311"><ele>784.0</ele><time>2015-11-29T12:08:52.690Z</time></trkpt><trkpt lat="46.496365" lon="13.49311"><ele>784.0</ele><time>2015-11-29T12:08:53.696Z</time></trkpt><trkpt lat="46.496365" lon="13.49311"><ele>784.0</ele><time>2015-11-29T12:08:54.701Z</time></trkpt><trkpt lat="46.49638667" lon="13.49311333"><ele>784.0</ele><time>2015-11-29T12:08:55.676Z</time></trkpt><trkpt lat="46.49640333" lon="13.49311167"><ele>785.0</ele><time>2015-11-29T12:08:56.692Z</time></trkpt><trkpt lat="46.49640333" lon="13.49311167"><ele>785.0</ele><time>2015-11-29T12:08:57.697Z</time></trkpt><trkpt lat="46.496435" lon="13.49315333"><ele>785.0</ele><time>2015-11-29T12:08:58.667Z</time></trkpt><trkpt lat="46.496435" lon="13.49315333"><ele>785.0</ele><time>2015-11-29T12:08:59.675Z</time></trkpt><trkpt lat="46.49645167" lon="13.49317"><ele>785.0</ele><time>2015-11-29T12:09:00.676Z</time></trkpt><trkpt lat="46.49645167" lon="13.49317"><ele>785.0</ele><time>2015-11-29T12:09:01.697Z</time></trkpt><trkpt lat="46.49647833" lon="13.49317333"><ele>785.0</ele><time>2015-11-29T12:09:02.704Z</time></trkpt><trkpt lat="46.49647833" lon="13.49317333"><ele>785.0</ele><time>2015-11-29T12:09:03.670Z</time></trkpt><trkpt lat="46.49651" lon="13.49316333"><ele>785.0</ele><time>2015-11-29T12:09:04.675Z</time></trkpt><trkpt lat="46.49651" lon="13.49316333"><ele>785.0</ele><time>2015-11-29T12:09:05.681Z</time></trkpt><trkpt lat="46.49651667" lon="13.49315667"><ele>784.0</ele><time>2015-11-29T12:09:06.687Z</time></trkpt><trkpt lat="46.49651667" lon="13.49315667"><ele>784.0</ele><time>2015-11-29T12:09:07.693Z</time></trkpt><trkpt lat="46.49653167" lon="13.493145"><ele>784.0</ele><time>2015-11-29T12:09:08.682Z</time></trkpt><trkpt lat="46.49653167" lon="13.493145"><ele>784.0</ele><time>2015-11-29T12:09:09.699Z</time></trkpt><trkpt lat="46.49654667" lon="13.49315833"><ele>785.0</ele><time>2015-11-29T12:09:10.690Z</time></trkpt><trkpt lat="46.49654667" lon="13.49315833"><ele>785.0</ele><time>2015-11-29T12:09:11.665Z</time></trkpt><trkpt lat="46.49655833" lon="13.49317833"><ele>785.0</ele><time>2015-11-29T12:09:12.682Z</time></trkpt><trkpt lat="46.49655833" lon="13.49317833"><ele>785.0</ele><time>2015-11-29T12:09:13.698Z</time></trkpt><trkpt lat="46.496575" lon="13.49320167"><ele>785.0</ele><time>2015-11-29T12:09:14.704Z</time></trkpt><trkpt lat="46.496575" lon="13.49320167"><ele>785.0</ele><time>2015-11-29T12:09:15.670Z</time></trkpt><trkpt lat="46.49659167" lon="13.49323"><ele>785.0</ele><time>2015-11-29T12:09:16.679Z</time></trkpt><trkpt lat="46.49659167" lon="13.49323"><ele>785.0</ele><time>2015-11-29T12:09:17.685Z</time></trkpt><trkpt lat="46.49660167" lon="13.49325"><ele>785.0</ele><time>2015-11-29T12:09:18.691Z</time></trkpt><trkpt lat="46.49660167" lon="13.49325"><ele>785.0</ele><time>2015-11-29T12:09:19.700Z</time></trkpt><trkpt lat="46.49660667" lon="13.49327"><ele>785.0</ele><time>2015-11-29T12:09:20.684Z</time></trkpt><trkpt lat="46.49660667" lon="13.49327"><ele>785.0</ele><time>2015-11-29T12:09:21.672Z</time></trkpt><trkpt lat="46.49662333" lon="13.49327"><ele>785.0</ele><time>2015-11-29T12:09:22.688Z</time></trkpt><trkpt lat="46.49662833" lon="13.49327"><ele>785.0</ele><time>2015-11-29T12:09:23.675Z</time></trkpt><trkpt lat="46.49662833" lon="13.49327"><ele>785.0</ele><time>2015-11-29T12:09:24.670Z</time></trkpt><trkpt lat="46.49663833" lon="13.49326"><ele>785.0</ele><time>2015-11-29T12:09:25.686Z</time></trkpt><trkpt lat="46.49663833" lon="13.49326"><ele>785.0</ele><time>2015-11-29T12:09:26.666Z</time></trkpt><trkpt lat="46.49665167" lon="13.493245"><ele>785.0</ele><time>2015-11-29T12:09:27.693Z</time></trkpt><trkpt lat="46.49665167" lon="13.493245"><ele>785.0</ele><time>2015-11-29T12:09:28.700Z</time></trkpt><trkpt lat="46.49667333" lon="13.49324333"><ele>785.0</ele><time>2015-11-29T12:09:29.666Z</time></trkpt><trkpt lat="46.49668333" lon="13.49324333"><ele>785.0</ele><time>2015-11-29T12:09:30.671Z</time></trkpt><trkpt lat="46.49669833" lon="13.493235"><ele>785.0</ele><time>2015-11-29T12:09:31.686Z</time></trkpt><trkpt lat="46.49670667" lon="13.493215"><ele>786.0</ele><time>2015-11-29T12:09:32.692Z</time></trkpt><trkpt lat="46.49670667" lon="13.493215"><ele>786.0</ele><time>2015-11-29T12:09:33.698Z</time></trkpt><trkpt lat="46.496725" lon="13.49318667"><ele>786.0</ele><time>2015-11-29T12:09:34.670Z</time></trkpt><trkpt lat="46.49673833" lon="13.49317667"><ele>786.0</ele><time>2015-11-29T12:09:35.684Z</time></trkpt><trkpt lat="46.49673833" lon="13.49317667"><ele>786.0</ele><time>2015-11-29T12:09:36.693Z</time></trkpt><trkpt lat="46.49676667" lon="13.493175"><ele>786.0</ele><time>2015-11-29T12:09:37.673Z</time></trkpt><trkpt lat="46.496785" lon="13.49316667"><ele>787.0</ele><time>2015-11-29T12:09:38.685Z</time></trkpt><trkpt lat="46.496785" lon="13.49316667"><ele>787.0</ele><time>2015-11-29T12:09:39.686Z</time></trkpt><trkpt lat="46.49682167" lon="13.49315"><ele>788.0</ele><time>2015-11-29T12:09:40.681Z</time></trkpt><trkpt lat="46.49682167" lon="13.49315"><ele>788.0</ele><time>2015-11-29T12:09:41.674Z</time></trkpt><trkpt lat="46.49684667" lon="13.49313167"><ele>788.0</ele><time>2015-11-29T12:09:42.687Z</time></trkpt><trkpt lat="46.49684667" lon="13.49313167"><ele>788.0</ele><time>2015-11-29T12:09:43.671Z</time></trkpt><trkpt lat="46.49688167" lon="13.493095"><ele>788.0</ele><time>2015-11-29T12:09:44.691Z</time></trkpt><trkpt lat="46.49688167" lon="13.493095"><ele>788.0</ele><time>2015-11-29T12:09:45.672Z</time></trkpt><trkpt lat="46.49690333" lon="13.49306833"><ele>788.0</ele><time>2015-11-29T12:09:46.704Z</time></trkpt><trkpt lat="46.49691333" lon="13.493065"><ele>788.0</ele><time>2015-11-29T12:09:47.670Z</time></trkpt><trkpt lat="46.49691667" lon="13.49306667"><ele>788.0</ele><time>2015-11-29T12:09:48.675Z</time></trkpt><trkpt lat="46.49691667" lon="13.49306667"><ele>788.0</ele><time>2015-11-29T12:09:49.680Z</time></trkpt><trkpt lat="46.49693" lon="13.49307167"><ele>789.0</ele><time>2015-11-29T12:09:50.672Z</time></trkpt><trkpt lat="46.49693" lon="13.49307167"><ele>789.0</ele><time>2015-11-29T12:09:51.685Z</time></trkpt><trkpt lat="46.49694833" lon="13.49307333"><ele>789.0</ele><time>2015-11-29T12:09:52.673Z</time></trkpt><trkpt lat="46.49694833" lon="13.49307333"><ele>789.0</ele><time>2015-11-29T12:09:53.685Z</time></trkpt><trkpt lat="46.49695333" lon="13.49308"><ele>790.0</ele><time>2015-11-29T12:09:54.670Z</time></trkpt><trkpt lat="46.49695333" lon="13.49308"><ele>790.0</ele><time>2015-11-29T12:09:55.682Z</time></trkpt><trkpt lat="46.49697167" lon="13.49307333"><ele>791.0</ele><time>2015-11-29T12:09:56.676Z</time></trkpt><trkpt lat="46.49697167" lon="13.49307333"><ele>791.0</ele><time>2015-11-29T12:09:57.665Z</time></trkpt><trkpt lat="46.49699" lon="13.49308"><ele>791.0</ele><time>2015-11-29T12:09:58.678Z</time></trkpt><trkpt lat="46.49699" lon="13.49308"><ele>791.0</ele><time>2015-11-29T12:09:59.702Z</time></trkpt><trkpt lat="46.49699833" lon="13.493065"><ele>791.0</ele><time>2015-11-29T12:10:00.681Z</time></trkpt><trkpt lat="46.49699833" lon="13.493065"><ele>791.0</ele><time>2015-11-29T12:10:01.704Z</time></trkpt><trkpt lat="46.49702" lon="13.493045"><ele>792.0</ele><time>2015-11-29T12:10:02.679Z</time></trkpt><trkpt lat="46.49702" lon="13.493045"><ele>792.0</ele><time>2015-11-29T12:10:03.669Z</time></trkpt><trkpt lat="46.49703333" lon="13.49304"><ele>793.0</ele><time>2015-11-29T12:10:04.675Z</time></trkpt><trkpt lat="46.49704167" lon="13.49303167"><ele>793.0</ele><time>2015-11-29T12:10:05.681Z</time></trkpt><trkpt lat="46.49704167" lon="13.49303167"><ele>793.0</ele><time>2015-11-29T12:10:06.686Z</time></trkpt><trkpt lat="46.49705333" lon="13.49302167"><ele>793.0</ele><time>2015-11-29T12:10:07.691Z</time></trkpt><trkpt lat="46.49706" lon="13.49301333"><ele>793.0</ele><time>2015-11-29T12:10:08.696Z</time></trkpt><trkpt lat="46.49706" lon="13.49301333"><ele>793.0</ele><time>2015-11-29T12:10:09.666Z</time></trkpt><trkpt lat="46.49707667" lon="13.49300333"><ele>793.0</ele><time>2015-11-29T12:10:10.671Z</time></trkpt><trkpt lat="46.49707667" lon="13.49300333"><ele>793.0</ele><time>2015-11-29T12:10:11.677Z</time></trkpt><trkpt lat="46.49711833" lon="13.492995"><ele>794.0</ele><time>2015-11-29T12:10:12.682Z</time></trkpt><trkpt lat="46.49711833" lon="13.492995"><ele>794.0</ele><time>2015-11-29T12:10:13.688Z</time></trkpt><trkpt lat="46.49714333" lon="13.49298833"><ele>794.0</ele><time>2015-11-29T12:10:14.693Z</time></trkpt><trkpt lat="46.49714333" lon="13.49298833"><ele>794.0</ele><time>2015-11-29T12:10:15.700Z</time></trkpt><trkpt lat="46.49717333" lon="13.492985"><ele>794.0</ele><time>2015-11-29T12:10:16.666Z</time></trkpt><trkpt lat="46.49717333" lon="13.492985"><ele>794.0</ele><time>2015-11-29T12:10:17.671Z</time></trkpt><trkpt lat="46.4972" lon="13.49298333"><ele>794.0</ele><time>2015-11-29T12:10:18.676Z</time></trkpt><trkpt lat="46.4972" lon="13.49298333"><ele>794.0</ele><time>2015-11-29T12:10:19.681Z</time></trkpt><trkpt lat="46.49721833" lon="13.49298167"><ele>795.0</ele><time>2015-11-29T12:10:20.687Z</time></trkpt><trkpt lat="46.49721833" lon="13.49298167"><ele>795.0</ele><time>2015-11-29T12:10:21.696Z</time></trkpt><trkpt lat="46.49723667" lon="13.49298333"><ele>795.0</ele><time>2015-11-29T12:10:22.681Z</time></trkpt><trkpt lat="46.49723667" lon="13.49298333"><ele>795.0</ele><time>2015-11-29T12:10:23.669Z</time></trkpt><trkpt lat="46.49724667" lon="13.49298833"><ele>795.0</ele><time>2015-11-29T12:10:24.683Z</time></trkpt><trkpt lat="46.49725667" lon="13.49298833"><ele>795.0</ele><time>2015-11-29T12:10:25.688Z</time></trkpt><trkpt lat="46.49725667" lon="13.49298833"><ele>795.0</ele><time>2015-11-29T12:10:26.694Z</time></trkpt><trkpt lat="46.49727833" lon="13.49298"><ele>795.0</ele><time>2015-11-29T12:10:27.702Z</time></trkpt><trkpt lat="46.49729167" lon="13.49297833"><ele>795.0</ele><time>2015-11-29T12:10:28.686Z</time></trkpt><trkpt lat="46.49729167" lon="13.49297833"><ele>795.0</ele><time>2015-11-29T12:10:29.671Z</time></trkpt><trkpt lat="46.49732" lon="13.49297167"><ele>795.0</ele><time>2015-11-29T12:10:30.686Z</time></trkpt><trkpt lat="46.49733167" lon="13.49297333"><ele>795.0</ele><time>2015-11-29T12:10:31.682Z</time></trkpt><trkpt lat="46.497345" lon="13.49296333"><ele>795.0</ele><time>2015-11-29T12:10:32.685Z</time></trkpt><trkpt lat="46.497345" lon="13.49296333"><ele>795.0</ele><time>2015-11-29T12:10:33.673Z</time></trkpt><trkpt lat="46.49736" lon="13.492955"><ele>795.0</ele><time>2015-11-29T12:10:34.690Z</time></trkpt><trkpt lat="46.49736" lon="13.492955"><ele>795.0</ele><time>2015-11-29T12:10:35.667Z</time></trkpt><trkpt lat="46.49737833" lon="13.49296667"><ele>795.0</ele><time>2015-11-29T12:10:36.697Z</time></trkpt><trkpt lat="46.49737833" lon="13.49296667"><ele>795.0</ele><time>2015-11-29T12:10:37.674Z</time></trkpt><trkpt lat="46.49741" lon="13.492965"><ele>795.0</ele><time>2015-11-29T12:10:38.687Z</time></trkpt><trkpt lat="46.49741" lon="13.492965"><ele>795.0</ele><time>2015-11-29T12:10:39.692Z</time></trkpt><trkpt lat="46.497425" lon="13.49298833"><ele>794.0</ele><time>2015-11-29T12:10:40.699Z</time></trkpt><trkpt lat="46.497425" lon="13.49298833"><ele>794.0</ele><time>2015-11-29T12:10:41.672Z</time></trkpt><trkpt lat="46.49744" lon="13.49300667"><ele>794.0</ele><time>2015-11-29T12:10:42.689Z</time></trkpt><trkpt lat="46.49744" lon="13.49300667"><ele>794.0</ele><time>2015-11-29T12:10:43.666Z</time></trkpt><trkpt lat="46.49746167" lon="13.49301333"><ele>793.0</ele><time>2015-11-29T12:10:44.689Z</time></trkpt><trkpt lat="46.49747167" lon="13.49301833"><ele>793.0</ele><time>2015-11-29T12:10:45.696Z</time></trkpt><trkpt lat="46.49747167" lon="13.49301833"><ele>793.0</ele><time>2015-11-29T12:10:46.692Z</time></trkpt><trkpt lat="46.497495" lon="13.49303167"><ele>793.0</ele><time>2015-11-29T12:10:47.671Z</time></trkpt><trkpt lat="46.49750667" lon="13.49303167"><ele>793.0</ele><time>2015-11-29T12:10:48.688Z</time></trkpt><trkpt lat="46.49750667" lon="13.49303167"><ele>793.0</ele><time>2015-11-29T12:10:49.670Z</time></trkpt><trkpt lat="46.49754" lon="13.49303333"><ele>793.0</ele><time>2015-11-29T12:10:50.686Z</time></trkpt><trkpt lat="46.49755" lon="13.49303667"><ele>793.0</ele><time>2015-11-29T12:10:51.686Z</time></trkpt><trkpt lat="46.49756" lon="13.49303333"><ele>793.0</ele><time>2015-11-29T12:10:52.683Z</time></trkpt><trkpt lat="46.49757333" lon="13.49302667"><ele>794.0</ele><time>2015-11-29T12:10:53.683Z</time></trkpt><trkpt lat="46.49757333" lon="13.49302667"><ele>794.0</ele><time>2015-11-29T12:10:54.691Z</time></trkpt><trkpt lat="46.49759333" lon="13.49302667"><ele>794.0</ele><time>2015-11-29T12:10:55.685Z</time></trkpt><trkpt lat="46.4976" lon="13.49303"><ele>794.0</ele><time>2015-11-29T12:10:56.666Z</time></trkpt><trkpt lat="46.4976" lon="13.49303"><ele>794.0</ele><time>2015-11-29T12:10:57.671Z</time></trkpt><trkpt lat="46.49762333" lon="13.493025"><ele>794.0</ele><time>2015-11-29T12:10:58.677Z</time></trkpt><trkpt lat="46.49762333" lon="13.493025"><ele>794.0</ele><time>2015-11-29T12:10:59.682Z</time></trkpt><trkpt lat="46.49764833" lon="13.49303167"><ele>794.0</ele><time>2015-11-29T12:11:00.688Z</time></trkpt><trkpt lat="46.49765667" lon="13.49303167"><ele>794.0</ele><time>2015-11-29T12:11:01.694Z</time></trkpt><trkpt lat="46.49766667" lon="13.49303"><ele>794.0</ele><time>2015-11-29T12:11:02.698Z</time></trkpt><trkpt lat="46.49766667" lon="13.49303"><ele>794.0</ele><time>2015-11-29T12:11:03.703Z</time></trkpt><trkpt lat="46.49768333" lon="13.49302667"><ele>795.0</ele><time>2015-11-29T12:11:04.669Z</time></trkpt><trkpt lat="46.49769167" lon="13.49302333"><ele>795.0</ele><time>2015-11-29T12:11:05.683Z</time></trkpt><trkpt lat="46.49769167" lon="13.49302333"><ele>795.0</ele><time>2015-11-29T12:11:06.669Z</time></trkpt><trkpt lat="46.49771167" lon="13.49299167"><ele>795.0</ele><time>2015-11-29T12:11:07.691Z</time></trkpt><trkpt lat="46.497715" lon="13.492985"><ele>795.0</ele><time>2015-11-29T12:11:08.691Z</time></trkpt><trkpt lat="46.497715" lon="13.492985"><ele>795.0</ele><time>2015-11-29T12:11:09.704Z</time></trkpt><trkpt lat="46.49772333" lon="13.49297833"><ele>795.0</ele><time>2015-11-29T12:11:10.679Z</time></trkpt><trkpt lat="46.49772333" lon="13.49297833"><ele>795.0</ele><time>2015-11-29T12:11:11.693Z</time></trkpt><trkpt lat="46.49773667" lon="13.49298667"><ele>795.0</ele><time>2015-11-29T12:11:12.675Z</time></trkpt><trkpt lat="46.49773667" lon="13.49298667"><ele>795.0</ele><time>2015-11-29T12:11:13.689Z</time></trkpt><trkpt lat="46.49775" lon="13.49302"><ele>795.0</ele><time>2015-11-29T12:11:14.681Z</time></trkpt><trkpt lat="46.49775" lon="13.49302"><ele>795.0</ele><time>2015-11-29T12:11:15.668Z</time></trkpt><trkpt lat="46.49777167" lon="13.49303167"><ele>795.0</ele><time>2015-11-29T12:11:16.681Z</time></trkpt><trkpt lat="46.49777167" lon="13.49303167"><ele>795.0</ele><time>2015-11-29T12:11:17.666Z</time></trkpt><trkpt lat="46.49779333" lon="13.49304"><ele>795.0</ele><time>2015-11-29T12:11:18.680Z</time></trkpt><trkpt lat="46.49779333" lon="13.49304"><ele>795.0</ele><time>2015-11-29T12:11:19.669Z</time></trkpt><trkpt lat="46.49781667" lon="13.49305833"><ele>795.0</ele><time>2015-11-29T12:11:20.682Z</time></trkpt><trkpt lat="46.49781667" lon="13.49305833"><ele>795.0</ele><time>2015-11-29T12:11:21.703Z</time></trkpt><trkpt lat="46.497835" lon="13.49306667"><ele>795.0</ele><time>2015-11-29T12:11:22.677Z</time></trkpt><trkpt lat="46.497835" lon="13.49306667"><ele>795.0</ele><time>2015-11-29T12:11:23.689Z</time></trkpt><trkpt lat="46.49785833" lon="13.49307167"><ele>795.0</ele><time>2015-11-29T12:11:24.674Z</time></trkpt><trkpt lat="46.49787167" lon="13.49307333"><ele>795.0</ele><time>2015-11-29T12:11:25.696Z</time></trkpt><trkpt lat="46.49787167" lon="13.49307333"><ele>795.0</ele><time>2015-11-29T12:11:26.671Z</time></trkpt><trkpt lat="46.497895" lon="13.49308667"><ele>795.0</ele><time>2015-11-29T12:11:27.684Z</time></trkpt><trkpt lat="46.497905" lon="13.49309167"><ele>795.0</ele><time>2015-11-29T12:11:28.689Z</time></trkpt><trkpt lat="46.497905" lon="13.49309167"><ele>795.0</ele><time>2015-11-29T12:11:29.694Z</time></trkpt><trkpt lat="46.497925" lon="13.49310333"><ele>795.0</ele><time>2015-11-29T12:11:30.703Z</time></trkpt><trkpt lat="46.49794" lon="13.49310167"><ele>795.0</ele><time>2015-11-29T12:11:31.669Z</time></trkpt><trkpt lat="46.49794" lon="13.49310167"><ele>795.0</ele><time>2015-11-29T12:11:32.673Z</time></trkpt><trkpt lat="46.49795833" lon="13.4931"><ele>795.0</ele><time>2015-11-29T12:11:33.686Z</time></trkpt><trkpt lat="46.49797833" lon="13.493095"><ele>795.0</ele><time>2015-11-29T12:11:34.677Z</time></trkpt><trkpt lat="46.49797833" lon="13.493095"><ele>795.0</ele><time>2015-11-29T12:11:35.690Z</time></trkpt><trkpt lat="46.49800833" lon="13.49309333"><ele>795.0</ele><time>2015-11-29T12:11:36.675Z</time></trkpt><trkpt lat="46.49800833" lon="13.49309333"><ele>795.0</ele><time>2015-11-29T12:11:37.687Z</time></trkpt><trkpt lat="46.498035" lon="13.49310833"><ele>795.0</ele><time>2015-11-29T12:11:38.678Z</time></trkpt><trkpt lat="46.498035" lon="13.49310833"><ele>795.0</ele><time>2015-11-29T12:11:39.691Z</time></trkpt><trkpt lat="46.49805667" lon="13.49311167"><ele>795.0</ele><time>2015-11-29T12:11:40.673Z</time></trkpt><trkpt lat="46.49805667" lon="13.49311167"><ele>795.0</ele><time>2015-11-29T12:11:41.685Z</time></trkpt><trkpt lat="46.498075" lon="13.49311167"><ele>795.0</ele><time>2015-11-29T12:11:42.675Z</time></trkpt><trkpt lat="46.498075" lon="13.49311167"><ele>795.0</ele><time>2015-11-29T12:11:43.687Z</time></trkpt><trkpt lat="46.49808667" lon="13.49310667"><ele>796.0</ele><time>2015-11-29T12:11:44.675Z</time></trkpt><trkpt lat="46.49808667" lon="13.49310667"><ele>796.0</ele><time>2015-11-29T12:11:45.672Z</time></trkpt><trkpt lat="46.49810833" lon="13.49311167"><ele>795.0</ele><time>2015-11-29T12:11:46.694Z</time></trkpt><trkpt lat="46.49811167" lon="13.49311167"><ele>795.0</ele><time>2015-11-29T12:11:47.676Z</time></trkpt><trkpt lat="46.49811167" lon="13.49311167"><ele>795.0</ele><time>2015-11-29T12:11:48.688Z</time></trkpt><trkpt lat="46.49813667" lon="13.49311667"><ele>795.0</ele><time>2015-11-29T12:11:49.677Z</time></trkpt><trkpt lat="46.49813667" lon="13.49311667"><ele>795.0</ele><time>2015-11-29T12:11:50.690Z</time></trkpt><trkpt lat="46.49817167" lon="13.49311833"><ele>795.0</ele><time>2015-11-29T12:11:51.675Z</time></trkpt><trkpt lat="46.49817167" lon="13.49311833"><ele>795.0</ele><time>2015-11-29T12:11:52.686Z</time></trkpt><trkpt lat="46.49820167" lon="13.49313167"><ele>795.0</ele><time>2015-11-29T12:11:53.675Z</time></trkpt><trkpt lat="46.49820167" lon="13.49313167"><ele>795.0</ele><time>2015-11-29T12:11:54.688Z</time></trkpt><trkpt lat="46.49823667" lon="13.49313167"><ele>794.0</ele><time>2015-11-29T12:11:55.675Z</time></trkpt><trkpt lat="46.498255" lon="13.49312667"><ele>794.0</ele><time>2015-11-29T12:11:56.692Z</time></trkpt><trkpt lat="46.498255" lon="13.49312667"><ele>794.0</ele><time>2015-11-29T12:11:57.666Z</time></trkpt><trkpt lat="46.49827" lon="13.49314"><ele>794.0</ele><time>2015-11-29T12:11:58.679Z</time></trkpt><trkpt lat="46.49827" lon="13.49314"><ele>794.0</ele><time>2015-11-29T12:11:59.665Z</time></trkpt><trkpt lat="46.49829167" lon="13.49314667"><ele>793.0</ele><time>2015-11-29T12:12:00.684Z</time></trkpt><trkpt lat="46.49829167" lon="13.49314667"><ele>793.0</ele><time>2015-11-29T12:12:01.667Z</time></trkpt><trkpt lat="46.49830667" lon="13.49314333"><ele>793.0</ele><time>2015-11-29T12:12:02.679Z</time></trkpt><trkpt lat="46.49830667" lon="13.49314333"><ele>793.0</ele><time>2015-11-29T12:12:03.692Z</time></trkpt><trkpt lat="46.49832167" lon="13.49313333"><ele>792.0</ele><time>2015-11-29T12:12:04.673Z</time></trkpt><trkpt lat="46.49832167" lon="13.49313333"><ele>792.0</ele><time>2015-11-29T12:12:05.686Z</time></trkpt><trkpt lat="46.49833833" lon="13.49311833"><ele>791.0</ele><time>2015-11-29T12:12:06.671Z</time></trkpt><trkpt lat="46.49833833" lon="13.49311833"><ele>791.0</ele><time>2015-11-29T12:12:07.683Z</time></trkpt><trkpt lat="46.49834833" lon="13.49311333"><ele>791.0</ele><time>2015-11-29T12:12:08.676Z</time></trkpt><trkpt lat="46.49834833" lon="13.49311333"><ele>791.0</ele><time>2015-11-29T12:12:09.689Z</time></trkpt><trkpt lat="46.49835833" lon="13.493095"><ele>790.0</ele><time>2015-11-29T12:12:10.673Z</time></trkpt><trkpt lat="46.49835833" lon="13.493095"><ele>790.0</ele><time>2015-11-29T12:12:11.694Z</time></trkpt><trkpt lat="46.49836333" lon="13.49308"><ele>789.0</ele><time>2015-11-29T12:12:12.672Z</time></trkpt><trkpt lat="46.49837667" lon="13.49307"><ele>789.0</ele><time>2015-11-29T12:12:13.690Z</time></trkpt><trkpt lat="46.49839333" lon="13.493075"><ele>789.0</ele><time>2015-11-29T12:12:14.679Z</time></trkpt><trkpt lat="46.49839333" lon="13.493075"><ele>789.0</ele><time>2015-11-29T12:12:15.685Z</time></trkpt><trkpt lat="46.49841833" lon="13.49306167"><ele>789.0</ele><time>2015-11-29T12:12:16.690Z</time></trkpt><trkpt lat="46.49841833" lon="13.49306167"><ele>789.0</ele><time>2015-11-29T12:12:17.695Z</time></trkpt><trkpt lat="46.49843833" lon="13.493045"><ele>789.0</ele><time>2015-11-29T12:12:18.676Z</time></trkpt><trkpt lat="46.49843833" lon="13.493045"><ele>789.0</ele><time>2015-11-29T12:12:19.682Z</time></trkpt><trkpt lat="46.49845333" lon="13.49306167"><ele>788.0</ele><time>2015-11-29T12:12:20.688Z</time></trkpt><trkpt lat="46.49845333" lon="13.49306167"><ele>788.0</ele><time>2015-11-29T12:12:21.694Z</time></trkpt><trkpt lat="46.49845667" lon="13.49306"><ele>788.0</ele><time>2015-11-29T12:12:22.667Z</time></trkpt><trkpt lat="46.49845667" lon="13.49306"><ele>788.0</ele><time>2015-11-29T12:12:23.672Z</time></trkpt><trkpt lat="46.49846833" lon="13.49305"><ele>788.0</ele><time>2015-11-29T12:12:24.677Z</time></trkpt><trkpt lat="46.49848" lon="13.49304333"><ele>788.0</ele><time>2015-11-29T12:12:25.681Z</time></trkpt><trkpt lat="46.49849333" lon="13.49303667"><ele>788.0</ele><time>2015-11-29T12:12:26.675Z</time></trkpt><trkpt lat="46.49849333" lon="13.49303667"><ele>788.0</ele><time>2015-11-29T12:12:27.688Z</time></trkpt><trkpt lat="46.498525" lon="13.49301833"><ele>789.0</ele><time>2015-11-29T12:12:28.693Z</time></trkpt><trkpt lat="46.498525" lon="13.493"><ele>789.0</ele><time>2015-11-29T12:12:29.698Z</time></trkpt><trkpt lat="46.498525" lon="13.493"><ele>789.0</ele><time>2015-11-29T12:12:30.703Z</time></trkpt><trkpt lat="46.49853" lon="13.49297667"><ele>788.0</ele><time>2015-11-29T12:12:31.677Z</time></trkpt><trkpt lat="46.498535" lon="13.49295833"><ele>789.0</ele><time>2015-11-29T12:12:32.694Z</time></trkpt><trkpt lat="46.498535" lon="13.49295833"><ele>789.0</ele><time>2015-11-29T12:12:33.672Z</time></trkpt><trkpt lat="46.49856167" lon="13.49292167"><ele>788.0</ele><time>2015-11-29T12:12:34.686Z</time></trkpt><trkpt lat="46.49856167" lon="13.49292167"><ele>788.0</ele><time>2015-11-29T12:12:35.667Z</time></trkpt><trkpt lat="46.49860333" lon="13.49287833"><ele>789.0</ele><time>2015-11-29T12:12:36.694Z</time></trkpt><trkpt lat="46.49860333" lon="13.49287833"><ele>789.0</ele><time>2015-11-29T12:12:37.671Z</time></trkpt><trkpt lat="46.49863" lon="13.49284333"><ele>789.0</ele><time>2015-11-29T12:12:38.686Z</time></trkpt><trkpt lat="46.49863" lon="13.49284333"><ele>789.0</ele><time>2015-11-29T12:12:39.665Z</time></trkpt><trkpt lat="46.49865" lon="13.492815"><ele>788.0</ele><time>2015-11-29T12:12:40.679Z</time></trkpt><trkpt lat="46.49865" lon="13.492815"><ele>788.0</ele><time>2015-11-29T12:12:41.695Z</time></trkpt><trkpt lat="46.498665" lon="13.492785"><ele>787.0</ele><time>2015-11-29T12:12:42.685Z</time></trkpt><trkpt lat="46.498665" lon="13.492785"><ele>787.0</ele><time>2015-11-29T12:12:43.669Z</time></trkpt><trkpt lat="46.49868667" lon="13.49276"><ele>787.0</ele><time>2015-11-29T12:12:44.683Z</time></trkpt><trkpt lat="46.49868667" lon="13.49276"><ele>787.0</ele><time>2015-11-29T12:12:45.670Z</time></trkpt><trkpt lat="46.49870667" lon="13.49274333"><ele>787.0</ele><time>2015-11-29T12:12:46.694Z</time></trkpt><trkpt lat="46.49870667" lon="13.49274333"><ele>787.0</ele><time>2015-11-29T12:12:47.672Z</time></trkpt><trkpt lat="46.49872333" lon="13.49274333"><ele>787.0</ele><time>2015-11-29T12:12:48.685Z</time></trkpt><trkpt lat="46.49872333" lon="13.49274333"><ele>787.0</ele><time>2015-11-29T12:12:49.668Z</time></trkpt><trkpt lat="46.49874667" lon="13.49274333"><ele>787.0</ele><time>2015-11-29T12:12:50.681Z</time></trkpt><trkpt lat="46.49874667" lon="13.49274333"><ele>787.0</ele><time>2015-11-29T12:12:51.672Z</time></trkpt><trkpt lat="46.49876" lon="13.492745"><ele>786.0</ele><time>2015-11-29T12:12:52.688Z</time></trkpt><trkpt lat="46.49876" lon="13.492745"><ele>786.0</ele><time>2015-11-29T12:12:53.671Z</time></trkpt><trkpt lat="46.49878333" lon="13.492755"><ele>785.0</ele><time>2015-11-29T12:12:54.685Z</time></trkpt><trkpt lat="46.498795" lon="13.49275333"><ele>785.0</ele><time>2015-11-29T12:12:55.679Z</time></trkpt><trkpt lat="46.498795" lon="13.49275333"><ele>785.0</ele><time>2015-11-29T12:12:56.704Z</time></trkpt><trkpt lat="46.49881167" lon="13.49275"><ele>785.0</ele><time>2015-11-29T12:12:57.677Z</time></trkpt><trkpt lat="46.49882" lon="13.49275167"><ele>784.0</ele><time>2015-11-29T12:12:58.691Z</time></trkpt><trkpt lat="46.49882" lon="13.49275167"><ele>784.0</ele><time>2015-11-29T12:12:59.671Z</time></trkpt><trkpt lat="46.49884167" lon="13.49275"><ele>784.0</ele><time>2015-11-29T12:13:00.695Z</time></trkpt><trkpt lat="46.49884167" lon="13.49275"><ele>784.0</ele><time>2015-11-29T12:13:01.668Z</time></trkpt><trkpt lat="46.498865" lon="13.49275833"><ele>783.0</ele><time>2015-11-29T12:13:02.685Z</time></trkpt><trkpt lat="46.498865" lon="13.49275833"><ele>783.0</ele><time>2015-11-29T12:13:03.667Z</time></trkpt><trkpt lat="46.498885" lon="13.49276333"><ele>783.0</ele><time>2015-11-29T12:13:04.681Z</time></trkpt><trkpt lat="46.498885" lon="13.49276333"><ele>783.0</ele><time>2015-11-29T12:13:05.667Z</time></trkpt><trkpt lat="46.49890667" lon="13.49276333"><ele>782.0</ele><time>2015-11-29T12:13:06.680Z</time></trkpt><trkpt lat="46.49890667" lon="13.49276333"><ele>782.0</ele><time>2015-11-29T12:13:07.670Z</time></trkpt><trkpt lat="46.49892833" lon="13.49277167"><ele>782.0</ele><time>2015-11-29T12:13:08.682Z</time></trkpt><trkpt lat="46.49892833" lon="13.49277167"><ele>782.0</ele><time>2015-11-29T12:13:09.666Z</time></trkpt><trkpt lat="46.49895833" lon="13.49277833"><ele>782.0</ele><time>2015-11-29T12:13:10.678Z</time></trkpt><trkpt lat="46.49895833" lon="13.49277833"><ele>782.0</ele><time>2015-11-29T12:13:11.695Z</time></trkpt><trkpt lat="46.49897833" lon="13.49278"><ele>782.0</ele><time>2015-11-29T12:13:12.676Z</time></trkpt><trkpt lat="46.49897833" lon="13.49278"><ele>782.0</ele><time>2015-11-29T12:13:13.690Z</time></trkpt><trkpt lat="46.49900333" lon="13.49278333"><ele>782.0</ele><time>2015-11-29T12:13:14.672Z</time></trkpt><trkpt lat="46.49901667" lon="13.49278667"><ele>782.0</ele><time>2015-11-29T12:13:15.685Z</time></trkpt><trkpt lat="46.49903167" lon="13.49279"><ele>782.0</ele><time>2015-11-29T12:13:16.670Z</time></trkpt><trkpt lat="46.49903167" lon="13.49279"><ele>782.0</ele><time>2015-11-29T12:13:17.695Z</time></trkpt><trkpt lat="46.49905667" lon="13.492805"><ele>782.0</ele><time>2015-11-29T12:13:18.673Z</time></trkpt><trkpt lat="46.499065" lon="13.49281333"><ele>782.0</ele><time>2015-11-29T12:13:19.686Z</time></trkpt><trkpt lat="46.49907333" lon="13.49282"><ele>781.0</ele><time>2015-11-29T12:13:20.679Z</time></trkpt><trkpt lat="46.49907333" lon="13.49282"><ele>781.0</ele><time>2015-11-29T12:13:21.671Z</time></trkpt><trkpt lat="46.49909167" lon="13.49283167"><ele>781.0</ele><time>2015-11-29T12:13:22.684Z</time></trkpt><trkpt lat="46.49910833" lon="13.49283667"><ele>781.0</ele><time>2015-11-29T12:13:23.680Z</time></trkpt><trkpt lat="46.49910833" lon="13.49283667"><ele>781.0</ele><time>2015-11-29T12:13:24.672Z</time></trkpt><trkpt lat="46.499125" lon="13.49285167"><ele>781.0</ele><time>2015-11-29T12:13:25.684Z</time></trkpt><trkpt lat="46.499135" lon="13.49285833"><ele>780.0</ele><time>2015-11-29T12:13:26.699Z</time></trkpt><trkpt lat="46.499135" lon="13.49285833"><ele>780.0</ele><time>2015-11-29T12:13:27.665Z</time></trkpt><trkpt lat="46.49916" lon="13.49287833"><ele>780.0</ele><time>2015-11-29T12:13:28.672Z</time></trkpt><trkpt lat="46.49917167" lon="13.49288833"><ele>780.0</ele><time>2015-11-29T12:13:29.677Z</time></trkpt><trkpt lat="46.49917167" lon="13.49288833"><ele>780.0</ele><time>2015-11-29T12:13:30.682Z</time></trkpt><trkpt lat="46.49919167" lon="13.49289833"><ele>780.0</ele><time>2015-11-29T12:13:31.687Z</time></trkpt><trkpt lat="46.49921" lon="13.49290333"><ele>780.0</ele><time>2015-11-29T12:13:32.694Z</time></trkpt><trkpt lat="46.49921" lon="13.49290333"><ele>780.0</ele><time>2015-11-29T12:13:33.670Z</time></trkpt><trkpt lat="46.499235" lon="13.49290667"><ele>780.0</ele><time>2015-11-29T12:13:34.693Z</time></trkpt><trkpt lat="46.499235" lon="13.49290667"><ele>780.0</ele><time>2015-11-29T12:13:35.673Z</time></trkpt><trkpt lat="46.49925833" lon="13.49291167"><ele>780.0</ele><time>2015-11-29T12:13:36.688Z</time></trkpt><trkpt lat="46.49927667" lon="13.49291667"><ele>780.0</ele><time>2015-11-29T12:13:37.671Z</time></trkpt><trkpt lat="46.49927667" lon="13.49291667"><ele>780.0</ele><time>2015-11-29T12:13:38.683Z</time></trkpt><trkpt lat="46.499315" lon="13.492915"><ele>780.0</ele><time>2015-11-29T12:13:39.675Z</time></trkpt><trkpt lat="46.49933333" lon="13.49291167"><ele>780.0</ele><time>2015-11-29T12:13:40.688Z</time></trkpt><trkpt lat="46.49933333" lon="13.49291167"><ele>780.0</ele><time>2015-11-29T12:13:41.673Z</time></trkpt><trkpt lat="46.49936" lon="13.49289833"><ele>780.0</ele><time>2015-11-29T12:13:42.685Z</time></trkpt><trkpt lat="46.499375" lon="13.49288833"><ele>780.0</ele><time>2015-11-29T12:13:43.679Z</time></trkpt><trkpt lat="46.499375" lon="13.49288833"><ele>780.0</ele><time>2015-11-29T12:13:44.692Z</time></trkpt><trkpt lat="46.499385" lon="13.492905"><ele>780.0</ele><time>2015-11-29T12:13:45.679Z</time></trkpt><trkpt lat="46.499385" lon="13.492905"><ele>780.0</ele><time>2015-11-29T12:13:46.691Z</time></trkpt><trkpt lat="46.49940333" lon="13.49292833"><ele>779.0</ele><time>2015-11-29T12:13:47.677Z</time></trkpt><trkpt lat="46.49940333" lon="13.49292833"><ele>779.0</ele><time>2015-11-29T12:13:48.694Z</time></trkpt><trkpt lat="46.49940833" lon="13.49294667"><ele>779.0</ele><time>2015-11-29T12:13:49.676Z</time></trkpt><trkpt lat="46.49941167" lon="13.49296"><ele>779.0</ele><time>2015-11-29T12:13:50.689Z</time></trkpt><trkpt lat="46.49941167" lon="13.49296"><ele>779.0</ele><time>2015-11-29T12:13:51.667Z</time></trkpt><trkpt lat="46.49941667" lon="13.49299833"><ele>779.0</ele><time>2015-11-29T12:13:52.680Z</time></trkpt><trkpt lat="46.49941667" lon="13.49299833"><ele>779.0</ele><time>2015-11-29T12:13:53.695Z</time></trkpt><trkpt lat="46.499415" lon="13.49302667"><ele>780.0</ele><time>2015-11-29T12:13:54.671Z</time></trkpt><trkpt lat="46.499415" lon="13.49302667"><ele>780.0</ele><time>2015-11-29T12:13:55.684Z</time></trkpt><trkpt lat="46.49941667" lon="13.49304667"><ele>780.0</ele><time>2015-11-29T12:13:56.677Z</time></trkpt><trkpt lat="46.49941667" lon="13.49304667"><ele>780.0</ele><time>2015-11-29T12:13:57.692Z</time></trkpt><trkpt lat="46.49941" lon="13.49304833"><ele>780.0</ele><time>2015-11-29T12:13:58.669Z</time></trkpt><trkpt lat="46.49941" lon="13.49304833"><ele>780.0</ele><time>2015-11-29T12:13:59.682Z</time></trkpt><trkpt lat="46.49942" lon="13.49306"><ele>780.0</ele><time>2015-11-29T12:14:00.673Z</time></trkpt><trkpt lat="46.49942" lon="13.49306"><ele>780.0</ele><time>2015-11-29T12:14:01.685Z</time></trkpt><trkpt lat="46.49943833" lon="13.49307167"><ele>780.0</ele><time>2015-11-29T12:14:02.675Z</time></trkpt><trkpt lat="46.49943833" lon="13.49307167"><ele>780.0</ele><time>2015-11-29T12:14:03.692Z</time></trkpt><trkpt lat="46.49946667" lon="13.49311333"><ele>779.0</ele><time>2015-11-29T12:14:04.670Z</time></trkpt><trkpt lat="46.49946667" lon="13.49311333"><ele>779.0</ele><time>2015-11-29T12:14:05.682Z</time></trkpt><trkpt lat="46.49947333" lon="13.49311833"><ele>779.0</ele><time>2015-11-29T12:14:06.675Z</time></trkpt><trkpt lat="46.49947333" lon="13.49311833"><ele>779.0</ele><time>2015-11-29T12:14:07.688Z</time></trkpt><trkpt lat="46.499485" lon="13.49310833"><ele>779.0</ele><time>2015-11-29T12:14:08.683Z</time></trkpt><trkpt lat="46.499485" lon="13.49310833"><ele>779.0</ele><time>2015-11-29T12:14:09.673Z</time></trkpt><trkpt lat="46.499505" lon="13.49309667"><ele>779.0</ele><time>2015-11-29T12:14:10.685Z</time></trkpt><trkpt lat="46.499505" lon="13.49309667"><ele>779.0</ele><time>2015-11-29T12:14:11.667Z</time></trkpt><trkpt lat="46.499515" lon="13.49310833"><ele>779.0</ele><time>2015-11-29T12:14:12.681Z</time></trkpt><trkpt lat="46.499515" lon="13.49310833"><ele>779.0</ele><time>2015-11-29T12:14:13.695Z</time></trkpt><trkpt lat="46.49953333" lon="13.49310333"><ele>779.0</ele><time>2015-11-29T12:14:14.673Z</time></trkpt><trkpt lat="46.49953333" lon="13.49310333"><ele>779.0</ele><time>2015-11-29T12:14:15.695Z</time></trkpt><trkpt lat="46.499555" lon="13.49308833"><ele>779.0</ele><time>2015-11-29T12:14:16.671Z</time></trkpt><trkpt lat="46.499555" lon="13.49308833"><ele>779.0</ele><time>2015-11-29T12:14:17.683Z</time></trkpt><trkpt lat="46.49957833" lon="13.49308"><ele>779.0</ele><time>2015-11-29T12:14:18.677Z</time></trkpt><trkpt lat="46.49957833" lon="13.49308"><ele>779.0</ele><time>2015-11-29T12:14:19.689Z</time></trkpt><trkpt lat="46.49960333" lon="13.49308"><ele>779.0</ele><time>2015-11-29T12:14:20.680Z</time></trkpt><trkpt lat="46.49960333" lon="13.49308"><ele>779.0</ele><time>2015-11-29T12:14:21.699Z</time></trkpt><trkpt lat="46.49963167" lon="13.49307667"><ele>778.0</ele><time>2015-11-29T12:14:22.678Z</time></trkpt><trkpt lat="46.49963167" lon="13.49307667"><ele>778.0</ele><time>2015-11-29T12:14:23.691Z</time></trkpt><trkpt lat="46.49965333" lon="13.49304833"><ele>778.0</ele><time>2015-11-29T12:14:24.674Z</time></trkpt><trkpt lat="46.49965333" lon="13.49304833"><ele>778.0</ele><time>2015-11-29T12:14:25.690Z</time></trkpt><trkpt lat="46.49967667" lon="13.493035"><ele>778.0</ele><time>2015-11-29T12:14:26.691Z</time></trkpt><trkpt lat="46.49967667" lon="13.493035"><ele>778.0</ele><time>2015-11-29T12:14:27.666Z</time></trkpt><trkpt lat="46.49971833" lon="13.49304"><ele>779.0</ele><time>2015-11-29T12:14:28.682Z</time></trkpt><trkpt lat="46.49971833" lon="13.49304"><ele>779.0</ele><time>2015-11-29T12:14:29.673Z</time></trkpt><trkpt lat="46.499745" lon="13.49304333"><ele>779.0</ele><time>2015-11-29T12:14:30.688Z</time></trkpt><trkpt lat="46.499745" lon="13.49304333"><ele>779.0</ele><time>2015-11-29T12:14:31.668Z</time></trkpt><trkpt lat="46.49976" lon="13.49304167"><ele>779.0</ele><time>2015-11-29T12:14:32.681Z</time></trkpt><trkpt lat="46.49976" lon="13.49304167"><ele>779.0</ele><time>2015-11-29T12:14:33.670Z</time></trkpt><trkpt lat="46.49977833" lon="13.49304"><ele>778.0</ele><time>2015-11-29T12:14:34.684Z</time></trkpt><trkpt lat="46.49977833" lon="13.49304"><ele>778.0</ele><time>2015-11-29T12:14:35.704Z</time></trkpt><trkpt lat="46.49977167" lon="13.49301667"><ele>778.0</ele><time>2015-11-29T12:14:36.678Z</time></trkpt><trkpt lat="46.49977167" lon="13.49301667"><ele>778.0</ele><time>2015-11-29T12:14:37.691Z</time></trkpt><trkpt lat="46.49980667" lon="13.49301333"><ele>778.0</ele><time>2015-11-29T12:14:38.679Z</time></trkpt><trkpt lat="46.49980667" lon="13.49301333"><ele>778.0</ele><time>2015-11-29T12:14:39.695Z</time></trkpt><trkpt lat="46.49983167" lon="13.49301167"><ele>778.0</ele><time>2015-11-29T12:14:40.670Z</time></trkpt><trkpt lat="46.49983167" lon="13.49301167"><ele>778.0</ele><time>2015-11-29T12:14:41.683Z</time></trkpt><trkpt lat="46.49985167" lon="13.49302333"><ele>778.0</ele><time>2015-11-29T12:14:42.677Z</time></trkpt><trkpt lat="46.49985167" lon="13.49302333"><ele>778.0</ele><time>2015-11-29T12:14:43.690Z</time></trkpt><trkpt lat="46.49987667" lon="13.49303667"><ele>777.0</ele><time>2015-11-29T12:14:44.682Z</time></trkpt><trkpt lat="46.49987667" lon="13.49303667"><ele>777.0</ele><time>2015-11-29T12:14:45.673Z</time></trkpt><trkpt lat="46.49990167" lon="13.49304333"><ele>777.0</ele><time>2015-11-29T12:14:46.690Z</time></trkpt><trkpt lat="46.49991" lon="13.493045"><ele>777.0</ele><time>2015-11-29T12:14:47.676Z</time></trkpt><trkpt lat="46.49991" lon="13.493045"><ele>777.0</ele><time>2015-11-29T12:14:48.689Z</time></trkpt><trkpt lat="46.49994667" lon="13.49303"><ele>777.0</ele><time>2015-11-29T12:14:49.670Z</time></trkpt><trkpt lat="46.49994667" lon="13.49303"><ele>777.0</ele><time>2015-11-29T12:14:50.682Z</time></trkpt><trkpt lat="46.49999167" lon="13.49302167"><ele>777.0</ele><time>2015-11-29T12:14:51.674Z</time></trkpt><trkpt lat="46.49999167" lon="13.49302167"><ele>777.0</ele><time>2015-11-29T12:14:52.687Z</time></trkpt><trkpt lat="46.50002167" lon="13.49300333"><ele>776.0</ele><time>2015-11-29T12:14:53.679Z</time></trkpt><trkpt lat="46.50002167" lon="13.49300333"><ele>776.0</ele><time>2015-11-29T12:14:54.702Z</time></trkpt><trkpt lat="46.50003667" lon="13.49298"><ele>776.0</ele><time>2015-11-29T12:14:55.677Z</time></trkpt><trkpt lat="46.50005" lon="13.49296167"><ele>776.0</ele><time>2015-11-29T12:14:56.691Z</time></trkpt><trkpt lat="46.50005" lon="13.49296167"><ele>776.0</ele><time>2015-11-29T12:14:57.667Z</time></trkpt><trkpt lat="46.50007667" lon="13.49293"><ele>775.0</ele><time>2015-11-29T12:14:58.679Z</time></trkpt><trkpt lat="46.50007667" lon="13.49293"><ele>775.0</ele><time>2015-11-29T12:14:59.704Z</time></trkpt><trkpt lat="46.500095" lon="13.49291"><ele>775.0</ele><time>2015-11-29T12:15:00.685Z</time></trkpt><trkpt lat="46.500095" lon="13.49291"><ele>775.0</ele><time>2015-11-29T12:15:01.673Z</time></trkpt><trkpt lat="46.50011833" lon="13.49288167"><ele>775.0</ele><time>2015-11-29T12:15:02.685Z</time></trkpt><trkpt lat="46.50011833" lon="13.49288167"><ele>775.0</ele><time>2015-11-29T12:15:03.669Z</time></trkpt><trkpt lat="46.50014" lon="13.49285667"><ele>775.0</ele><time>2015-11-29T12:15:04.690Z</time></trkpt><trkpt lat="46.50014" lon="13.49285667"><ele>775.0</ele><time>2015-11-29T12:15:05.672Z</time></trkpt><trkpt lat="46.500155" lon="13.49283333"><ele>775.0</ele><time>2015-11-29T12:15:06.694Z</time></trkpt><trkpt lat="46.500155" lon="13.49283333"><ele>775.0</ele><time>2015-11-29T12:15:07.673Z</time></trkpt><trkpt lat="46.50017" lon="13.492795"><ele>775.0</ele><time>2015-11-29T12:15:08.686Z</time></trkpt><trkpt lat="46.50017" lon="13.492795"><ele>775.0</ele><time>2015-11-29T12:15:09.671Z</time></trkpt><trkpt lat="46.50018833" lon="13.49276833"><ele>775.0</ele><time>2015-11-29T12:15:10.685Z</time></trkpt><trkpt lat="46.50018833" lon="13.49276833"><ele>775.0</ele><time>2015-11-29T12:15:11.673Z</time></trkpt><trkpt lat="46.50020667" lon="13.49274"><ele>775.0</ele><time>2015-11-29T12:15:12.685Z</time></trkpt><trkpt lat="46.50021167" lon="13.49273"><ele>775.0</ele><time>2015-11-29T12:15:13.676Z</time></trkpt><trkpt lat="46.50022333" lon="13.49272167"><ele>775.0</ele><time>2015-11-29T12:15:14.689Z</time></trkpt><trkpt lat="46.50022333" lon="13.49272167"><ele>775.0</ele><time>2015-11-29T12:15:15.667Z</time></trkpt><trkpt lat="46.50026333" lon="13.49269667"><ele>776.0</ele><time>2015-11-29T12:15:16.679Z</time></trkpt><trkpt lat="46.50026333" lon="13.49269667"><ele>776.0</ele><time>2015-11-29T12:15:17.692Z</time></trkpt><trkpt lat="46.5003" lon="13.49267167"><ele>777.0</ele><time>2015-11-29T12:15:18.675Z</time></trkpt><trkpt lat="46.50031" lon="13.492665"><ele>777.0</ele><time>2015-11-29T12:15:19.688Z</time></trkpt><trkpt lat="46.50031667" lon="13.492655"><ele>777.0</ele><time>2015-11-29T12:15:20.679Z</time></trkpt><trkpt lat="46.50031667" lon="13.492655"><ele>777.0</ele><time>2015-11-29T12:15:21.695Z</time></trkpt><trkpt lat="46.500345" lon="13.49264167"><ele>778.0</ele><time>2015-11-29T12:15:22.677Z</time></trkpt><trkpt lat="46.500345" lon="13.49264167"><ele>778.0</ele><time>2015-11-29T12:15:23.689Z</time></trkpt><trkpt lat="46.50037167" lon="13.49262833"><ele>778.0</ele><time>2015-11-29T12:15:24.670Z</time></trkpt><trkpt lat="46.50037167" lon="13.49262833"><ele>778.0</ele><time>2015-11-29T12:15:25.683Z</time></trkpt><trkpt lat="46.50039" lon="13.49260833"><ele>778.0</ele><time>2015-11-29T12:15:26.695Z</time></trkpt><trkpt lat="46.50039" lon="13.49260833"><ele>778.0</ele><time>2015-11-29T12:15:27.674Z</time></trkpt><trkpt lat="46.50040667" lon="13.49259"><ele>778.0</ele><time>2015-11-29T12:15:28.687Z</time></trkpt><trkpt lat="46.50040667" lon="13.49259"><ele>778.0</ele><time>2015-11-29T12:15:29.668Z</time></trkpt><trkpt lat="46.50042333" lon="13.49257833"><ele>778.0</ele><time>2015-11-29T12:15:30.680Z</time></trkpt><trkpt lat="46.50042333" lon="13.49257833"><ele>778.0</ele><time>2015-11-29T12:15:31.695Z</time></trkpt><trkpt lat="46.50043833" lon="13.49255667"><ele>778.0</ele><time>2015-11-29T12:15:32.674Z</time></trkpt><trkpt lat="46.50043833" lon="13.49255667"><ele>778.0</ele><time>2015-11-29T12:15:33.704Z</time></trkpt><trkpt lat="46.50044333" lon="13.49254833"><ele>777.0</ele><time>2015-11-29T12:15:34.679Z</time></trkpt><trkpt lat="46.50044333" lon="13.49254833"><ele>777.0</ele><time>2015-11-29T12:15:35.685Z</time></trkpt><trkpt lat="46.50044833" lon="13.49254"><ele>777.0</ele><time>2015-11-29T12:15:36.690Z</time></trkpt><trkpt lat="46.50044833" lon="13.49254"><ele>777.0</ele><time>2015-11-29T12:15:37.695Z</time></trkpt><trkpt lat="46.50045833" lon="13.49252667"><ele>777.0</ele><time>2015-11-29T12:15:38.700Z</time></trkpt><trkpt lat="46.50045833" lon="13.49252667"><ele>777.0</ele><time>2015-11-29T12:15:39.674Z</time></trkpt><trkpt lat="46.50047667" lon="13.49251167"><ele>777.0</ele><time>2015-11-29T12:15:40.687Z</time></trkpt><trkpt lat="46.50047667" lon="13.49251167"><ele>777.0</ele><time>2015-11-29T12:15:41.666Z</time></trkpt><trkpt lat="46.50049667" lon="13.49249"><ele>777.0</ele><time>2015-11-29T12:15:42.679Z</time></trkpt><trkpt lat="46.500505" lon="13.49248"><ele>777.0</ele><time>2015-11-29T12:15:43.691Z</time></trkpt><trkpt lat="46.50051167" lon="13.49247"><ele>777.0</ele><time>2015-11-29T12:15:44.677Z</time></trkpt><trkpt lat="46.50051167" lon="13.49247"><ele>777.0</ele><time>2015-11-29T12:15:45.703Z</time></trkpt><trkpt lat="46.50052833" lon="13.49245167"><ele>777.0</ele><time>2015-11-29T12:15:46.679Z</time></trkpt><trkpt lat="46.50053333" lon="13.49244167"><ele>777.0</ele><time>2015-11-29T12:15:47.693Z</time></trkpt><trkpt lat="46.50053333" lon="13.49244167"><ele>777.0</ele><time>2015-11-29T12:15:48.674Z</time></trkpt><trkpt lat="46.500545" lon="13.49242167"><ele>777.0</ele><time>2015-11-29T12:15:49.687Z</time></trkpt><trkpt lat="46.50055333" lon="13.49241167"><ele>777.0</ele><time>2015-11-29T12:15:50.676Z</time></trkpt><trkpt lat="46.50055333" lon="13.49241167"><ele>777.0</ele><time>2015-11-29T12:15:51.697Z</time></trkpt><trkpt lat="46.50057167" lon="13.492395"><ele>777.0</ele><time>2015-11-29T12:15:52.678Z</time></trkpt><trkpt lat="46.50057833" lon="13.492385"><ele>777.0</ele><time>2015-11-29T12:15:53.692Z</time></trkpt><trkpt lat="46.50057833" lon="13.492385"><ele>777.0</ele><time>2015-11-29T12:15:54.667Z</time></trkpt><trkpt lat="46.50059" lon="13.49236167"><ele>777.0</ele><time>2015-11-29T12:15:55.683Z</time></trkpt><trkpt lat="46.500595" lon="13.49235"><ele>777.0</ele><time>2015-11-29T12:15:56.676Z</time></trkpt><trkpt lat="46.500595" lon="13.49235"><ele>777.0</ele><time>2015-11-29T12:15:57.695Z</time></trkpt><trkpt lat="46.50060833" lon="13.492325"><ele>777.0</ele><time>2015-11-29T12:15:58.676Z</time></trkpt><trkpt lat="46.50060833" lon="13.492325"><ele>777.0</ele><time>2015-11-29T12:15:59.689Z</time></trkpt><trkpt lat="46.50062" lon="13.49229833"><ele>777.0</ele><time>2015-11-29T12:16:00.677Z</time></trkpt><trkpt lat="46.50062" lon="13.49229833"><ele>777.0</ele><time>2015-11-29T12:16:01.690Z</time></trkpt><trkpt lat="46.50062333" lon="13.49227667"><ele>777.0</ele><time>2015-11-29T12:16:02.677Z</time></trkpt><trkpt lat="46.50062333" lon="13.49227667"><ele>777.0</ele><time>2015-11-29T12:16:03.695Z</time></trkpt><trkpt lat="46.50063167" lon="13.49224167"><ele>777.0</ele><time>2015-11-29T12:16:04.671Z</time></trkpt><trkpt lat="46.500635" lon="13.49223333"><ele>777.0</ele><time>2015-11-29T12:16:05.685Z</time></trkpt><trkpt lat="46.50063833" lon="13.49221333"><ele>777.0</ele><time>2015-11-29T12:16:06.672Z</time></trkpt><trkpt lat="46.50063833" lon="13.49221333"><ele>777.0</ele><time>2015-11-29T12:16:07.684Z</time></trkpt><trkpt lat="46.500635" lon="13.49214167"><ele>777.0</ele><time>2015-11-29T12:16:08.678Z</time></trkpt><trkpt lat="46.50064" lon="13.49212667"><ele>777.0</ele><time>2015-11-29T12:16:09.697Z</time></trkpt><trkpt lat="46.50064" lon="13.49212667"><ele>777.0</ele><time>2015-11-29T12:16:10.671Z</time></trkpt><trkpt lat="46.50064333" lon="13.492105"><ele>777.0</ele><time>2015-11-29T12:16:11.684Z</time></trkpt><trkpt lat="46.50065167" lon="13.49210167"><ele>777.0</ele><time>2015-11-29T12:16:12.680Z</time></trkpt><trkpt lat="46.50065167" lon="13.49210167"><ele>777.0</ele><time>2015-11-29T12:16:13.693Z</time></trkpt><trkpt lat="46.50067" lon="13.492075"><ele>777.0</ele><time>2015-11-29T12:16:14.679Z</time></trkpt><trkpt lat="46.50066833" lon="13.49205833"><ele>777.0</ele><time>2015-11-29T12:16:15.692Z</time></trkpt><trkpt lat="46.50066667" lon="13.49205667"><ele>777.0</ele><time>2015-11-29T12:16:16.693Z</time></trkpt><trkpt lat="46.50066667" lon="13.49205667"><ele>777.0</ele><time>2015-11-29T12:16:17.672Z</time></trkpt><trkpt lat="46.50068167" lon="13.49202333"><ele>777.0</ele><time>2015-11-29T12:16:18.685Z</time></trkpt><trkpt lat="46.50068167" lon="13.49202333"><ele>777.0</ele><time>2015-11-29T12:16:19.670Z</time></trkpt><trkpt lat="46.50069833" lon="13.491995"><ele>777.0</ele><time>2015-11-29T12:16:20.693Z</time></trkpt><trkpt lat="46.50069833" lon="13.491995"><ele>777.0</ele><time>2015-11-29T12:16:21.665Z</time></trkpt><trkpt lat="46.50069833" lon="13.49196833"><ele>777.0</ele><time>2015-11-29T12:16:22.687Z</time></trkpt><trkpt lat="46.50069833" lon="13.49196833"><ele>777.0</ele><time>2015-11-29T12:16:23.672Z</time></trkpt><trkpt lat="46.50070833" lon="13.491925"><ele>777.0</ele><time>2015-11-29T12:16:24.684Z</time></trkpt><trkpt lat="46.50071333" lon="13.49189333"><ele>777.0</ele><time>2015-11-29T12:16:25.674Z</time></trkpt><trkpt lat="46.50071333" lon="13.49189333"><ele>777.0</ele><time>2015-11-29T12:16:26.694Z</time></trkpt><trkpt lat="46.50071667" lon="13.49184167"><ele>777.0</ele><time>2015-11-29T12:16:27.678Z</time></trkpt><trkpt lat="46.50072667" lon="13.49183"><ele>777.0</ele><time>2015-11-29T12:16:28.692Z</time></trkpt><trkpt lat="46.50072667" lon="13.49183"><ele>777.0</ele><time>2015-11-29T12:16:29.667Z</time></trkpt><trkpt lat="46.50074667" lon="13.491785"><ele>777.0</ele><time>2015-11-29T12:16:30.680Z</time></trkpt><trkpt lat="46.50074667" lon="13.491785"><ele>777.0</ele><time>2015-11-29T12:16:31.692Z</time></trkpt><trkpt lat="46.50075333" lon="13.49175167"><ele>777.0</ele><time>2015-11-29T12:16:32.674Z</time></trkpt><trkpt lat="46.50075333" lon="13.49175167"><ele>777.0</ele><time>2015-11-29T12:16:33.687Z</time></trkpt><trkpt lat="46.50076" lon="13.49171667"><ele>777.0</ele><time>2015-11-29T12:16:34.679Z</time></trkpt><trkpt lat="46.50076" lon="13.49171667"><ele>777.0</ele><time>2015-11-29T12:16:35.691Z</time></trkpt><trkpt lat="46.50077167" lon="13.49168"><ele>777.0</ele><time>2015-11-29T12:16:36.679Z</time></trkpt><trkpt lat="46.500785" lon="13.49167333"><ele>777.0</ele><time>2015-11-29T12:16:37.675Z</time></trkpt><trkpt lat="46.500785" lon="13.49166"><ele>777.0</ele><time>2015-11-29T12:16:38.690Z</time></trkpt><trkpt lat="46.500785" lon="13.49166"><ele>777.0</ele><time>2015-11-29T12:16:39.675Z</time></trkpt><trkpt lat="46.500795" lon="13.491645"><ele>777.0</ele><time>2015-11-29T12:16:40.687Z</time></trkpt><trkpt lat="46.500795" lon="13.491645"><ele>777.0</ele><time>2015-11-29T12:16:41.668Z</time></trkpt><trkpt lat="46.50080667" lon="13.49164"><ele>777.0</ele><time>2015-11-29T12:16:42.683Z</time></trkpt><trkpt lat="46.50080667" lon="13.49162667"><ele>777.0</ele><time>2015-11-29T12:16:43.679Z</time></trkpt><trkpt lat="46.50081667" lon="13.491615"><ele>777.0</ele><time>2015-11-29T12:16:44.692Z</time></trkpt><trkpt lat="46.50081667" lon="13.491615"><ele>777.0</ele><time>2015-11-29T12:16:45.672Z</time></trkpt><trkpt lat="46.50083" lon="13.49159667"><ele>777.0</ele><time>2015-11-29T12:16:46.693Z</time></trkpt><trkpt lat="46.50083" lon="13.49159667"><ele>777.0</ele><time>2015-11-29T12:16:47.666Z</time></trkpt><trkpt lat="46.50085333" lon="13.49157"><ele>777.0</ele><time>2015-11-29T12:16:48.695Z</time></trkpt><trkpt lat="46.50086833" lon="13.491565"><ele>777.0</ele><time>2015-11-29T12:16:49.674Z</time></trkpt><trkpt lat="46.50086833" lon="13.491565"><ele>777.0</ele><time>2015-11-29T12:16:50.687Z</time></trkpt><trkpt lat="46.5009" lon="13.49155333"><ele>777.0</ele><time>2015-11-29T12:16:51.679Z</time></trkpt><trkpt lat="46.500905" lon="13.49154167"><ele>777.0</ele><time>2015-11-29T12:16:52.692Z</time></trkpt><trkpt lat="46.500905" lon="13.49154167"><ele>777.0</ele><time>2015-11-29T12:16:53.675Z</time></trkpt><trkpt lat="46.50091" lon="13.49149167"><ele>777.0</ele><time>2015-11-29T12:16:54.695Z</time></trkpt><trkpt lat="46.500915" lon="13.49147333"><ele>777.0</ele><time>2015-11-29T12:16:55.672Z</time></trkpt><trkpt lat="46.50092333" lon="13.49146333"><ele>777.0</ele><time>2015-11-29T12:16:56.688Z</time></trkpt><trkpt lat="46.50092333" lon="13.49146333"><ele>777.0</ele><time>2015-11-29T12:16:57.674Z</time></trkpt><trkpt lat="46.50094333" lon="13.49146333"><ele>777.0</ele><time>2015-11-29T12:16:58.687Z</time></trkpt><trkpt lat="46.50094333" lon="13.49146333"><ele>777.0</ele><time>2015-11-29T12:16:59.674Z</time></trkpt><trkpt lat="46.50096167" lon="13.49144167"><ele>777.0</ele><time>2015-11-29T12:17:00.703Z</time></trkpt><trkpt lat="46.50096833" lon="13.49143667"><ele>777.0</ele><time>2015-11-29T12:17:01.679Z</time></trkpt><trkpt lat="46.50096833" lon="13.49143667"><ele>777.0</ele><time>2015-11-29T12:17:02.691Z</time></trkpt><trkpt lat="46.50100667" lon="13.49142667"><ele>777.0</ele><time>2015-11-29T12:17:03.687Z</time></trkpt><trkpt lat="46.50102" lon="13.491425"><ele>777.0</ele><time>2015-11-29T12:17:04.671Z</time></trkpt><trkpt lat="46.50102" lon="13.491425"><ele>777.0</ele><time>2015-11-29T12:17:05.691Z</time></trkpt><trkpt lat="46.50103333" lon="13.491415"><ele>777.0</ele><time>2015-11-29T12:17:06.692Z</time></trkpt><trkpt lat="46.50103333" lon="13.491415"><ele>777.0</ele><time>2015-11-29T12:17:07.673Z</time></trkpt><trkpt lat="46.50105833" lon="13.491395"><ele>777.0</ele><time>2015-11-29T12:17:08.686Z</time></trkpt><trkpt lat="46.50107333" lon="13.49136833"><ele>777.0</ele><time>2015-11-29T12:17:09.692Z</time></trkpt><trkpt lat="46.50107333" lon="13.49136833"><ele>777.0</ele><time>2015-11-29T12:17:10.668Z</time></trkpt><trkpt lat="46.50109333" lon="13.491325"><ele>777.0</ele><time>2015-11-29T12:17:11.684Z</time></trkpt><trkpt lat="46.501105" lon="13.49131"><ele>777.0</ele><time>2015-11-29T12:17:12.673Z</time></trkpt><trkpt lat="46.501105" lon="13.49131"><ele>777.0</ele><time>2015-11-29T12:17:13.685Z</time></trkpt><trkpt lat="46.501125" lon="13.49129167"><ele>777.0</ele><time>2015-11-29T12:17:14.678Z</time></trkpt><trkpt lat="46.501125" lon="13.49129167"><ele>777.0</ele><time>2015-11-29T12:17:15.691Z</time></trkpt><trkpt lat="46.50115167" lon="13.49128167"><ele>777.0</ele><time>2015-11-29T12:17:16.679Z</time></trkpt><trkpt lat="46.50115167" lon="13.49128167"><ele>777.0</ele><time>2015-11-29T12:17:17.695Z</time></trkpt><trkpt lat="46.50116833" lon="13.49127"><ele>777.0</ele><time>2015-11-29T12:17:18.678Z</time></trkpt><trkpt lat="46.50116833" lon="13.49127"><ele>777.0</ele><time>2015-11-29T12:17:19.691Z</time></trkpt><trkpt lat="46.50118667" lon="13.49124167"><ele>777.0</ele><time>2015-11-29T12:17:20.675Z</time></trkpt><trkpt lat="46.50118667" lon="13.49124167"><ele>777.0</ele><time>2015-11-29T12:17:21.688Z</time></trkpt><trkpt lat="46.50120833" lon="13.49121833"><ele>777.0</ele><time>2015-11-29T12:17:22.678Z</time></trkpt><trkpt lat="46.50120833" lon="13.49121833"><ele>777.0</ele><time>2015-11-29T12:17:23.695Z</time></trkpt><trkpt lat="46.50122333" lon="13.49119333"><ele>777.0</ele><time>2015-11-29T12:17:24.680Z</time></trkpt><trkpt lat="46.50122333" lon="13.49119333"><ele>777.0</ele><time>2015-11-29T12:17:25.694Z</time></trkpt><trkpt lat="46.50123333" lon="13.49118"><ele>777.0</ele><time>2015-11-29T12:17:26.692Z</time></trkpt><trkpt lat="46.50123333" lon="13.49118"><ele>777.0</ele><time>2015-11-29T12:17:27.674Z</time></trkpt><trkpt lat="46.50124333" lon="13.49115833"><ele>777.0</ele><time>2015-11-29T12:17:28.686Z</time></trkpt><trkpt lat="46.50124333" lon="13.49115833"><ele>777.0</ele><time>2015-11-29T12:17:29.669Z</time></trkpt><trkpt lat="46.501255" lon="13.49112833"><ele>777.0</ele><time>2015-11-29T12:17:30.683Z</time></trkpt><trkpt lat="46.501255" lon="13.49112833"><ele>777.0</ele><time>2015-11-29T12:17:31.672Z</time></trkpt><trkpt lat="46.50127" lon="13.49110167"><ele>777.0</ele><time>2015-11-29T12:17:32.684Z</time></trkpt><trkpt lat="46.50127" lon="13.49110167"><ele>777.0</ele><time>2015-11-29T12:17:33.672Z</time></trkpt><trkpt lat="46.50128" lon="13.49106833"><ele>777.0</ele><time>2015-11-29T12:17:34.687Z</time></trkpt><trkpt lat="46.50128" lon="13.49106833"><ele>777.0</ele><time>2015-11-29T12:17:35.667Z</time></trkpt><trkpt lat="46.50129667" lon="13.49103"><ele>777.0</ele><time>2015-11-29T12:17:36.679Z</time></trkpt><trkpt lat="46.50129667" lon="13.49102167"><ele>777.0</ele><time>2015-11-29T12:17:37.692Z</time></trkpt><trkpt lat="46.50129667" lon="13.49102167"><ele>777.0</ele><time>2015-11-29T12:17:38.672Z</time></trkpt><trkpt lat="46.50131167" lon="13.49099333"><ele>776.0</ele><time>2015-11-29T12:17:39.686Z</time></trkpt><trkpt lat="46.50131833" lon="13.49098667"><ele>777.0</ele><time>2015-11-29T12:17:40.673Z</time></trkpt><trkpt lat="46.50131833" lon="13.49098667"><ele>777.0</ele><time>2015-11-29T12:17:41.695Z</time></trkpt><trkpt lat="46.50134667" lon="13.49095833"><ele>777.0</ele><time>2015-11-29T12:17:42.676Z</time></trkpt><trkpt lat="46.50136167" lon="13.49094333"><ele>777.0</ele><time>2015-11-29T12:17:43.689Z</time></trkpt><trkpt lat="46.50136167" lon="13.49094333"><ele>777.0</ele><time>2015-11-29T12:17:44.678Z</time></trkpt><trkpt lat="46.50137667" lon="13.49090833"><ele>777.0</ele><time>2015-11-29T12:17:45.688Z</time></trkpt><trkpt lat="46.50137667" lon="13.49090833"><ele>777.0</ele><time>2015-11-29T12:17:46.673Z</time></trkpt><trkpt lat="46.50138333" lon="13.49086"><ele>777.0</ele><time>2015-11-29T12:17:47.675Z</time></trkpt><trkpt lat="46.50139333" lon="13.490845"><ele>777.0</ele><time>2015-11-29T12:17:48.688Z</time></trkpt><trkpt lat="46.50139333" lon="13.490845"><ele>777.0</ele><time>2015-11-29T12:17:49.672Z</time></trkpt><trkpt lat="46.501405" lon="13.49081"><ele>777.0</ele><time>2015-11-29T12:17:50.685Z</time></trkpt><trkpt lat="46.501405" lon="13.49081"><ele>777.0</ele><time>2015-11-29T12:17:51.673Z</time></trkpt><trkpt lat="46.50141667" lon="13.49077333"><ele>777.0</ele><time>2015-11-29T12:17:52.685Z</time></trkpt><trkpt lat="46.50141667" lon="13.49077333"><ele>777.0</ele><time>2015-11-29T12:17:53.672Z</time></trkpt><trkpt lat="46.50142167" lon="13.49076667"><ele>777.0</ele><time>2015-11-29T12:17:54.685Z</time></trkpt><trkpt lat="46.50142167" lon="13.49076667"><ele>777.0</ele><time>2015-11-29T12:17:55.695Z</time></trkpt><trkpt lat="46.50143167" lon="13.49075833"><ele>777.0</ele><time>2015-11-29T12:17:56.673Z</time></trkpt><trkpt lat="46.50143167" lon="13.49075833"><ele>777.0</ele><time>2015-11-29T12:17:57.684Z</time></trkpt><trkpt lat="46.50143167" lon="13.49075833"><ele>777.0</ele><time>2015-11-29T12:17:58.683Z</time></trkpt><trkpt lat="46.50143167" lon="13.49075833"><ele>777.0</ele><time>2015-11-29T12:17:59.672Z</time></trkpt><trkpt lat="46.50143167" lon="13.49075833"><ele>777.0</ele><time>2015-11-29T12:18:00.694Z</time></trkpt><trkpt lat="46.50143167" lon="13.49075833"><ele>777.0</ele><time>2015-11-29T12:18:01.673Z</time></trkpt><trkpt lat="46.50143167" lon="13.49075833"><ele>777.0</ele><time>2015-11-29T12:18:02.685Z</time></trkpt><trkpt lat="46.50143167" lon="13.49075833"><ele>777.0</ele><time>2015-11-29T12:18:03.675Z</time></trkpt><trkpt lat="46.50143167" lon="13.49075833"><ele>777.0</ele><time>2015-11-29T12:18:04.688Z</time></trkpt><trkpt lat="46.50143167" lon="13.49075833"><ele>777.0</ele><time>2015-11-29T12:18:05.670Z</time></trkpt><trkpt lat="46.50143167" lon="13.49075833"><ele>777.0</ele><time>2015-11-29T12:18:06.693Z</time></trkpt><trkpt lat="46.50143167" lon="13.49075833"><ele>777.0</ele><time>2015-11-29T12:18:07.672Z</time></trkpt><trkpt lat="46.50149833" lon="13.49073"><ele>776.0</ele><time>2015-11-29T12:18:08.684Z</time></trkpt><trkpt lat="46.50149833" lon="13.49073"><ele>776.0</ele><time>2015-11-29T12:18:09.672Z</time></trkpt><trkpt lat="46.501515" lon="13.49071333"><ele>776.0</ele><time>2015-11-29T12:18:10.685Z</time></trkpt><trkpt lat="46.501515" lon="13.49071333"><ele>776.0</ele><time>2015-11-29T12:18:11.672Z</time></trkpt><trkpt lat="46.501545" lon="13.49069"><ele>777.0</ele><time>2015-11-29T12:18:12.685Z</time></trkpt><trkpt lat="46.501545" lon="13.49069"><ele>777.0</ele><time>2015-11-29T12:18:13.685Z</time></trkpt><trkpt lat="46.50154667" lon="13.49069667"><ele>777.0</ele><time>2015-11-29T12:18:14.668Z</time></trkpt><trkpt lat="46.50154667" lon="13.49069667"><ele>777.0</ele><time>2015-11-29T12:18:15.684Z</time></trkpt><trkpt lat="46.50155" lon="13.490695"><ele>777.0</ele><time>2015-11-29T12:18:16.680Z</time></trkpt><trkpt lat="46.50155" lon="13.490695"><ele>777.0</ele><time>2015-11-29T12:18:17.695Z</time></trkpt><trkpt lat="46.50155" lon="13.490695"><ele>777.0</ele><time>2015-11-29T12:18:18.671Z</time></trkpt><trkpt lat="46.50155" lon="13.490695"><ele>777.0</ele><time>2015-11-29T12:18:19.688Z</time></trkpt><trkpt lat="46.50155" lon="13.490695"><ele>777.0</ele><time>2015-11-29T12:18:20.681Z</time></trkpt><trkpt lat="46.50155" lon="13.490695"><ele>777.0</ele><time>2015-11-29T12:18:21.672Z</time></trkpt><trkpt lat="46.50155" lon="13.490695"><ele>777.0</ele><time>2015-11-29T12:18:22.685Z</time></trkpt><trkpt lat="46.50155" lon="13.490695"><ele>777.0</ele><time>2015-11-29T12:18:23.680Z</time></trkpt><trkpt lat="46.50155" lon="13.490695"><ele>777.0</ele><time>2015-11-29T12:18:24.696Z</time></trkpt><trkpt lat="46.50151667" lon="13.490665"><ele>778.0</ele><time>2015-11-29T12:18:25.680Z</time></trkpt><trkpt lat="46.50151667" lon="13.490665"><ele>778.0</ele><time>2015-11-29T12:18:26.694Z</time></trkpt><trkpt lat="46.50149" lon="13.4907"><ele>778.0</ele><time>2015-11-29T12:18:27.671Z</time></trkpt><trkpt lat="46.50148333" lon="13.49070667"><ele>778.0</ele><time>2015-11-29T12:18:28.683Z</time></trkpt><trkpt lat="46.50148333" lon="13.49070667"><ele>778.0</ele><time>2015-11-29T12:18:29.671Z</time></trkpt><trkpt lat="46.50147167" lon="13.49075167"><ele>778.0</ele><time>2015-11-29T12:18:30.687Z</time></trkpt><trkpt lat="46.50147167" lon="13.49075167"><ele>778.0</ele><time>2015-11-29T12:18:31.668Z</time></trkpt><trkpt lat="46.50144833" lon="13.49070833"><ele>778.0</ele><time>2015-11-29T12:18:32.682Z</time></trkpt><trkpt lat="46.50144833" lon="13.49070833"><ele>778.0</ele><time>2015-11-29T12:18:33.695Z</time></trkpt><trkpt lat="46.50143167" lon="13.49069"><ele>778.0</ele><time>2015-11-29T12:18:34.677Z</time></trkpt><trkpt lat="46.50143167" lon="13.49069"><ele>778.0</ele><time>2015-11-29T12:18:35.695Z</time></trkpt><trkpt lat="46.50142667" lon="13.49065833"><ele>778.0</ele><time>2015-11-29T12:18:36.675Z</time></trkpt><trkpt lat="46.50142667" lon="13.49065833"><ele>778.0</ele><time>2015-11-29T12:18:37.688Z</time></trkpt><trkpt lat="46.50141167" lon="13.49061833"><ele>778.0</ele><time>2015-11-29T12:18:38.672Z</time></trkpt><trkpt lat="46.50139667" lon="13.49060333"><ele>778.0</ele><time>2015-11-29T12:18:39.685Z</time></trkpt><trkpt lat="46.50139667" lon="13.49060333"><ele>778.0</ele><time>2015-11-29T12:18:40.691Z</time></trkpt><trkpt lat="46.50139167" lon="13.49056"><ele>778.0</ele><time>2015-11-29T12:18:41.698Z</time></trkpt><trkpt lat="46.50139167" lon="13.49056"><ele>778.0</ele><time>2015-11-29T12:18:42.669Z</time></trkpt><trkpt lat="46.50138333" lon="13.49052833"><ele>778.0</ele><time>2015-11-29T12:18:43.675Z</time></trkpt><trkpt lat="46.50137667" lon="13.49051333"><ele>778.0</ele><time>2015-11-29T12:18:44.689Z</time></trkpt><trkpt lat="46.50137667" lon="13.49051333"><ele>778.0</ele><time>2015-11-29T12:18:45.695Z</time></trkpt><trkpt lat="46.50136833" lon="13.49047833"><ele>778.0</ele><time>2015-11-29T12:18:46.668Z</time></trkpt><trkpt lat="46.50135833" lon="13.49046333"><ele>778.0</ele><time>2015-11-29T12:18:47.673Z</time></trkpt><trkpt lat="46.50135833" lon="13.49046333"><ele>778.0</ele><time>2015-11-29T12:18:48.680Z</time></trkpt><trkpt lat="46.50134333" lon="13.49044667"><ele>779.0</ele><time>2015-11-29T12:18:49.684Z</time></trkpt><trkpt lat="46.50134333" lon="13.49044667"><ele>779.0</ele><time>2015-11-29T12:18:50.689Z</time></trkpt><trkpt lat="46.50132333" lon="13.49041167"><ele>778.0</ele><time>2015-11-29T12:18:51.677Z</time></trkpt><trkpt lat="46.50131833" lon="13.49039333"><ele>778.0</ele><time>2015-11-29T12:18:52.689Z</time></trkpt><trkpt lat="46.50131833" lon="13.49039333"><ele>778.0</ele><time>2015-11-29T12:18:53.672Z</time></trkpt><trkpt lat="46.50130333" lon="13.49036667"><ele>779.0</ele><time>2015-11-29T12:18:54.697Z</time></trkpt><trkpt lat="46.50130333" lon="13.49036667"><ele>779.0</ele><time>2015-11-29T12:18:55.672Z</time></trkpt><trkpt lat="46.50126667" lon="13.49030167"><ele>779.0</ele><time>2015-11-29T12:18:56.694Z</time></trkpt><trkpt lat="46.50126667" lon="13.49030167"><ele>779.0</ele><time>2015-11-29T12:18:57.669Z</time></trkpt><trkpt lat="46.501245" lon="13.49027833"><ele>779.0</ele><time>2015-11-29T12:18:58.681Z</time></trkpt><trkpt lat="46.501245" lon="13.49027833"><ele>779.0</ele><time>2015-11-29T12:18:59.694Z</time></trkpt><trkpt lat="46.50124167" lon="13.49026833"><ele>779.0</ele><time>2015-11-29T12:19:00.676Z</time></trkpt><trkpt lat="46.50124167" lon="13.49026833"><ele>779.0</ele><time>2015-11-29T12:19:01.681Z</time></trkpt><trkpt lat="46.50123333" lon="13.49024167"><ele>779.0</ele><time>2015-11-29T12:19:02.686Z</time></trkpt><trkpt lat="46.50123333" lon="13.49024167"><ele>779.0</ele><time>2015-11-29T12:19:03.690Z</time></trkpt><trkpt lat="46.50121667" lon="13.49022833"><ele>779.0</ele><time>2015-11-29T12:19:04.695Z</time></trkpt><trkpt lat="46.50120667" lon="13.49021667"><ele>779.0</ele><time>2015-11-29T12:19:05.687Z</time></trkpt><trkpt lat="46.50120667" lon="13.49021667"><ele>779.0</ele><time>2015-11-29T12:19:06.671Z</time></trkpt><trkpt lat="46.50117833" lon="13.49019"><ele>779.0</ele><time>2015-11-29T12:19:07.684Z</time></trkpt><trkpt lat="46.50117833" lon="13.49019"><ele>779.0</ele><time>2015-11-29T12:19:08.696Z</time></trkpt><trkpt lat="46.50116167" lon="13.49015667"><ele>779.0</ele><time>2015-11-29T12:19:09.672Z</time></trkpt><trkpt lat="46.50115167" lon="13.49014"><ele>779.0</ele><time>2015-11-29T12:19:10.685Z</time></trkpt><trkpt lat="46.50115167" lon="13.49014"><ele>779.0</ele><time>2015-11-29T12:19:11.671Z</time></trkpt><trkpt lat="46.50114" lon="13.49011667"><ele>779.0</ele><time>2015-11-29T12:19:12.686Z</time></trkpt><trkpt lat="46.50114" lon="13.49011667"><ele>779.0</ele><time>2015-11-29T12:19:13.669Z</time></trkpt><trkpt lat="46.501145" lon="13.49008833"><ele>779.0</ele><time>2015-11-29T12:19:14.683Z</time></trkpt><trkpt lat="46.501145" lon="13.49008833"><ele>779.0</ele><time>2015-11-29T12:19:15.677Z</time></trkpt><trkpt lat="46.50113167" lon="13.49007"><ele>779.0</ele><time>2015-11-29T12:19:16.694Z</time></trkpt><trkpt lat="46.50113167" lon="13.49007"><ele>779.0</ele><time>2015-11-29T12:19:17.673Z</time></trkpt><trkpt lat="46.50112167" lon="13.49005167"><ele>779.0</ele><time>2015-11-29T12:19:18.685Z</time></trkpt><trkpt lat="46.50112167" lon="13.49005167"><ele>779.0</ele><time>2015-11-29T12:19:19.672Z</time></trkpt><trkpt lat="46.501125" lon="13.49001167"><ele>779.0</ele><time>2015-11-29T12:19:20.700Z</time></trkpt><trkpt lat="46.501125" lon="13.49001167"><ele>779.0</ele><time>2015-11-29T12:19:21.673Z</time></trkpt><trkpt lat="46.501125" lon="13.48998833"><ele>779.0</ele><time>2015-11-29T12:19:22.678Z</time></trkpt><trkpt lat="46.501125" lon="13.48998833"><ele>779.0</ele><time>2015-11-29T12:19:23.683Z</time></trkpt><trkpt lat="46.50112333" lon="13.48996"><ele>779.0</ele><time>2015-11-29T12:19:24.688Z</time></trkpt><trkpt lat="46.50112333" lon="13.48995167"><ele>779.0</ele><time>2015-11-29T12:19:25.693Z</time></trkpt><trkpt lat="46.50112333" lon="13.48995167"><ele>779.0</ele><time>2015-11-29T12:19:26.698Z</time></trkpt><trkpt lat="46.50112833" lon="13.48993333"><ele>779.0</ele><time>2015-11-29T12:19:27.665Z</time></trkpt><trkpt lat="46.50112833" lon="13.48993333"><ele>779.0</ele><time>2015-11-29T12:19:28.670Z</time></trkpt><trkpt lat="46.50114167" lon="13.48990667"><ele>779.0</ele><time>2015-11-29T12:19:29.679Z</time></trkpt><trkpt lat="46.50118" lon="13.48989167"><ele>780.0</ele><time>2015-11-29T12:19:30.696Z</time></trkpt><trkpt lat="46.50118" lon="13.48989167"><ele>780.0</ele><time>2015-11-29T12:19:31.675Z</time></trkpt><trkpt lat="46.50119333" lon="13.48987167"><ele>780.0</ele><time>2015-11-29T12:19:32.689Z</time></trkpt><trkpt lat="46.50119333" lon="13.48987167"><ele>780.0</ele><time>2015-11-29T12:19:33.675Z</time></trkpt><trkpt lat="46.50121333" lon="13.48985"><ele>781.0</ele><time>2015-11-29T12:19:34.700Z</time></trkpt><trkpt lat="46.50120333" lon="13.48984167"><ele>781.0</ele><time>2015-11-29T12:19:35.684Z</time></trkpt><trkpt lat="46.50120333" lon="13.48984167"><ele>781.0</ele><time>2015-11-29T12:19:36.675Z</time></trkpt><trkpt lat="46.50119833" lon="13.48983167"><ele>781.0</ele><time>2015-11-29T12:19:37.688Z</time></trkpt><trkpt lat="46.5012" lon="13.48981333"><ele>781.0</ele><time>2015-11-29T12:19:38.683Z</time></trkpt><trkpt lat="46.5012" lon="13.48981333"><ele>781.0</ele><time>2015-11-29T12:19:39.695Z</time></trkpt><trkpt lat="46.50121" lon="13.48978167"><ele>781.0</ele><time>2015-11-29T12:19:40.682Z</time></trkpt><trkpt lat="46.50121" lon="13.48978167"><ele>781.0</ele><time>2015-11-29T12:19:41.695Z</time></trkpt><trkpt lat="46.50121167" lon="13.48975333"><ele>781.0</ele><time>2015-11-29T12:19:42.683Z</time></trkpt><trkpt lat="46.50121333" lon="13.48974333"><ele>781.0</ele><time>2015-11-29T12:19:43.683Z</time></trkpt><trkpt lat="46.50122" lon="13.48973"><ele>782.0</ele><time>2015-11-29T12:19:44.695Z</time></trkpt><trkpt lat="46.50122" lon="13.48973"><ele>782.0</ele><time>2015-11-29T12:19:45.681Z</time></trkpt><trkpt lat="46.50124" lon="13.48971333"><ele>782.0</ele><time>2015-11-29T12:19:46.699Z</time></trkpt><trkpt lat="46.501245" lon="13.48971"><ele>782.0</ele><time>2015-11-29T12:19:47.681Z</time></trkpt><trkpt lat="46.50125167" lon="13.489705"><ele>782.0</ele><time>2015-11-29T12:19:48.694Z</time></trkpt><trkpt lat="46.50125167" lon="13.489705"><ele>782.0</ele><time>2015-11-29T12:19:49.690Z</time></trkpt><trkpt lat="46.50127167" lon="13.48968833"><ele>782.0</ele><time>2015-11-29T12:19:50.683Z</time></trkpt><trkpt lat="46.50127167" lon="13.48968833"><ele>782.0</ele><time>2015-11-29T12:19:51.695Z</time></trkpt><trkpt lat="46.50128167" lon="13.48967833"><ele>783.0</ele><time>2015-11-29T12:19:52.683Z</time></trkpt><trkpt lat="46.50128167" lon="13.48967833"><ele>783.0</ele><time>2015-11-29T12:19:53.695Z</time></trkpt><trkpt lat="46.50129667" lon="13.48967"><ele>783.0</ele><time>2015-11-29T12:19:54.684Z</time></trkpt><trkpt lat="46.50129667" lon="13.48967"><ele>783.0</ele><time>2015-11-29T12:19:55.683Z</time></trkpt><trkpt lat="46.50131" lon="13.48965833"><ele>783.0</ele><time>2015-11-29T12:19:56.679Z</time></trkpt><trkpt lat="46.50131" lon="13.48965833"><ele>783.0</ele><time>2015-11-29T12:19:57.665Z</time></trkpt><trkpt lat="46.50132167" lon="13.48965"><ele>783.0</ele><time>2015-11-29T12:19:58.681Z</time></trkpt><trkpt lat="46.50132167" lon="13.48965"><ele>783.0</ele><time>2015-11-29T12:19:59.694Z</time></trkpt><trkpt lat="46.50133167" lon="13.489655"><ele>783.0</ele><time>2015-11-29T12:20:00.696Z</time></trkpt><trkpt lat="46.50133167" lon="13.489655"><ele>783.0</ele><time>2015-11-29T12:20:01.674Z</time></trkpt><trkpt lat="46.50134667" lon="13.489645"><ele>782.0</ele><time>2015-11-29T12:20:02.696Z</time></trkpt><trkpt lat="46.501365" lon="13.48965333"><ele>782.0</ele><time>2015-11-29T12:20:03.682Z</time></trkpt><trkpt lat="46.501365" lon="13.48965333"><ele>782.0</ele><time>2015-11-29T12:20:04.694Z</time></trkpt><trkpt lat="46.50137" lon="13.48966667"><ele>782.0</ele><time>2015-11-29T12:20:05.682Z</time></trkpt><trkpt lat="46.501375" lon="13.48966333"><ele>782.0</ele><time>2015-11-29T12:20:06.683Z</time></trkpt><trkpt lat="46.501375" lon="13.48966333"><ele>782.0</ele><time>2015-11-29T12:20:07.695Z</time></trkpt><trkpt lat="46.501395" lon="13.489635"><ele>782.0</ele><time>2015-11-29T12:20:08.683Z</time></trkpt><trkpt lat="46.501395" lon="13.489635"><ele>782.0</ele><time>2015-11-29T12:20:09.696Z</time></trkpt><trkpt lat="46.50141667" lon="13.48962833"><ele>782.0</ele><time>2015-11-29T12:20:10.681Z</time></trkpt><trkpt lat="46.50141667" lon="13.48962833"><ele>782.0</ele><time>2015-11-29T12:20:11.694Z</time></trkpt><trkpt lat="46.50143333" lon="13.48962167"><ele>782.0</ele><time>2015-11-29T12:20:12.682Z</time></trkpt><trkpt lat="46.50143333" lon="13.48962167"><ele>782.0</ele><time>2015-11-29T12:20:13.695Z</time></trkpt><trkpt lat="46.50144833" lon="13.48962667"><ele>782.0</ele><time>2015-11-29T12:20:14.685Z</time></trkpt><trkpt lat="46.50144833" lon="13.48962667"><ele>782.0</ele><time>2015-11-29T12:20:15.675Z</time></trkpt><trkpt lat="46.50146167" lon="13.489625"><ele>782.0</ele><time>2015-11-29T12:20:16.677Z</time></trkpt><trkpt lat="46.50146167" lon="13.489625"><ele>782.0</ele><time>2015-11-29T12:20:17.690Z</time></trkpt><trkpt lat="46.501475" lon="13.48962333"><ele>782.0</ele><time>2015-11-29T12:20:18.682Z</time></trkpt><trkpt lat="46.501475" lon="13.48962333"><ele>782.0</ele><time>2015-11-29T12:20:19.697Z</time></trkpt><trkpt lat="46.50147667" lon="13.489635"><ele>782.0</ele><time>2015-11-29T12:20:20.684Z</time></trkpt><trkpt lat="46.50147667" lon="13.489635"><ele>782.0</ele><time>2015-11-29T12:20:21.696Z</time></trkpt><trkpt lat="46.50148833" lon="13.48964167"><ele>782.0</ele><time>2015-11-29T12:20:22.683Z</time></trkpt><trkpt lat="46.50148833" lon="13.48964167"><ele>782.0</ele><time>2015-11-29T12:20:23.696Z</time></trkpt><trkpt lat="46.501515" lon="13.48964333"><ele>782.0</ele><time>2015-11-29T12:20:24.683Z</time></trkpt><trkpt lat="46.501515" lon="13.48964333"><ele>782.0</ele><time>2015-11-29T12:20:25.695Z</time></trkpt><trkpt lat="46.50153" lon="13.48963667"><ele>782.0</ele><time>2015-11-29T12:20:26.704Z</time></trkpt><trkpt lat="46.50153" lon="13.48963667"><ele>782.0</ele><time>2015-11-29T12:20:27.683Z</time></trkpt><trkpt lat="46.50154167" lon="13.48963167"><ele>782.0</ele><time>2015-11-29T12:20:28.695Z</time></trkpt><trkpt lat="46.50154167" lon="13.48963167"><ele>782.0</ele><time>2015-11-29T12:20:29.680Z</time></trkpt><trkpt lat="46.501565" lon="13.48961667"><ele>782.0</ele><time>2015-11-29T12:20:30.693Z</time></trkpt><trkpt lat="46.501565" lon="13.48961667"><ele>782.0</ele><time>2015-11-29T12:20:31.679Z</time></trkpt><trkpt lat="46.50158333" lon="13.489605"><ele>782.0</ele><time>2015-11-29T12:20:32.694Z</time></trkpt><trkpt lat="46.50158333" lon="13.489605"><ele>782.0</ele><time>2015-11-29T12:20:33.700Z</time></trkpt><trkpt lat="46.50160167" lon="13.489605"><ele>782.0</ele><time>2015-11-29T12:20:34.668Z</time></trkpt><trkpt lat="46.50161167" lon="13.48960333"><ele>782.0</ele><time>2015-11-29T12:20:35.674Z</time></trkpt><trkpt lat="46.50161167" lon="13.48960333"><ele>782.0</ele><time>2015-11-29T12:20:36.680Z</time></trkpt><trkpt lat="46.50163333" lon="13.489605"><ele>782.0</ele><time>2015-11-29T12:20:37.686Z</time></trkpt><trkpt lat="46.50164333" lon="13.48960667"><ele>782.0</ele><time>2015-11-29T12:20:38.695Z</time></trkpt><trkpt lat="46.50165667" lon="13.489605"><ele>782.0</ele><time>2015-11-29T12:20:39.672Z</time></trkpt><trkpt lat="46.50165667" lon="13.489605"><ele>782.0</ele><time>2015-11-29T12:20:40.689Z</time></trkpt><trkpt lat="46.501675" lon="13.48961667"><ele>782.0</ele><time>2015-11-29T12:20:41.680Z</time></trkpt><trkpt lat="46.50168833" lon="13.48962667"><ele>782.0</ele><time>2015-11-29T12:20:42.688Z</time></trkpt><trkpt lat="46.50168833" lon="13.48962667"><ele>782.0</ele><time>2015-11-29T12:20:43.672Z</time></trkpt><trkpt lat="46.50171833" lon="13.48964"><ele>782.0</ele><time>2015-11-29T12:20:44.690Z</time></trkpt><trkpt lat="46.50171833" lon="13.48964"><ele>782.0</ele><time>2015-11-29T12:20:45.672Z</time></trkpt><trkpt lat="46.50173833" lon="13.48966"><ele>782.0</ele><time>2015-11-29T12:20:46.696Z</time></trkpt><trkpt lat="46.50174167" lon="13.48967333"><ele>782.0</ele><time>2015-11-29T12:20:47.686Z</time></trkpt><trkpt lat="46.50174167" lon="13.48967333"><ele>782.0</ele><time>2015-11-29T12:20:48.691Z</time></trkpt><trkpt lat="46.50175833" lon="13.48969"><ele>782.0</ele><time>2015-11-29T12:20:49.696Z</time></trkpt><trkpt lat="46.50176667" lon="13.48969667"><ele>782.0</ele><time>2015-11-29T12:20:50.700Z</time></trkpt><trkpt lat="46.50176667" lon="13.48969667"><ele>782.0</ele><time>2015-11-29T12:20:51.672Z</time></trkpt><trkpt lat="46.50178333" lon="13.48970167"><ele>782.0</ele><time>2015-11-29T12:20:52.686Z</time></trkpt><trkpt lat="46.50178333" lon="13.48970667"><ele>782.0</ele><time>2015-11-29T12:20:53.680Z</time></trkpt><trkpt lat="46.50178333" lon="13.48970667"><ele>782.0</ele><time>2015-11-29T12:20:54.693Z</time></trkpt><trkpt lat="46.50178167" lon="13.48972"><ele>782.0</ele><time>2015-11-29T12:20:55.691Z</time></trkpt><trkpt lat="46.50178167" lon="13.48972667"><ele>782.0</ele><time>2015-11-29T12:20:56.667Z</time></trkpt><trkpt lat="46.50178167" lon="13.48972667"><ele>782.0</ele><time>2015-11-29T12:20:57.679Z</time></trkpt><trkpt lat="46.50179333" lon="13.48975833"><ele>782.0</ele><time>2015-11-29T12:20:58.692Z</time></trkpt><trkpt lat="46.50179333" lon="13.48975833"><ele>782.0</ele><time>2015-11-29T12:20:59.670Z</time></trkpt><trkpt lat="46.501805" lon="13.489785"><ele>782.0</ele><time>2015-11-29T12:21:00.694Z</time></trkpt><trkpt lat="46.501805" lon="13.489785"><ele>782.0</ele><time>2015-11-29T12:21:01.669Z</time></trkpt><trkpt lat="46.50182333" lon="13.48981"><ele>782.0</ele><time>2015-11-29T12:21:02.685Z</time></trkpt><trkpt lat="46.50182333" lon="13.48981"><ele>782.0</ele><time>2015-11-29T12:21:03.670Z</time></trkpt><trkpt lat="46.50183833" lon="13.48983167"><ele>782.0</ele><time>2015-11-29T12:21:04.683Z</time></trkpt><trkpt lat="46.50183833" lon="13.48983167"><ele>782.0</ele><time>2015-11-29T12:21:05.695Z</time></trkpt><trkpt lat="46.50184667" lon="13.48984667"><ele>782.0</ele><time>2015-11-29T12:21:06.681Z</time></trkpt><trkpt lat="46.50184667" lon="13.48984667"><ele>782.0</ele><time>2015-11-29T12:21:07.693Z</time></trkpt><trkpt lat="46.50186333" lon="13.48985167"><ele>782.0</ele><time>2015-11-29T12:21:08.686Z</time></trkpt><trkpt lat="46.50186333" lon="13.48985167"><ele>782.0</ele><time>2015-11-29T12:21:09.670Z</time></trkpt><trkpt lat="46.501885" lon="13.48984"><ele>782.0</ele><time>2015-11-29T12:21:10.684Z</time></trkpt><trkpt lat="46.501885" lon="13.48984"><ele>782.0</ele><time>2015-11-29T12:21:11.696Z</time></trkpt><trkpt lat="46.501905" lon="13.489825"><ele>782.0</ele><time>2015-11-29T12:21:12.683Z</time></trkpt><trkpt lat="46.501905" lon="13.489825"><ele>782.0</ele><time>2015-11-29T12:21:13.697Z</time></trkpt><trkpt lat="46.50192667" lon="13.48981167"><ele>782.0</ele><time>2015-11-29T12:21:14.703Z</time></trkpt><trkpt lat="46.50192667" lon="13.48981167"><ele>782.0</ele><time>2015-11-29T12:21:15.669Z</time></trkpt><trkpt lat="46.50195833" lon="13.48978833"><ele>782.0</ele><time>2015-11-29T12:21:16.684Z</time></trkpt><trkpt lat="46.50195833" lon="13.48978833"><ele>782.0</ele><time>2015-11-29T12:21:17.699Z</time></trkpt><trkpt lat="46.50197833" lon="13.48976333"><ele>781.0</ele><time>2015-11-29T12:21:18.681Z</time></trkpt><trkpt lat="46.50197833" lon="13.48976333"><ele>781.0</ele><time>2015-11-29T12:21:19.697Z</time></trkpt><trkpt lat="46.50200167" lon="13.489745"><ele>781.0</ele><time>2015-11-29T12:21:20.691Z</time></trkpt><trkpt lat="46.50200167" lon="13.489745"><ele>781.0</ele><time>2015-11-29T12:21:21.670Z</time></trkpt><trkpt lat="46.50201833" lon="13.48972833"><ele>781.0</ele><time>2015-11-29T12:21:22.685Z</time></trkpt><trkpt lat="46.50201833" lon="13.48972833"><ele>781.0</ele><time>2015-11-29T12:21:23.704Z</time></trkpt><trkpt lat="46.50203167" lon="13.489715"><ele>781.0</ele><time>2015-11-29T12:21:24.688Z</time></trkpt><trkpt lat="46.50203167" lon="13.489715"><ele>781.0</ele><time>2015-11-29T12:21:25.671Z</time></trkpt><trkpt lat="46.50205" lon="13.48970167"><ele>781.0</ele><time>2015-11-29T12:21:26.699Z</time></trkpt><trkpt lat="46.50205" lon="13.48970167"><ele>781.0</ele><time>2015-11-29T12:21:27.675Z</time></trkpt><trkpt lat="46.50206667" lon="13.48969"><ele>781.0</ele><time>2015-11-29T12:21:28.689Z</time></trkpt><trkpt lat="46.50206667" lon="13.48969"><ele>781.0</ele><time>2015-11-29T12:21:29.696Z</time></trkpt><trkpt lat="46.50207667" lon="13.48965833"><ele>781.0</ele><time>2015-11-29T12:21:30.674Z</time></trkpt><trkpt lat="46.50208167" lon="13.48963667"><ele>781.0</ele><time>2015-11-29T12:21:31.691Z</time></trkpt><trkpt lat="46.50208167" lon="13.48963667"><ele>781.0</ele><time>2015-11-29T12:21:32.672Z</time></trkpt><trkpt lat="46.50209333" lon="13.48960833"><ele>781.0</ele><time>2015-11-29T12:21:33.689Z</time></trkpt><trkpt lat="46.50209833" lon="13.48959"><ele>781.0</ele><time>2015-11-29T12:21:34.695Z</time></trkpt><trkpt lat="46.50209833" lon="13.48959"><ele>781.0</ele><time>2015-11-29T12:21:35.668Z</time></trkpt><trkpt lat="46.50211667" lon="13.48956167"><ele>781.0</ele><time>2015-11-29T12:21:36.698Z</time></trkpt><trkpt lat="46.50211667" lon="13.48956167"><ele>781.0</ele><time>2015-11-29T12:21:37.670Z</time></trkpt><trkpt lat="46.50213" lon="13.48953167"><ele>781.0</ele><time>2015-11-29T12:21:38.689Z</time></trkpt><trkpt lat="46.50213" lon="13.48953167"><ele>781.0</ele><time>2015-11-29T12:21:39.699Z</time></trkpt><trkpt lat="46.50214" lon="13.48950167"><ele>781.0</ele><time>2015-11-29T12:21:40.678Z</time></trkpt><trkpt lat="46.50214" lon="13.48950167"><ele>781.0</ele><time>2015-11-29T12:21:41.695Z</time></trkpt><trkpt lat="46.50215" lon="13.48947667"><ele>781.0</ele><time>2015-11-29T12:21:42.683Z</time></trkpt><trkpt lat="46.50215" lon="13.48947667"><ele>781.0</ele><time>2015-11-29T12:21:43.689Z</time></trkpt><trkpt lat="46.50216333" lon="13.48943"><ele>781.0</ele><time>2015-11-29T12:21:44.687Z</time></trkpt><trkpt lat="46.50216333" lon="13.48943"><ele>781.0</ele><time>2015-11-29T12:21:45.670Z</time></trkpt><trkpt lat="46.50217667" lon="13.48942"><ele>781.0</ele><time>2015-11-29T12:21:46.667Z</time></trkpt><trkpt lat="46.50217667" lon="13.48942"><ele>781.0</ele><time>2015-11-29T12:21:47.697Z</time></trkpt><trkpt lat="46.50220167" lon="13.48941167"><ele>781.0</ele><time>2015-11-29T12:21:48.703Z</time></trkpt><trkpt lat="46.50220167" lon="13.48941167"><ele>781.0</ele><time>2015-11-29T12:21:49.668Z</time></trkpt><trkpt lat="46.50223167" lon="13.48940333"><ele>781.0</ele><time>2015-11-29T12:21:50.680Z</time></trkpt><trkpt lat="46.50223167" lon="13.48940333"><ele>781.0</ele><time>2015-11-29T12:21:51.665Z</time></trkpt><trkpt lat="46.50225333" lon="13.4894"><ele>781.0</ele><time>2015-11-29T12:21:52.667Z</time></trkpt><trkpt lat="46.50225333" lon="13.4894"><ele>781.0</ele><time>2015-11-29T12:21:53.687Z</time></trkpt><trkpt lat="46.50227333" lon="13.48938667"><ele>781.0</ele><time>2015-11-29T12:21:54.704Z</time></trkpt><trkpt lat="46.50228167" lon="13.48937833"><ele>781.0</ele><time>2015-11-29T12:21:55.672Z</time></trkpt><trkpt lat="46.50228167" lon="13.48937833"><ele>781.0</ele><time>2015-11-29T12:21:56.684Z</time></trkpt><trkpt lat="46.50230333" lon="13.489365"><ele>781.0</ele><time>2015-11-29T12:21:57.689Z</time></trkpt><trkpt lat="46.50230333" lon="13.489365"><ele>781.0</ele><time>2015-11-29T12:21:58.693Z</time></trkpt><trkpt lat="46.50232667" lon="13.48936"><ele>781.0</ele><time>2015-11-29T12:21:59.698Z</time></trkpt><trkpt lat="46.50232667" lon="13.48936"><ele>781.0</ele><time>2015-11-29T12:22:00.665Z</time></trkpt><trkpt lat="46.50235333" lon="13.489345"><ele>781.0</ele><time>2015-11-29T12:22:01.672Z</time></trkpt><trkpt lat="46.50236333" lon="13.489335"><ele>781.0</ele><time>2015-11-29T12:22:02.678Z</time></trkpt><trkpt lat="46.50236333" lon="13.489335"><ele>781.0</ele><time>2015-11-29T12:22:03.694Z</time></trkpt><trkpt lat="46.50238667" lon="13.48932167"><ele>781.0</ele><time>2015-11-29T12:22:04.668Z</time></trkpt><trkpt lat="46.50238667" lon="13.48932167"><ele>781.0</ele><time>2015-11-29T12:22:05.685Z</time></trkpt><trkpt lat="46.50240833" lon="13.489315"><ele>781.0</ele><time>2015-11-29T12:22:06.683Z</time></trkpt><trkpt lat="46.50240833" lon="13.489315"><ele>781.0</ele><time>2015-11-29T12:22:07.700Z</time></trkpt><trkpt lat="46.50242667" lon="13.4893"><ele>781.0</ele><time>2015-11-29T12:22:08.687Z</time></trkpt><trkpt lat="46.50242667" lon="13.4893"><ele>781.0</ele><time>2015-11-29T12:22:09.677Z</time></trkpt><trkpt lat="46.502445" lon="13.48929167"><ele>781.0</ele><time>2015-11-29T12:22:10.686Z</time></trkpt><trkpt lat="46.502445" lon="13.48929167"><ele>781.0</ele><time>2015-11-29T12:22:11.670Z</time></trkpt><trkpt lat="46.50246" lon="13.48927833"><ele>781.0</ele><time>2015-11-29T12:22:12.679Z</time></trkpt><trkpt lat="46.50246" lon="13.48927833"><ele>781.0</ele><time>2015-11-29T12:22:13.698Z</time></trkpt><trkpt lat="46.50247667" lon="13.48927"><ele>781.0</ele><time>2015-11-29T12:22:14.691Z</time></trkpt><trkpt lat="46.502485" lon="13.48927333"><ele>781.0</ele><time>2015-11-29T12:22:15.685Z</time></trkpt><trkpt lat="46.502485" lon="13.48927333"><ele>781.0</ele><time>2015-11-29T12:22:16.670Z</time></trkpt><trkpt lat="46.50250333" lon="13.48924667"><ele>781.0</ele><time>2015-11-29T12:22:17.690Z</time></trkpt><trkpt lat="46.50252" lon="13.489255"><ele>781.0</ele><time>2015-11-29T12:22:18.692Z</time></trkpt><trkpt lat="46.50252" lon="13.489255"><ele>781.0</ele><time>2015-11-29T12:22:19.672Z</time></trkpt><trkpt lat="46.50254333" lon="13.48925167"><ele>780.0</ele><time>2015-11-29T12:22:20.692Z</time></trkpt><trkpt lat="46.50256333" lon="13.489245"><ele>780.0</ele><time>2015-11-29T12:22:21.688Z</time></trkpt><trkpt lat="46.502575" lon="13.48923667"><ele>780.0</ele><time>2015-11-29T12:22:22.668Z</time></trkpt><trkpt lat="46.502575" lon="13.48923667"><ele>780.0</ele><time>2015-11-29T12:22:23.684Z</time></trkpt><trkpt lat="46.50260667" lon="13.48923333"><ele>780.0</ele><time>2015-11-29T12:22:24.691Z</time></trkpt><trkpt lat="46.50261667" lon="13.48923333"><ele>780.0</ele><time>2015-11-29T12:22:25.686Z</time></trkpt><trkpt lat="46.50261667" lon="13.48923333"><ele>780.0</ele><time>2015-11-29T12:22:26.666Z</time></trkpt><trkpt lat="46.50264" lon="13.48922667"><ele>780.0</ele><time>2015-11-29T12:22:27.690Z</time></trkpt><trkpt lat="46.50264" lon="13.48922667"><ele>780.0</ele><time>2015-11-29T12:22:28.675Z</time></trkpt><trkpt lat="46.50266333" lon="13.48922"><ele>780.0</ele><time>2015-11-29T12:22:29.691Z</time></trkpt><trkpt lat="46.50266333" lon="13.48922"><ele>780.0</ele><time>2015-11-29T12:22:30.678Z</time></trkpt><trkpt lat="46.50267833" lon="13.48921"><ele>780.0</ele><time>2015-11-29T12:22:31.685Z</time></trkpt><trkpt lat="46.50269" lon="13.48919667"><ele>780.0</ele><time>2015-11-29T12:22:32.667Z</time></trkpt><trkpt lat="46.50269" lon="13.48919667"><ele>780.0</ele><time>2015-11-29T12:22:33.683Z</time></trkpt><trkpt lat="46.5027" lon="13.48917833"><ele>780.0</ele><time>2015-11-29T12:22:34.688Z</time></trkpt><trkpt lat="46.5027" lon="13.48917833"><ele>780.0</ele><time>2015-11-29T12:22:35.668Z</time></trkpt><trkpt lat="46.50271333" lon="13.48914833"><ele>780.0</ele><time>2015-11-29T12:22:36.697Z</time></trkpt><trkpt lat="46.50272333" lon="13.48913"><ele>780.0</ele><time>2015-11-29T12:22:37.685Z</time></trkpt><trkpt lat="46.50273167" lon="13.48912167"><ele>781.0</ele><time>2015-11-29T12:22:38.665Z</time></trkpt><trkpt lat="46.50273167" lon="13.48912167"><ele>781.0</ele><time>2015-11-29T12:22:39.682Z</time></trkpt><trkpt lat="46.50274833" lon="13.48909667"><ele>781.0</ele><time>2015-11-29T12:22:40.699Z</time></trkpt><trkpt lat="46.50274833" lon="13.48909667"><ele>781.0</ele><time>2015-11-29T12:22:41.677Z</time></trkpt><trkpt lat="46.50277333" lon="13.48905667"><ele>781.0</ele><time>2015-11-29T12:22:42.695Z</time></trkpt><trkpt lat="46.50278" lon="13.48904333"><ele>781.0</ele><time>2015-11-29T12:22:43.695Z</time></trkpt><trkpt lat="46.50278" lon="13.48904333"><ele>781.0</ele><time>2015-11-29T12:22:44.677Z</time></trkpt><trkpt lat="46.5028" lon="13.48901667"><ele>781.0</ele><time>2015-11-29T12:22:45.694Z</time></trkpt><trkpt lat="46.5028" lon="13.48901667"><ele>781.0</ele><time>2015-11-29T12:22:46.682Z</time></trkpt><trkpt lat="46.50281167" lon="13.48899"><ele>781.0</ele><time>2015-11-29T12:22:47.692Z</time></trkpt><trkpt lat="46.50281167" lon="13.48899"><ele>781.0</ele><time>2015-11-29T12:22:48.670Z</time></trkpt><trkpt lat="46.50282833" lon="13.48896333"><ele>781.0</ele><time>2015-11-29T12:22:49.691Z</time></trkpt><trkpt lat="46.50282833" lon="13.48896333"><ele>781.0</ele><time>2015-11-29T12:22:50.674Z</time></trkpt><trkpt lat="46.50287167" lon="13.48897"><ele>781.0</ele><time>2015-11-29T12:22:51.696Z</time></trkpt><trkpt lat="46.50287167" lon="13.48897"><ele>781.0</ele><time>2015-11-29T12:22:52.672Z</time></trkpt><trkpt lat="46.50288833" lon="13.48895167"><ele>781.0</ele><time>2015-11-29T12:22:53.690Z</time></trkpt><trkpt lat="46.5029" lon="13.48894833"><ele>781.0</ele><time>2015-11-29T12:22:54.687Z</time></trkpt><trkpt lat="46.5029" lon="13.48894833"><ele>781.0</ele><time>2015-11-29T12:22:55.675Z</time></trkpt><trkpt lat="46.50292" lon="13.48894167"><ele>781.0</ele><time>2015-11-29T12:22:56.683Z</time></trkpt><trkpt lat="46.50292833" lon="13.48893667"><ele>781.0</ele><time>2015-11-29T12:22:57.667Z</time></trkpt><trkpt lat="46.50292833" lon="13.48893667"><ele>781.0</ele><time>2015-11-29T12:22:58.682Z</time></trkpt><trkpt lat="46.50295667" lon="13.48893167"><ele>781.0</ele><time>2015-11-29T12:22:59.701Z</time></trkpt><trkpt lat="46.50295667" lon="13.48893167"><ele>781.0</ele><time>2015-11-29T12:23:00.679Z</time></trkpt><trkpt lat="46.50297667" lon="13.48893667"><ele>781.0</ele><time>2015-11-29T12:23:01.677Z</time></trkpt><trkpt lat="46.502995" lon="13.48893167"><ele>781.0</ele><time>2015-11-29T12:23:02.703Z</time></trkpt><trkpt lat="46.50300833" lon="13.48893"><ele>781.0</ele><time>2015-11-29T12:23:03.689Z</time></trkpt><trkpt lat="46.50300833" lon="13.48893"><ele>781.0</ele><time>2015-11-29T12:23:04.675Z</time></trkpt><trkpt lat="46.50303667" lon="13.488935"><ele>781.0</ele><time>2015-11-29T12:23:05.693Z</time></trkpt><trkpt lat="46.50304833" lon="13.48893"><ele>781.0</ele><time>2015-11-29T12:23:06.677Z</time></trkpt><trkpt lat="46.50304833" lon="13.48893"><ele>781.0</ele><time>2015-11-29T12:23:07.666Z</time></trkpt><trkpt lat="46.503065" lon="13.488915"><ele>781.0</ele><time>2015-11-29T12:23:08.684Z</time></trkpt><trkpt lat="46.503065" lon="13.488915"><ele>781.0</ele><time>2015-11-29T12:23:09.701Z</time></trkpt><trkpt lat="46.503095" lon="13.48891"><ele>781.0</ele><time>2015-11-29T12:23:10.675Z</time></trkpt><trkpt lat="46.503095" lon="13.48891"><ele>781.0</ele><time>2015-11-29T12:23:11.691Z</time></trkpt><trkpt lat="46.503115" lon="13.48891333"><ele>780.0</ele><time>2015-11-29T12:23:12.683Z</time></trkpt><trkpt lat="46.503115" lon="13.48891333"><ele>780.0</ele><time>2015-11-29T12:23:13.689Z</time></trkpt><trkpt lat="46.50314" lon="13.48890667"><ele>780.0</ele><time>2015-11-29T12:23:14.685Z</time></trkpt><trkpt lat="46.50314" lon="13.48890667"><ele>780.0</ele><time>2015-11-29T12:23:15.667Z</time></trkpt><trkpt lat="46.50315667" lon="13.48890667"><ele>780.0</ele><time>2015-11-29T12:23:16.697Z</time></trkpt><trkpt lat="46.50315667" lon="13.48890667"><ele>780.0</ele><time>2015-11-29T12:23:17.680Z</time></trkpt><trkpt lat="46.50318167" lon="13.48892167"><ele>780.0</ele><time>2015-11-29T12:23:18.692Z</time></trkpt><trkpt lat="46.50319333" lon="13.48892"><ele>780.0</ele><time>2015-11-29T12:23:19.690Z</time></trkpt><trkpt lat="46.50319333" lon="13.48892"><ele>780.0</ele><time>2015-11-29T12:23:20.666Z</time></trkpt><trkpt lat="46.50321833" lon="13.488935"><ele>780.0</ele><time>2015-11-29T12:23:21.688Z</time></trkpt><trkpt lat="46.50323" lon="13.48894167"><ele>779.0</ele><time>2015-11-29T12:23:22.668Z</time></trkpt><trkpt lat="46.50323" lon="13.48894167"><ele>779.0</ele><time>2015-11-29T12:23:23.686Z</time></trkpt><trkpt lat="46.503245" lon="13.48895"><ele>779.0</ele><time>2015-11-29T12:23:24.701Z</time></trkpt><trkpt lat="46.50325667" lon="13.48894833"><ele>779.0</ele><time>2015-11-29T12:23:25.687Z</time></trkpt><trkpt lat="46.50325667" lon="13.48894833"><ele>779.0</ele><time>2015-11-29T12:23:26.677Z</time></trkpt><trkpt lat="46.50328333" lon="13.48895167"><ele>779.0</ele><time>2015-11-29T12:23:27.701Z</time></trkpt><trkpt lat="46.50328333" lon="13.48895167"><ele>779.0</ele><time>2015-11-29T12:23:28.684Z</time></trkpt><trkpt lat="46.50330833" lon="13.48895"><ele>778.0</ele><time>2015-11-29T12:23:29.704Z</time></trkpt><trkpt lat="46.50330833" lon="13.48895"><ele>778.0</ele><time>2015-11-29T12:23:30.680Z</time></trkpt><trkpt lat="46.50333333" lon="13.48895"><ele>778.0</ele><time>2015-11-29T12:23:31.697Z</time></trkpt><trkpt lat="46.503345" lon="13.48894833"><ele>778.0</ele><time>2015-11-29T12:23:32.666Z</time></trkpt><trkpt lat="46.503345" lon="13.48894833"><ele>778.0</ele><time>2015-11-29T12:23:33.681Z</time></trkpt><trkpt lat="46.50336833" lon="13.48893667"><ele>778.0</ele><time>2015-11-29T12:23:34.698Z</time></trkpt><trkpt lat="46.50337833" lon="13.48892667"><ele>778.0</ele><time>2015-11-29T12:23:35.686Z</time></trkpt><trkpt lat="46.50337833" lon="13.48892667"><ele>778.0</ele><time>2015-11-29T12:23:36.677Z</time></trkpt><trkpt lat="46.50339" lon="13.48890667"><ele>778.0</ele><time>2015-11-29T12:23:37.694Z</time></trkpt><trkpt lat="46.50339" lon="13.48890667"><ele>778.0</ele><time>2015-11-29T12:23:38.680Z</time></trkpt><trkpt lat="46.503415" lon="13.48890333"><ele>778.0</ele><time>2015-11-29T12:23:39.696Z</time></trkpt><trkpt lat="46.503415" lon="13.48889667"><ele>778.0</ele><time>2015-11-29T12:23:40.676Z</time></trkpt><trkpt lat="46.503415" lon="13.48889667"><ele>778.0</ele><time>2015-11-29T12:23:41.667Z</time></trkpt><trkpt lat="46.50342333" lon="13.48888167"><ele>778.0</ele><time>2015-11-29T12:23:42.687Z</time></trkpt><trkpt lat="46.50342333" lon="13.48888167"><ele>778.0</ele><time>2015-11-29T12:23:43.670Z</time></trkpt><trkpt lat="46.503435" lon="13.48885833"><ele>778.0</ele><time>2015-11-29T12:23:44.665Z</time></trkpt><trkpt lat="46.503435" lon="13.48885833"><ele>778.0</ele><time>2015-11-29T12:23:45.686Z</time></trkpt><trkpt lat="46.503445" lon="13.48883333"><ele>778.0</ele><time>2015-11-29T12:23:46.698Z</time></trkpt><trkpt lat="46.50344667" lon="13.488815"><ele>778.0</ele><time>2015-11-29T12:23:47.687Z</time></trkpt><trkpt lat="46.50344667" lon="13.488815"><ele>778.0</ele><time>2015-11-29T12:23:48.671Z</time></trkpt><trkpt lat="46.50345" lon="13.48879"><ele>778.0</ele><time>2015-11-29T12:23:49.695Z</time></trkpt><trkpt lat="46.50345" lon="13.48879"><ele>778.0</ele><time>2015-11-29T12:23:50.677Z</time></trkpt><trkpt lat="46.50345" lon="13.48876"><ele>778.0</ele><time>2015-11-29T12:23:51.694Z</time></trkpt><trkpt lat="46.50345" lon="13.48876"><ele>778.0</ele><time>2015-11-29T12:23:52.669Z</time></trkpt><trkpt lat="46.50346" lon="13.488725"><ele>777.0</ele><time>2015-11-29T12:23:53.690Z</time></trkpt><trkpt lat="46.50346" lon="13.488715"><ele>777.0</ele><time>2015-11-29T12:23:54.689Z</time></trkpt><trkpt lat="46.50346" lon="13.488715"><ele>777.0</ele><time>2015-11-29T12:23:55.671Z</time></trkpt><trkpt lat="46.50346167" lon="13.48868167"><ele>777.0</ele><time>2015-11-29T12:23:56.696Z</time></trkpt><trkpt lat="46.50346167" lon="13.48868167"><ele>777.0</ele><time>2015-11-29T12:23:57.677Z</time></trkpt><trkpt lat="46.50346" lon="13.48866"><ele>777.0</ele><time>2015-11-29T12:23:58.697Z</time></trkpt><trkpt lat="46.50346" lon="13.48866"><ele>777.0</ele><time>2015-11-29T12:23:59.672Z</time></trkpt><trkpt lat="46.50346833" lon="13.48866"><ele>777.0</ele><time>2015-11-29T12:24:00.700Z</time></trkpt><trkpt lat="46.50346833" lon="13.48866"><ele>777.0</ele><time>2015-11-29T12:24:01.673Z</time></trkpt><trkpt lat="46.50347333" lon="13.48863167"><ele>776.0</ele><time>2015-11-29T12:24:02.679Z</time></trkpt><trkpt lat="46.50348333" lon="13.48861667"><ele>777.0</ele><time>2015-11-29T12:24:03.704Z</time></trkpt><trkpt lat="46.50348333" lon="13.48861667"><ele>777.0</ele><time>2015-11-29T12:24:04.680Z</time></trkpt><trkpt lat="46.50347667" lon="13.48858333"><ele>776.0</ele><time>2015-11-29T12:24:05.696Z</time></trkpt><trkpt lat="46.50347833" lon="13.48857167"><ele>776.0</ele><time>2015-11-29T12:24:06.697Z</time></trkpt><trkpt lat="46.50347833" lon="13.48857167"><ele>776.0</ele><time>2015-11-29T12:24:07.677Z</time></trkpt><trkpt lat="46.503475" lon="13.488535"><ele>776.0</ele><time>2015-11-29T12:24:08.688Z</time></trkpt><trkpt lat="46.503475" lon="13.488535"><ele>776.0</ele><time>2015-11-29T12:24:09.696Z</time></trkpt><trkpt lat="46.50347" lon="13.48849333"><ele>776.0</ele><time>2015-11-29T12:24:10.674Z</time></trkpt><trkpt lat="46.50347" lon="13.48849333"><ele>776.0</ele><time>2015-11-29T12:24:11.690Z</time></trkpt><trkpt lat="46.50346833" lon="13.48846333"><ele>776.0</ele><time>2015-11-29T12:24:12.671Z</time></trkpt><trkpt lat="46.50346833" lon="13.48846333"><ele>776.0</ele><time>2015-11-29T12:24:13.689Z</time></trkpt><trkpt lat="46.50347" lon="13.48842333"><ele>776.0</ele><time>2015-11-29T12:24:14.698Z</time></trkpt><trkpt lat="46.50346833" lon="13.488405"><ele>776.0</ele><time>2015-11-29T12:24:15.685Z</time></trkpt><trkpt lat="46.50346833" lon="13.48838167"><ele>776.0</ele><time>2015-11-29T12:24:16.698Z</time></trkpt><trkpt lat="46.50346833" lon="13.48838167"><ele>776.0</ele><time>2015-11-29T12:24:17.675Z</time></trkpt><trkpt lat="46.50347333" lon="13.48833667"><ele>776.0</ele><time>2015-11-29T12:24:18.694Z</time></trkpt><trkpt lat="46.50347333" lon="13.48833667"><ele>776.0</ele><time>2015-11-29T12:24:19.671Z</time></trkpt><trkpt lat="46.50347333" lon="13.48829833"><ele>776.0</ele><time>2015-11-29T12:24:20.697Z</time></trkpt><trkpt lat="46.50347333" lon="13.48829833"><ele>776.0</ele><time>2015-11-29T12:24:21.687Z</time></trkpt><trkpt lat="46.50347833" lon="13.488255"><ele>776.0</ele><time>2015-11-29T12:24:22.693Z</time></trkpt><trkpt lat="46.50347833" lon="13.488255"><ele>776.0</ele><time>2015-11-29T12:24:23.699Z</time></trkpt><trkpt lat="46.50348167" lon="13.48822167"><ele>776.0</ele><time>2015-11-29T12:24:24.704Z</time></trkpt><trkpt lat="46.50348167" lon="13.48822167"><ele>776.0</ele><time>2015-11-29T12:24:25.671Z</time></trkpt><trkpt lat="46.50348333" lon="13.48817833"><ele>776.0</ele><time>2015-11-29T12:24:26.678Z</time></trkpt><trkpt lat="46.50348333" lon="13.48817833"><ele>776.0</ele><time>2015-11-29T12:24:27.684Z</time></trkpt><trkpt lat="46.50348667" lon="13.48814167"><ele>776.0</ele><time>2015-11-29T12:24:28.688Z</time></trkpt><trkpt lat="46.50348667" lon="13.48814167"><ele>776.0</ele><time>2015-11-29T12:24:29.693Z</time></trkpt><trkpt lat="46.50351" lon="13.48813"><ele>776.0</ele><time>2015-11-29T12:24:30.698Z</time></trkpt><trkpt lat="46.50350833" lon="13.48809333"><ele>776.0</ele><time>2015-11-29T12:24:31.668Z</time></trkpt><trkpt lat="46.50349833" lon="13.48805"><ele>776.0</ele><time>2015-11-29T12:24:32.685Z</time></trkpt><trkpt lat="46.50349833" lon="13.48805"><ele>776.0</ele><time>2015-11-29T12:24:33.697Z</time></trkpt><trkpt lat="46.50349667" lon="13.48800833"><ele>775.0</ele><time>2015-11-29T12:24:34.671Z</time></trkpt><trkpt lat="46.50349833" lon="13.48799167"><ele>775.0</ele><time>2015-11-29T12:24:35.685Z</time></trkpt><trkpt lat="46.50349833" lon="13.48799167"><ele>775.0</ele><time>2015-11-29T12:24:36.704Z</time></trkpt><trkpt lat="46.50349167" lon="13.48796167"><ele>775.0</ele><time>2015-11-29T12:24:37.682Z</time></trkpt><trkpt lat="46.50349333" lon="13.48794167"><ele>775.0</ele><time>2015-11-29T12:24:38.699Z</time></trkpt><trkpt lat="46.5035" lon="13.487915"><ele>776.0</ele><time>2015-11-29T12:24:39.681Z</time></trkpt><trkpt lat="46.5035" lon="13.487915"><ele>776.0</ele><time>2015-11-29T12:24:40.693Z</time></trkpt><trkpt lat="46.50351" lon="13.48787167"><ele>775.0</ele><time>2015-11-29T12:24:41.682Z</time></trkpt><trkpt lat="46.50351" lon="13.48787167"><ele>775.0</ele><time>2015-11-29T12:24:42.695Z</time></trkpt><trkpt lat="46.50350667" lon="13.48784167"><ele>775.0</ele><time>2015-11-29T12:24:43.682Z</time></trkpt><trkpt lat="46.50350667" lon="13.48784167"><ele>775.0</ele><time>2015-11-29T12:24:44.695Z</time></trkpt><trkpt lat="46.50350667" lon="13.48781333"><ele>775.0</ele><time>2015-11-29T12:24:45.684Z</time></trkpt><trkpt lat="46.50350667" lon="13.48781333"><ele>775.0</ele><time>2015-11-29T12:24:46.693Z</time></trkpt><trkpt lat="46.50349667" lon="13.48778833"><ele>775.0</ele><time>2015-11-29T12:24:47.684Z</time></trkpt><trkpt lat="46.50349667" lon="13.48778"><ele>775.0</ele><time>2015-11-29T12:24:48.700Z</time></trkpt><trkpt lat="46.50349667" lon="13.48778"><ele>775.0</ele><time>2015-11-29T12:24:49.676Z</time></trkpt><trkpt lat="46.50351667" lon="13.48774"><ele>776.0</ele><time>2015-11-29T12:24:50.701Z</time></trkpt><trkpt lat="46.50352333" lon="13.48771833"><ele>776.0</ele><time>2015-11-29T12:24:51.695Z</time></trkpt><trkpt lat="46.50353167" lon="13.487705"><ele>776.0</ele><time>2015-11-29T12:24:52.677Z</time></trkpt><trkpt lat="46.50353167" lon="13.487705"><ele>776.0</ele><time>2015-11-29T12:24:53.689Z</time></trkpt><trkpt lat="46.50354333" lon="13.48767833"><ele>775.0</ele><time>2015-11-29T12:24:54.685Z</time></trkpt><trkpt lat="46.50354333" lon="13.48767833"><ele>775.0</ele><time>2015-11-29T12:24:55.698Z</time></trkpt><trkpt lat="46.50355833" lon="13.48763833"><ele>775.0</ele><time>2015-11-29T12:24:56.684Z</time></trkpt><trkpt lat="46.50355833" lon="13.48763833"><ele>775.0</ele><time>2015-11-29T12:24:57.696Z</time></trkpt><trkpt lat="46.50357" lon="13.48760667"><ele>775.0</ele><time>2015-11-29T12:24:58.683Z</time></trkpt><trkpt lat="46.50357" lon="13.48760667"><ele>775.0</ele><time>2015-11-29T12:24:59.692Z</time></trkpt><trkpt lat="46.50356167" lon="13.48756333"><ele>775.0</ele><time>2015-11-29T12:25:00.695Z</time></trkpt><trkpt lat="46.50356167" lon="13.48756333"><ele>775.0</ele><time>2015-11-29T12:25:01.676Z</time></trkpt><trkpt lat="46.503565" lon="13.48752667"><ele>774.0</ele><time>2015-11-29T12:25:02.689Z</time></trkpt><trkpt lat="46.503565" lon="13.48752667"><ele>774.0</ele><time>2015-11-29T12:25:03.673Z</time></trkpt><trkpt lat="46.50356833" lon="13.48749333"><ele>774.0</ele><time>2015-11-29T12:25:04.685Z</time></trkpt><trkpt lat="46.50356833" lon="13.48749333"><ele>774.0</ele><time>2015-11-29T12:25:05.697Z</time></trkpt><trkpt lat="46.50356667" lon="13.48746"><ele>774.0</ele><time>2015-11-29T12:25:06.691Z</time></trkpt><trkpt lat="46.50356833" lon="13.487445"><ele>774.0</ele><time>2015-11-29T12:25:07.685Z</time></trkpt><trkpt lat="46.50356833" lon="13.487445"><ele>774.0</ele><time>2015-11-29T12:25:08.667Z</time></trkpt><trkpt lat="46.50357167" lon="13.48741333"><ele>774.0</ele><time>2015-11-29T12:25:09.680Z</time></trkpt><trkpt lat="46.50356667" lon="13.48740667"><ele>774.0</ele><time>2015-11-29T12:25:10.693Z</time></trkpt><trkpt lat="46.50356667" lon="13.48740667"><ele>774.0</ele><time>2015-11-29T12:25:11.672Z</time></trkpt><trkpt lat="46.503565" lon="13.48737833"><ele>773.0</ele><time>2015-11-29T12:25:12.684Z</time></trkpt><trkpt lat="46.503565" lon="13.48737833"><ele>773.0</ele><time>2015-11-29T12:25:13.670Z</time></trkpt><trkpt lat="46.50357" lon="13.48735167"><ele>773.0</ele><time>2015-11-29T12:25:14.684Z</time></trkpt><trkpt lat="46.50357" lon="13.48735167"><ele>773.0</ele><time>2015-11-29T12:25:15.696Z</time></trkpt><trkpt lat="46.50357" lon="13.48731"><ele>773.0</ele><time>2015-11-29T12:25:16.683Z</time></trkpt><trkpt lat="46.50357" lon="13.48731"><ele>773.0</ele><time>2015-11-29T12:25:17.695Z</time></trkpt><trkpt lat="46.503565" lon="13.487285"><ele>773.0</ele><time>2015-11-29T12:25:18.683Z</time></trkpt><trkpt lat="46.503565" lon="13.487285"><ele>773.0</ele><time>2015-11-29T12:25:19.683Z</time></trkpt><trkpt lat="46.50356667" lon="13.48726333"><ele>773.0</ele><time>2015-11-29T12:25:20.695Z</time></trkpt><trkpt lat="46.50356667" lon="13.48726333"><ele>773.0</ele><time>2015-11-29T12:25:21.675Z</time></trkpt><trkpt lat="46.50358333" lon="13.48724167"><ele>773.0</ele><time>2015-11-29T12:25:22.689Z</time></trkpt><trkpt lat="46.50358333" lon="13.48724167"><ele>773.0</ele><time>2015-11-29T12:25:23.676Z</time></trkpt><trkpt lat="46.50358833" lon="13.48720333"><ele>772.0</ele><time>2015-11-29T12:25:24.691Z</time></trkpt><trkpt lat="46.50358833" lon="13.48720333"><ele>772.0</ele><time>2015-11-29T12:25:25.675Z</time></trkpt><trkpt lat="46.50360333" lon="13.48718667"><ele>772.0</ele><time>2015-11-29T12:25:26.666Z</time></trkpt><trkpt lat="46.50361167" lon="13.48718167"><ele>772.0</ele><time>2015-11-29T12:25:27.687Z</time></trkpt><trkpt lat="46.50361833" lon="13.48717333"><ele>772.0</ele><time>2015-11-29T12:25:28.684Z</time></trkpt><trkpt lat="46.50361833" lon="13.48717333"><ele>772.0</ele><time>2015-11-29T12:25:29.701Z</time></trkpt><trkpt lat="46.503615" lon="13.48716667"><ele>772.0</ele><time>2015-11-29T12:25:30.693Z</time></trkpt><trkpt lat="46.503615" lon="13.48716667"><ele>772.0</ele><time>2015-11-29T12:25:31.671Z</time></trkpt><trkpt lat="46.50363" lon="13.48713167"><ele>772.0</ele><time>2015-11-29T12:25:32.686Z</time></trkpt><trkpt lat="46.50363" lon="13.48713167"><ele>772.0</ele><time>2015-11-29T12:25:33.698Z</time></trkpt><trkpt lat="46.503625" lon="13.48709667"><ele>771.0</ele><time>2015-11-29T12:25:34.685Z</time></trkpt><trkpt lat="46.503625" lon="13.48709667"><ele>771.0</ele><time>2015-11-29T12:25:35.698Z</time></trkpt><trkpt lat="46.50364" lon="13.48706667"><ele>771.0</ele><time>2015-11-29T12:25:36.677Z</time></trkpt><trkpt lat="46.50364" lon="13.48706667"><ele>771.0</ele><time>2015-11-29T12:25:37.683Z</time></trkpt><trkpt lat="46.50363667" lon="13.48703333"><ele>771.0</ele><time>2015-11-29T12:25:38.688Z</time></trkpt><trkpt lat="46.50363667" lon="13.48703333"><ele>771.0</ele><time>2015-11-29T12:25:39.693Z</time></trkpt><trkpt lat="46.50363833" lon="13.48699833"><ele>771.0</ele><time>2015-11-29T12:25:40.684Z</time></trkpt><trkpt lat="46.50363833" lon="13.48699833"><ele>771.0</ele><time>2015-11-29T12:25:41.700Z</time></trkpt><trkpt lat="46.503635" lon="13.48697333"><ele>771.0</ele><time>2015-11-29T12:25:42.692Z</time></trkpt><trkpt lat="46.503635" lon="13.48697333"><ele>771.0</ele><time>2015-11-29T12:25:43.672Z</time></trkpt><trkpt lat="46.50362833" lon="13.48695333"><ele>771.0</ele><time>2015-11-29T12:25:44.689Z</time></trkpt><trkpt lat="46.50362833" lon="13.48695333"><ele>771.0</ele><time>2015-11-29T12:25:45.676Z</time></trkpt><trkpt lat="46.50363" lon="13.486945"><ele>771.0</ele><time>2015-11-29T12:25:46.665Z</time></trkpt><trkpt lat="46.50363333" lon="13.48694167"><ele>771.0</ele><time>2015-11-29T12:25:47.684Z</time></trkpt><trkpt lat="46.50363333" lon="13.48694167"><ele>771.0</ele><time>2015-11-29T12:25:48.696Z</time></trkpt><trkpt lat="46.50364" lon="13.48693333"><ele>771.0</ele><time>2015-11-29T12:25:49.685Z</time></trkpt><trkpt lat="46.50364667" lon="13.48692167"><ele>771.0</ele><time>2015-11-29T12:25:50.697Z</time></trkpt><trkpt lat="46.50364667" lon="13.48692167"><ele>771.0</ele><time>2015-11-29T12:25:51.675Z</time></trkpt><trkpt lat="46.50365167" lon="13.48688333"><ele>771.0</ele><time>2015-11-29T12:25:52.689Z</time></trkpt><trkpt lat="46.50365167" lon="13.48688333"><ele>771.0</ele><time>2015-11-29T12:25:53.672Z</time></trkpt><trkpt lat="46.503655" lon="13.48685333"><ele>771.0</ele><time>2015-11-29T12:25:54.692Z</time></trkpt><trkpt lat="46.50364833" lon="13.48683833"><ele>771.0</ele><time>2015-11-29T12:25:55.684Z</time></trkpt><trkpt lat="46.50364667" lon="13.48681833"><ele>771.0</ele><time>2015-11-29T12:25:56.700Z</time></trkpt><trkpt lat="46.50364667" lon="13.48681833"><ele>771.0</ele><time>2015-11-29T12:25:57.678Z</time></trkpt><trkpt lat="46.50365167" lon="13.48679"><ele>771.0</ele><time>2015-11-29T12:25:58.691Z</time></trkpt><trkpt lat="46.50365167" lon="13.48679"><ele>771.0</ele><time>2015-11-29T12:25:59.681Z</time></trkpt><trkpt lat="46.50366167" lon="13.48675833"><ele>771.0</ele><time>2015-11-29T12:26:00.697Z</time></trkpt><trkpt lat="46.50366167" lon="13.48675833"><ele>771.0</ele><time>2015-11-29T12:26:01.677Z</time></trkpt><trkpt lat="46.50365" lon="13.48673"><ele>771.0</ele><time>2015-11-29T12:26:02.691Z</time></trkpt><trkpt lat="46.50365" lon="13.48673"><ele>771.0</ele><time>2015-11-29T12:26:03.696Z</time></trkpt><trkpt lat="46.50364667" lon="13.48670333"><ele>771.0</ele><time>2015-11-29T12:26:04.702Z</time></trkpt><trkpt lat="46.50364667" lon="13.48670333"><ele>771.0</ele><time>2015-11-29T12:26:05.671Z</time></trkpt><trkpt lat="46.50365833" lon="13.48667333"><ele>771.0</ele><time>2015-11-29T12:26:06.677Z</time></trkpt><trkpt lat="46.50365833" lon="13.48667333"><ele>771.0</ele><time>2015-11-29T12:26:07.683Z</time></trkpt><trkpt lat="46.50367833" lon="13.48663"><ele>771.0</ele><time>2015-11-29T12:26:08.689Z</time></trkpt><trkpt lat="46.50367833" lon="13.48663"><ele>771.0</ele><time>2015-11-29T12:26:09.671Z</time></trkpt><trkpt lat="46.50369" lon="13.48660167"><ele>770.0</ele><time>2015-11-29T12:26:10.682Z</time></trkpt><trkpt lat="46.50369" lon="13.48660167"><ele>770.0</ele><time>2015-11-29T12:26:11.688Z</time></trkpt><trkpt lat="46.503705" lon="13.48656833"><ele>770.0</ele><time>2015-11-29T12:26:12.685Z</time></trkpt><trkpt lat="46.503705" lon="13.48656833"><ele>770.0</ele><time>2015-11-29T12:26:13.690Z</time></trkpt><trkpt lat="46.50370833" lon="13.48655167"><ele>770.0</ele><time>2015-11-29T12:26:14.697Z</time></trkpt><trkpt lat="46.50370833" lon="13.48655167"><ele>770.0</ele><time>2015-11-29T12:26:15.702Z</time></trkpt><trkpt lat="46.50373167" lon="13.486535"><ele>770.0</ele><time>2015-11-29T12:26:16.668Z</time></trkpt><trkpt lat="46.50373833" lon="13.48653333"><ele>770.0</ele><time>2015-11-29T12:26:17.674Z</time></trkpt><trkpt lat="46.50373833" lon="13.48653333"><ele>770.0</ele><time>2015-11-29T12:26:18.679Z</time></trkpt><trkpt lat="46.50374667" lon="13.48651"><ele>770.0</ele><time>2015-11-29T12:26:19.684Z</time></trkpt><trkpt lat="46.50376" lon="13.48648833"><ele>770.0</ele><time>2015-11-29T12:26:20.689Z</time></trkpt><trkpt lat="46.50376" lon="13.48648833"><ele>770.0</ele><time>2015-11-29T12:26:21.677Z</time></trkpt><trkpt lat="46.50377167" lon="13.486465"><ele>771.0</ele><time>2015-11-29T12:26:22.690Z</time></trkpt><trkpt lat="46.50377167" lon="13.486465"><ele>771.0</ele><time>2015-11-29T12:26:23.677Z</time></trkpt><trkpt lat="46.50379333" lon="13.48643"><ele>771.0</ele><time>2015-11-29T12:26:24.693Z</time></trkpt><trkpt lat="46.503795" lon="13.48641167"><ele>771.0</ele><time>2015-11-29T12:26:25.686Z</time></trkpt><trkpt lat="46.503795" lon="13.48641167"><ele>771.0</ele><time>2015-11-29T12:26:26.704Z</time></trkpt><trkpt lat="46.5038" lon="13.486375"><ele>771.0</ele><time>2015-11-29T12:26:27.686Z</time></trkpt><trkpt lat="46.5038" lon="13.486375"><ele>771.0</ele><time>2015-11-29T12:26:28.695Z</time></trkpt><trkpt lat="46.503805" lon="13.486345"><ele>771.0</ele><time>2015-11-29T12:26:29.691Z</time></trkpt><trkpt lat="46.503805" lon="13.486345"><ele>771.0</ele><time>2015-11-29T12:26:30.678Z</time></trkpt><trkpt lat="46.50381667" lon="13.4863"><ele>772.0</ele><time>2015-11-29T12:26:31.693Z</time></trkpt><trkpt lat="46.50381667" lon="13.4863"><ele>772.0</ele><time>2015-11-29T12:26:32.682Z</time></trkpt><trkpt lat="46.50381833" lon="13.48627333"><ele>772.0</ele><time>2015-11-29T12:26:33.694Z</time></trkpt><trkpt lat="46.50382" lon="13.486255"><ele>772.0</ele><time>2015-11-29T12:26:34.689Z</time></trkpt><trkpt lat="46.50382" lon="13.486255"><ele>772.0</ele><time>2015-11-29T12:26:35.675Z</time></trkpt><trkpt lat="46.50382167" lon="13.48622"><ele>772.0</ele><time>2015-11-29T12:26:36.674Z</time></trkpt><trkpt lat="46.50382333" lon="13.48621"><ele>772.0</ele><time>2015-11-29T12:26:37.688Z</time></trkpt><trkpt lat="46.50382667" lon="13.486195"><ele>772.0</ele><time>2015-11-29T12:26:38.700Z</time></trkpt><trkpt lat="46.50382667" lon="13.486195"><ele>772.0</ele><time>2015-11-29T12:26:39.683Z</time></trkpt><trkpt lat="46.50383" lon="13.48615333"><ele>771.0</ele><time>2015-11-29T12:26:40.695Z</time></trkpt><trkpt lat="46.503835" lon="13.48613667"><ele>771.0</ele><time>2015-11-29T12:26:41.684Z</time></trkpt><trkpt lat="46.503835" lon="13.48613667"><ele>771.0</ele><time>2015-11-29T12:26:42.668Z</time></trkpt><trkpt lat="46.50384333" lon="13.48610667"><ele>771.0</ele><time>2015-11-29T12:26:43.686Z</time></trkpt><trkpt lat="46.50384333" lon="13.48610667"><ele>771.0</ele><time>2015-11-29T12:26:44.698Z</time></trkpt><trkpt lat="46.50384667" lon="13.48609"><ele>771.0</ele><time>2015-11-29T12:26:45.683Z</time></trkpt><trkpt lat="46.50384667" lon="13.48609"><ele>771.0</ele><time>2015-11-29T12:26:46.665Z</time></trkpt><trkpt lat="46.503845" lon="13.48607333"><ele>771.0</ele><time>2015-11-29T12:26:47.679Z</time></trkpt><trkpt lat="46.503845" lon="13.48607333"><ele>771.0</ele><time>2015-11-29T12:26:48.668Z</time></trkpt><trkpt lat="46.50385" lon="13.48606"><ele>771.0</ele><time>2015-11-29T12:26:49.695Z</time></trkpt><trkpt lat="46.50385" lon="13.48606"><ele>771.0</ele><time>2015-11-29T12:26:50.678Z</time></trkpt><trkpt lat="46.50385833" lon="13.48603667"><ele>771.0</ele><time>2015-11-29T12:26:51.691Z</time></trkpt><trkpt lat="46.50386667" lon="13.48602167"><ele>771.0</ele><time>2015-11-29T12:26:52.684Z</time></trkpt><trkpt lat="46.50386667" lon="13.48602167"><ele>771.0</ele><time>2015-11-29T12:26:53.696Z</time></trkpt><trkpt lat="46.50388" lon="13.48599167"><ele>771.0</ele><time>2015-11-29T12:26:54.683Z</time></trkpt><trkpt lat="46.50388" lon="13.48599167"><ele>771.0</ele><time>2015-11-29T12:26:55.695Z</time></trkpt><trkpt lat="46.50389333" lon="13.48596"><ele>771.0</ele><time>2015-11-29T12:26:56.694Z</time></trkpt><trkpt lat="46.50389333" lon="13.48596"><ele>771.0</ele><time>2015-11-29T12:26:57.695Z</time></trkpt><trkpt lat="46.50391" lon="13.485935"><ele>771.0</ele><time>2015-11-29T12:26:58.685Z</time></trkpt><trkpt lat="46.50391" lon="13.485935"><ele>771.0</ele><time>2015-11-29T12:26:59.703Z</time></trkpt><trkpt lat="46.50393333" lon="13.48590167"><ele>771.0</ele><time>2015-11-29T12:27:00.665Z</time></trkpt><trkpt lat="46.50393333" lon="13.48590167"><ele>771.0</ele><time>2015-11-29T12:27:01.682Z</time></trkpt><trkpt lat="46.503955" lon="13.48586333"><ele>771.0</ele><time>2015-11-29T12:27:02.695Z</time></trkpt><trkpt lat="46.503955" lon="13.48586333"><ele>771.0</ele><time>2015-11-29T12:27:03.677Z</time></trkpt><trkpt lat="46.50397167" lon="13.48582667"><ele>771.0</ele><time>2015-11-29T12:27:04.691Z</time></trkpt><trkpt lat="46.50397167" lon="13.48582667"><ele>771.0</ele><time>2015-11-29T12:27:05.674Z</time></trkpt><trkpt lat="46.503995" lon="13.48579667"><ele>771.0</ele><time>2015-11-29T12:27:06.694Z</time></trkpt><trkpt lat="46.50400333" lon="13.48577833"><ele>771.0</ele><time>2015-11-29T12:27:07.685Z</time></trkpt><trkpt lat="46.50401333" lon="13.48576167"><ele>771.0</ele><time>2015-11-29T12:27:08.697Z</time></trkpt><trkpt lat="46.50401333" lon="13.48576167"><ele>771.0</ele><time>2015-11-29T12:27:09.683Z</time></trkpt><trkpt lat="46.50403333" lon="13.485735"><ele>771.0</ele><time>2015-11-29T12:27:10.674Z</time></trkpt><trkpt lat="46.504035" lon="13.485715"><ele>771.0</ele><time>2015-11-29T12:27:11.688Z</time></trkpt><trkpt lat="46.504035" lon="13.485715"><ele>771.0</ele><time>2015-11-29T12:27:12.693Z</time></trkpt><trkpt lat="46.50403167" lon="13.485695"><ele>771.0</ele><time>2015-11-29T12:27:13.698Z</time></trkpt><trkpt lat="46.50403" lon="13.48568833"><ele>771.0</ele><time>2015-11-29T12:27:14.704Z</time></trkpt><trkpt lat="46.50403" lon="13.48568833"><ele>771.0</ele><time>2015-11-29T12:27:15.679Z</time></trkpt><trkpt lat="46.504015" lon="13.48568167"><ele>771.0</ele><time>2015-11-29T12:27:16.693Z</time></trkpt><trkpt lat="46.504015" lon="13.48568167"><ele>771.0</ele><time>2015-11-29T12:27:17.698Z</time></trkpt><trkpt lat="46.503985" lon="13.48568667"><ele>771.0</ele><time>2015-11-29T12:27:18.704Z</time></trkpt><trkpt lat="46.503985" lon="13.48568667"><ele>771.0</ele><time>2015-11-29T12:27:19.671Z</time></trkpt><trkpt lat="46.50396667" lon="13.48568333"><ele>771.0</ele><time>2015-11-29T12:27:20.678Z</time></trkpt><trkpt lat="46.50395167" lon="13.48568167"><ele>771.0</ele><time>2015-11-29T12:27:21.683Z</time></trkpt><trkpt lat="46.50394333" lon="13.48567833"><ele>771.0</ele><time>2015-11-29T12:27:22.689Z</time></trkpt><trkpt lat="46.50394333" lon="13.48567833"><ele>771.0</ele><time>2015-11-29T12:27:23.695Z</time></trkpt><trkpt lat="46.50393" lon="13.48566333"><ele>771.0</ele><time>2015-11-29T12:27:24.684Z</time></trkpt><trkpt lat="46.50393" lon="13.48566333"><ele>771.0</ele><time>2015-11-29T12:27:25.678Z</time></trkpt><trkpt lat="46.50391167" lon="13.48563333"><ele>771.0</ele><time>2015-11-29T12:27:26.696Z</time></trkpt><trkpt lat="46.50391167" lon="13.48563333"><ele>771.0</ele><time>2015-11-29T12:27:27.701Z</time></trkpt><trkpt lat="46.50389" lon="13.485605"><ele>771.0</ele><time>2015-11-29T12:27:28.671Z</time></trkpt><trkpt lat="46.50389" lon="13.485605"><ele>771.0</ele><time>2015-11-29T12:27:29.680Z</time></trkpt><trkpt lat="46.50385" lon="13.48561833"><ele>771.0</ele><time>2015-11-29T12:27:30.688Z</time></trkpt><trkpt lat="46.50383" lon="13.48562667"><ele>771.0</ele><time>2015-11-29T12:27:31.669Z</time></trkpt><trkpt lat="46.50383" lon="13.48562667"><ele>771.0</ele><time>2015-11-29T12:27:32.685Z</time></trkpt><trkpt lat="46.50380333" lon="13.48562"><ele>771.0</ele><time>2015-11-29T12:27:33.699Z</time></trkpt><trkpt lat="46.50379667" lon="13.48562667"><ele>771.0</ele><time>2015-11-29T12:27:34.697Z</time></trkpt><trkpt lat="46.50379667" lon="13.48562667"><ele>771.0</ele><time>2015-11-29T12:27:35.673Z</time></trkpt><trkpt lat="46.50377667" lon="13.48563167"><ele>771.0</ele><time>2015-11-29T12:27:36.678Z</time></trkpt><trkpt lat="46.50376667" lon="13.48562667"><ele>771.0</ele><time>2015-11-29T12:27:37.684Z</time></trkpt><trkpt lat="46.50376" lon="13.48561833"><ele>771.0</ele><time>2015-11-29T12:27:38.691Z</time></trkpt><trkpt lat="46.50376" lon="13.48561833"><ele>771.0</ele><time>2015-11-29T12:27:39.697Z</time></trkpt><trkpt lat="46.50373667" lon="13.48561833"><ele>771.0</ele><time>2015-11-29T12:27:40.702Z</time></trkpt><trkpt lat="46.50373667" lon="13.48561833"><ele>771.0</ele><time>2015-11-29T12:27:41.668Z</time></trkpt><trkpt lat="46.50371667" lon="13.48562167"><ele>771.0</ele><time>2015-11-29T12:27:42.676Z</time></trkpt><trkpt lat="46.50369833" lon="13.48561333"><ele>771.0</ele><time>2015-11-29T12:27:43.681Z</time></trkpt><trkpt lat="46.50369833" lon="13.48561333"><ele>771.0</ele><time>2015-11-29T12:27:44.688Z</time></trkpt><trkpt lat="46.50367167" lon="13.48561333"><ele>771.0</ele><time>2015-11-29T12:27:45.693Z</time></trkpt><trkpt lat="46.50367167" lon="13.48561333"><ele>771.0</ele><time>2015-11-29T12:27:46.684Z</time></trkpt><trkpt lat="46.503645" lon="13.48561333"><ele>771.0</ele><time>2015-11-29T12:27:47.697Z</time></trkpt><trkpt lat="46.503645" lon="13.48561333"><ele>771.0</ele><time>2015-11-29T12:27:48.703Z</time></trkpt><trkpt lat="46.50361833" lon="13.48561833"><ele>771.0</ele><time>2015-11-29T12:27:49.672Z</time></trkpt><trkpt lat="46.50360667" lon="13.48562333"><ele>771.0</ele><time>2015-11-29T12:27:50.692Z</time></trkpt><trkpt lat="46.50360667" lon="13.48562333"><ele>771.0</ele><time>2015-11-29T12:27:51.675Z</time></trkpt><trkpt lat="46.50358667" lon="13.485635"><ele>771.0</ele><time>2015-11-29T12:27:52.680Z</time></trkpt><trkpt lat="46.50358667" lon="13.485635"><ele>771.0</ele><time>2015-11-29T12:27:53.686Z</time></trkpt><trkpt lat="46.503565" lon="13.48563667"><ele>770.0</ele><time>2015-11-29T12:27:54.692Z</time></trkpt><trkpt lat="46.50355167" lon="13.485635"><ele>770.0</ele><time>2015-11-29T12:27:55.678Z</time></trkpt><trkpt lat="46.50355167" lon="13.485635"><ele>770.0</ele><time>2015-11-29T12:27:56.698Z</time></trkpt><trkpt lat="46.503535" lon="13.48564833"><ele>770.0</ele><time>2015-11-29T12:27:57.703Z</time></trkpt><trkpt lat="46.503535" lon="13.48564833"><ele>770.0</ele><time>2015-11-29T12:27:58.671Z</time></trkpt><trkpt lat="46.503515" lon="13.48564833"><ele>770.0</ele><time>2015-11-29T12:27:59.678Z</time></trkpt><trkpt lat="46.503515" lon="13.48564833"><ele>770.0</ele><time>2015-11-29T12:28:00.683Z</time></trkpt><trkpt lat="46.50350333" lon="13.48569167"><ele>770.0</ele><time>2015-11-29T12:28:01.688Z</time></trkpt><trkpt lat="46.503495" lon="13.485705"><ele>770.0</ele><time>2015-11-29T12:28:02.692Z</time></trkpt><trkpt lat="46.503495" lon="13.485705"><ele>770.0</ele><time>2015-11-29T12:28:03.697Z</time></trkpt><trkpt lat="46.50348167" lon="13.48571667"><ele>770.0</ele><time>2015-11-29T12:28:04.666Z</time></trkpt><trkpt lat="46.50348167" lon="13.48571667"><ele>770.0</ele><time>2015-11-29T12:28:05.681Z</time></trkpt><trkpt lat="46.50346667" lon="13.48572833"><ele>770.0</ele><time>2015-11-29T12:28:06.694Z</time></trkpt><trkpt lat="46.50346667" lon="13.48572833"><ele>770.0</ele><time>2015-11-29T12:28:07.677Z</time></trkpt><trkpt lat="46.50345333" lon="13.48573167"><ele>769.0</ele><time>2015-11-29T12:28:08.691Z</time></trkpt><trkpt lat="46.50345333" lon="13.48573167"><ele>769.0</ele><time>2015-11-29T12:28:09.681Z</time></trkpt><trkpt lat="46.50343833" lon="13.48574333"><ele>769.0</ele><time>2015-11-29T12:28:10.704Z</time></trkpt><trkpt lat="46.50343833" lon="13.48574333"><ele>769.0</ele><time>2015-11-29T12:28:11.676Z</time></trkpt><trkpt lat="46.50342167" lon="13.48576333"><ele>769.0</ele><time>2015-11-29T12:28:12.690Z</time></trkpt><trkpt lat="46.50342167" lon="13.48576333"><ele>769.0</ele><time>2015-11-29T12:28:13.678Z</time></trkpt><trkpt lat="46.503405" lon="13.48578167"><ele>769.0</ele><time>2015-11-29T12:28:14.692Z</time></trkpt><trkpt lat="46.503405" lon="13.48578167"><ele>769.0</ele><time>2015-11-29T12:28:15.677Z</time></trkpt><trkpt lat="46.50338667" lon="13.48578667"><ele>769.0</ele><time>2015-11-29T12:28:16.694Z</time></trkpt><trkpt lat="46.50338667" lon="13.48578667"><ele>769.0</ele><time>2015-11-29T12:28:17.676Z</time></trkpt><trkpt lat="46.503375" lon="13.48579"><ele>769.0</ele><time>2015-11-29T12:28:18.690Z</time></trkpt><trkpt lat="46.503375" lon="13.48579"><ele>769.0</ele><time>2015-11-29T12:28:19.679Z</time></trkpt><trkpt lat="46.50336" lon="13.48579333"><ele>769.0</ele><time>2015-11-29T12:28:20.695Z</time></trkpt><trkpt lat="46.50336" lon="13.48579333"><ele>769.0</ele><time>2015-11-29T12:28:21.680Z</time></trkpt><trkpt lat="46.50333167" lon="13.485805"><ele>769.0</ele><time>2015-11-29T12:28:22.695Z</time></trkpt><trkpt lat="46.50333167" lon="13.485805"><ele>769.0</ele><time>2015-11-29T12:28:23.678Z</time></trkpt><trkpt lat="46.50331667" lon="13.48581333"><ele>769.0</ele><time>2015-11-29T12:28:24.692Z</time></trkpt><trkpt lat="46.50331667" lon="13.48581333"><ele>769.0</ele><time>2015-11-29T12:28:25.679Z</time></trkpt><trkpt lat="46.50329" lon="13.48583167"><ele>769.0</ele><time>2015-11-29T12:28:26.694Z</time></trkpt><trkpt lat="46.50329" lon="13.48583167"><ele>769.0</ele><time>2015-11-29T12:28:27.678Z</time></trkpt><trkpt lat="46.50327" lon="13.485855"><ele>769.0</ele><time>2015-11-29T12:28:28.691Z</time></trkpt><trkpt lat="46.50327" lon="13.485855"><ele>769.0</ele><time>2015-11-29T12:28:29.682Z</time></trkpt><trkpt lat="46.503255" lon="13.48587333"><ele>769.0</ele><time>2015-11-29T12:28:30.695Z</time></trkpt><trkpt lat="46.503255" lon="13.48587333"><ele>769.0</ele><time>2015-11-29T12:28:31.678Z</time></trkpt><trkpt lat="46.50323333" lon="13.4859"><ele>770.0</ele><time>2015-11-29T12:28:32.691Z</time></trkpt><trkpt lat="46.50323333" lon="13.4859"><ele>770.0</ele><time>2015-11-29T12:28:33.680Z</time></trkpt><trkpt lat="46.50320167" lon="13.48591"><ele>770.0</ele><time>2015-11-29T12:28:34.692Z</time></trkpt><trkpt lat="46.50320167" lon="13.48591"><ele>770.0</ele><time>2015-11-29T12:28:35.678Z</time></trkpt><trkpt lat="46.50319167" lon="13.48593667"><ele>770.0</ele><time>2015-11-29T12:28:36.694Z</time></trkpt><trkpt lat="46.50319167" lon="13.48593667"><ele>770.0</ele><time>2015-11-29T12:28:37.677Z</time></trkpt><trkpt lat="46.50318667" lon="13.48596167"><ele>770.0</ele><time>2015-11-29T12:28:38.691Z</time></trkpt><trkpt lat="46.50318667" lon="13.48596167"><ele>770.0</ele><time>2015-11-29T12:28:39.678Z</time></trkpt><trkpt lat="46.50317167" lon="13.48598333"><ele>770.0</ele><time>2015-11-29T12:28:40.696Z</time></trkpt><trkpt lat="46.50317167" lon="13.48598333"><ele>770.0</ele><time>2015-11-29T12:28:41.678Z</time></trkpt><trkpt lat="46.50315833" lon="13.48598667"><ele>770.0</ele><time>2015-11-29T12:28:42.691Z</time></trkpt><trkpt lat="46.50315833" lon="13.48598667"><ele>770.0</ele><time>2015-11-29T12:28:43.695Z</time></trkpt><trkpt lat="46.50315167" lon="13.48599167"><ele>770.0</ele><time>2015-11-29T12:28:44.687Z</time></trkpt><trkpt lat="46.50315167" lon="13.48599167"><ele>770.0</ele><time>2015-11-29T12:28:45.699Z</time></trkpt><trkpt lat="46.50312167" lon="13.48597667"><ele>769.0</ele><time>2015-11-29T12:28:46.685Z</time></trkpt><trkpt lat="46.50312167" lon="13.48597667"><ele>769.0</ele><time>2015-11-29T12:28:47.666Z</time></trkpt><trkpt lat="46.503105" lon="13.48596833"><ele>769.0</ele><time>2015-11-29T12:28:48.698Z</time></trkpt><trkpt lat="46.503105" lon="13.48596833"><ele>769.0</ele><time>2015-11-29T12:28:49.687Z</time></trkpt><trkpt lat="46.503095" lon="13.48596667"><ele>769.0</ele><time>2015-11-29T12:28:50.701Z</time></trkpt><trkpt lat="46.503095" lon="13.48596667"><ele>769.0</ele><time>2015-11-29T12:28:51.674Z</time></trkpt><trkpt lat="46.503075" lon="13.48596333"><ele>769.0</ele><time>2015-11-29T12:28:52.694Z</time></trkpt><trkpt lat="46.503075" lon="13.48596333"><ele>769.0</ele><time>2015-11-29T12:28:53.679Z</time></trkpt><trkpt lat="46.50305833" lon="13.48597333"><ele>769.0</ele><time>2015-11-29T12:28:54.692Z</time></trkpt><trkpt lat="46.50305" lon="13.485975"><ele>769.0</ele><time>2015-11-29T12:28:55.677Z</time></trkpt><trkpt lat="46.50304167" lon="13.48598167"><ele>769.0</ele><time>2015-11-29T12:28:56.694Z</time></trkpt><trkpt lat="46.50304167" lon="13.48598167"><ele>769.0</ele><time>2015-11-29T12:28:57.680Z</time></trkpt><trkpt lat="46.50304" lon="13.48599"><ele>769.0</ele><time>2015-11-29T12:28:58.694Z</time></trkpt><trkpt lat="46.50304" lon="13.48599"><ele>769.0</ele><time>2015-11-29T12:28:59.684Z</time></trkpt><trkpt lat="46.503035" lon="13.48599167"><ele>770.0</ele><time>2015-11-29T12:29:00.674Z</time></trkpt><trkpt lat="46.503035" lon="13.48599167"><ele>770.0</ele><time>2015-11-29T12:29:01.683Z</time></trkpt><trkpt lat="46.50302" lon="13.48600333"><ele>769.0</ele><time>2015-11-29T12:29:02.695Z</time></trkpt><trkpt lat="46.50302" lon="13.48600333"><ele>769.0</ele><time>2015-11-29T12:29:03.679Z</time></trkpt><trkpt lat="46.50301167" lon="13.48602167"><ele>770.0</ele><time>2015-11-29T12:29:04.694Z</time></trkpt><trkpt lat="46.50301167" lon="13.48602167"><ele>770.0</ele><time>2015-11-29T12:29:05.672Z</time></trkpt><trkpt lat="46.50299667" lon="13.48603167"><ele>770.0</ele><time>2015-11-29T12:29:06.693Z</time></trkpt><trkpt lat="46.50299667" lon="13.48603167"><ele>770.0</ele><time>2015-11-29T12:29:07.679Z</time></trkpt><trkpt lat="46.50298333" lon="13.486045"><ele>770.0</ele><time>2015-11-29T12:29:08.693Z</time></trkpt><trkpt lat="46.50298333" lon="13.486045"><ele>770.0</ele><time>2015-11-29T12:29:09.677Z</time></trkpt><trkpt lat="46.502965" lon="13.48606"><ele>770.0</ele><time>2015-11-29T12:29:10.695Z</time></trkpt><trkpt lat="46.502965" lon="13.48606"><ele>770.0</ele><time>2015-11-29T12:29:11.672Z</time></trkpt><trkpt lat="46.50294" lon="13.48608833"><ele>770.0</ele><time>2015-11-29T12:29:12.703Z</time></trkpt><trkpt lat="46.50294" lon="13.48608833"><ele>770.0</ele><time>2015-11-29T12:29:13.676Z</time></trkpt><trkpt lat="46.50291833" lon="13.4861"><ele>770.0</ele><time>2015-11-29T12:29:14.690Z</time></trkpt><trkpt lat="46.50291833" lon="13.4861"><ele>770.0</ele><time>2015-11-29T12:29:15.681Z</time></trkpt><trkpt lat="46.50289167" lon="13.48608"><ele>770.0</ele><time>2015-11-29T12:29:16.686Z</time></trkpt><trkpt lat="46.50289167" lon="13.48608"><ele>770.0</ele><time>2015-11-29T12:29:17.691Z</time></trkpt><trkpt lat="46.50286833" lon="13.48607833"><ele>770.0</ele><time>2015-11-29T12:29:18.696Z</time></trkpt><trkpt lat="46.50286833" lon="13.48607833"><ele>770.0</ele><time>2015-11-29T12:29:19.701Z</time></trkpt><trkpt lat="46.50284333" lon="13.48608"><ele>770.0</ele><time>2015-11-29T12:29:20.687Z</time></trkpt><trkpt lat="46.50284333" lon="13.48608"><ele>770.0</ele><time>2015-11-29T12:29:21.692Z</time></trkpt><trkpt lat="46.50282167" lon="13.48608"><ele>770.0</ele><time>2015-11-29T12:29:22.697Z</time></trkpt><trkpt lat="46.50282167" lon="13.48608"><ele>770.0</ele><time>2015-11-29T12:29:23.665Z</time></trkpt><trkpt lat="46.50280667" lon="13.48608833"><ele>770.0</ele><time>2015-11-29T12:29:24.684Z</time></trkpt><trkpt lat="46.50280667" lon="13.48608833"><ele>770.0</ele><time>2015-11-29T12:29:25.696Z</time></trkpt><trkpt lat="46.50279667" lon="13.48609333"><ele>770.0</ele><time>2015-11-29T12:29:26.702Z</time></trkpt><trkpt lat="46.50279667" lon="13.48609333"><ele>770.0</ele><time>2015-11-29T12:29:27.675Z</time></trkpt><trkpt lat="46.50279667" lon="13.48610833"><ele>771.0</ele><time>2015-11-29T12:29:28.689Z</time></trkpt><trkpt lat="46.50279667" lon="13.48610833"><ele>771.0</ele><time>2015-11-29T12:29:29.670Z</time></trkpt><trkpt lat="46.50278667" lon="13.48610833"><ele>771.0</ele><time>2015-11-29T12:29:30.685Z</time></trkpt><trkpt lat="46.50278" lon="13.48611333"><ele>771.0</ele><time>2015-11-29T12:29:31.702Z</time></trkpt><trkpt lat="46.50277" lon="13.48610167"><ele>771.0</ele><time>2015-11-29T12:29:32.687Z</time></trkpt><trkpt lat="46.50277" lon="13.48610167"><ele>771.0</ele><time>2015-11-29T12:29:33.699Z</time></trkpt><trkpt lat="46.502755" lon="13.486095"><ele>771.0</ele><time>2015-11-29T12:29:34.683Z</time></trkpt><trkpt lat="46.502755" lon="13.486095"><ele>771.0</ele><time>2015-11-29T12:29:35.702Z</time></trkpt><trkpt lat="46.50274" lon="13.4861"><ele>771.0</ele><time>2015-11-29T12:29:36.667Z</time></trkpt><trkpt lat="46.50274" lon="13.4861"><ele>771.0</ele><time>2015-11-29T12:29:37.672Z</time></trkpt><trkpt lat="46.50272833" lon="13.48610833"><ele>771.0</ele><time>2015-11-29T12:29:38.679Z</time></trkpt><trkpt lat="46.50272833" lon="13.48610833"><ele>771.0</ele><time>2015-11-29T12:29:39.684Z</time></trkpt><trkpt lat="46.50271333" lon="13.486125"><ele>771.0</ele><time>2015-11-29T12:29:40.696Z</time></trkpt><trkpt lat="46.50271333" lon="13.486125"><ele>771.0</ele><time>2015-11-29T12:29:41.676Z</time></trkpt><trkpt lat="46.50270167" lon="13.48614333"><ele>771.0</ele><time>2015-11-29T12:29:42.690Z</time></trkpt><trkpt lat="46.50270167" lon="13.48614333"><ele>771.0</ele><time>2015-11-29T12:29:43.674Z</time></trkpt><trkpt lat="46.50268" lon="13.48616"><ele>772.0</ele><time>2015-11-29T12:29:44.690Z</time></trkpt><trkpt lat="46.50268" lon="13.48616"><ele>772.0</ele><time>2015-11-29T12:29:45.681Z</time></trkpt><trkpt lat="46.50267167" lon="13.48622833"><ele>772.0</ele><time>2015-11-29T12:29:46.676Z</time></trkpt><trkpt lat="46.50265833" lon="13.48623333"><ele>772.0</ele><time>2015-11-29T12:29:47.701Z</time></trkpt><trkpt lat="46.50264833" lon="13.486235"><ele>772.0</ele><time>2015-11-29T12:29:48.683Z</time></trkpt><trkpt lat="46.50264833" lon="13.486235"><ele>772.0</ele><time>2015-11-29T12:29:49.695Z</time></trkpt><trkpt lat="46.502625" lon="13.48623833"><ele>772.0</ele><time>2015-11-29T12:29:50.694Z</time></trkpt><trkpt lat="46.502625" lon="13.48623833"><ele>772.0</ele><time>2015-11-29T12:29:51.685Z</time></trkpt><trkpt lat="46.50261" lon="13.48623"><ele>772.0</ele><time>2015-11-29T12:29:52.697Z</time></trkpt><trkpt lat="46.50261" lon="13.48623"><ele>772.0</ele><time>2015-11-29T12:29:53.681Z</time></trkpt><trkpt lat="46.50258667" lon="13.48621833"><ele>772.0</ele><time>2015-11-29T12:29:54.694Z</time></trkpt><trkpt lat="46.50258667" lon="13.48621833"><ele>772.0</ele><time>2015-11-29T12:29:55.679Z</time></trkpt><trkpt lat="46.50256167" lon="13.48621333"><ele>772.0</ele><time>2015-11-29T12:29:56.694Z</time></trkpt><trkpt lat="46.50256167" lon="13.48621333"><ele>772.0</ele><time>2015-11-29T12:29:57.681Z</time></trkpt><trkpt lat="46.50254167" lon="13.48621"><ele>773.0</ele><time>2015-11-29T12:29:58.694Z</time></trkpt><trkpt lat="46.50254167" lon="13.48621"><ele>773.0</ele><time>2015-11-29T12:29:59.678Z</time></trkpt><trkpt lat="46.50251667" lon="13.486215"><ele>773.0</ele><time>2015-11-29T12:30:00.692Z</time></trkpt><trkpt lat="46.50251667" lon="13.486215"><ele>773.0</ele><time>2015-11-29T12:30:01.681Z</time></trkpt><trkpt lat="46.50249333" lon="13.48622833"><ele>773.0</ele><time>2015-11-29T12:30:02.694Z</time></trkpt><trkpt lat="46.50249333" lon="13.48622833"><ele>773.0</ele><time>2015-11-29T12:30:03.680Z</time></trkpt><trkpt lat="46.50246333" lon="13.48623167"><ele>773.0</ele><time>2015-11-29T12:30:04.694Z</time></trkpt><trkpt lat="46.50246333" lon="13.48623167"><ele>773.0</ele><time>2015-11-29T12:30:05.676Z</time></trkpt><trkpt lat="46.50242333" lon="13.48623833"><ele>773.0</ele><time>2015-11-29T12:30:06.694Z</time></trkpt><trkpt lat="46.50240667" lon="13.48624"><ele>773.0</ele><time>2015-11-29T12:30:07.686Z</time></trkpt><trkpt lat="46.502395" lon="13.48624167"><ele>773.0</ele><time>2015-11-29T12:30:08.697Z</time></trkpt><trkpt lat="46.502395" lon="13.48624167"><ele>773.0</ele><time>2015-11-29T12:30:09.681Z</time></trkpt><trkpt lat="46.50237" lon="13.48624"><ele>774.0</ele><time>2015-11-29T12:30:10.694Z</time></trkpt><trkpt lat="46.50237" lon="13.48624"><ele>774.0</ele><time>2015-11-29T12:30:11.675Z</time></trkpt><trkpt lat="46.50234333" lon="13.486245"><ele>774.0</ele><time>2015-11-29T12:30:12.697Z</time></trkpt><trkpt lat="46.50234333" lon="13.486245"><ele>774.0</ele><time>2015-11-29T12:30:13.681Z</time></trkpt><trkpt lat="46.502315" lon="13.48624167"><ele>774.0</ele><time>2015-11-29T12:30:14.694Z</time></trkpt><trkpt lat="46.502315" lon="13.48624167"><ele>774.0</ele><time>2015-11-29T12:30:15.678Z</time></trkpt><trkpt lat="46.50228833" lon="13.486255"><ele>774.0</ele><time>2015-11-29T12:30:16.694Z</time></trkpt><trkpt lat="46.50228833" lon="13.486255"><ele>774.0</ele><time>2015-11-29T12:30:17.680Z</time></trkpt><trkpt lat="46.50225833" lon="13.48626"><ele>775.0</ele><time>2015-11-29T12:30:18.692Z</time></trkpt><trkpt lat="46.50225833" lon="13.48626"><ele>775.0</ele><time>2015-11-29T12:30:19.693Z</time></trkpt><trkpt lat="46.502225" lon="13.48622833"><ele>775.0</ele><time>2015-11-29T12:30:20.686Z</time></trkpt><trkpt lat="46.502225" lon="13.48622833"><ele>775.0</ele><time>2015-11-29T12:30:21.698Z</time></trkpt><trkpt lat="46.50220333" lon="13.48622667"><ele>775.0</ele><time>2015-11-29T12:30:22.688Z</time></trkpt><trkpt lat="46.50220333" lon="13.48622667"><ele>775.0</ele><time>2015-11-29T12:30:23.704Z</time></trkpt><trkpt lat="46.50217333" lon="13.48622167"><ele>775.0</ele><time>2015-11-29T12:30:24.689Z</time></trkpt><trkpt lat="46.50217333" lon="13.48622167"><ele>775.0</ele><time>2015-11-29T12:30:25.702Z</time></trkpt><trkpt lat="46.50214" lon="13.48622"><ele>775.0</ele><time>2015-11-29T12:30:26.693Z</time></trkpt><trkpt lat="46.50214" lon="13.48622"><ele>775.0</ele><time>2015-11-29T12:30:27.676Z</time></trkpt><trkpt lat="46.50211167" lon="13.48620167"><ele>775.0</ele><time>2015-11-29T12:30:28.698Z</time></trkpt><trkpt lat="46.50211167" lon="13.48620167"><ele>775.0</ele><time>2015-11-29T12:30:29.683Z</time></trkpt><trkpt lat="46.50208667" lon="13.486185"><ele>775.0</ele><time>2015-11-29T12:30:30.695Z</time></trkpt><trkpt lat="46.50208667" lon="13.486185"><ele>775.0</ele><time>2015-11-29T12:30:31.677Z</time></trkpt><trkpt lat="46.50206333" lon="13.48618167"><ele>775.0</ele><time>2015-11-29T12:30:32.683Z</time></trkpt><trkpt lat="46.50206333" lon="13.48618167"><ele>775.0</ele><time>2015-11-29T12:30:33.688Z</time></trkpt><trkpt lat="46.50204667" lon="13.48618833"><ele>775.0</ele><time>2015-11-29T12:30:34.694Z</time></trkpt><trkpt lat="46.50204667" lon="13.48618833"><ele>775.0</ele><time>2015-11-29T12:30:35.698Z</time></trkpt><trkpt lat="46.50202333" lon="13.486195"><ele>775.0</ele><time>2015-11-29T12:30:36.703Z</time></trkpt><trkpt lat="46.50202333" lon="13.486195"><ele>775.0</ele><time>2015-11-29T12:30:37.671Z</time></trkpt><trkpt lat="46.50200333" lon="13.48619333"><ele>775.0</ele><time>2015-11-29T12:30:38.678Z</time></trkpt><trkpt lat="46.50198833" lon="13.48619"><ele>775.0</ele><time>2015-11-29T12:30:39.691Z</time></trkpt><trkpt lat="46.50197333" lon="13.48618667"><ele>775.0</ele><time>2015-11-29T12:30:40.684Z</time></trkpt><trkpt lat="46.50197333" lon="13.48618667"><ele>775.0</ele><time>2015-11-29T12:30:41.695Z</time></trkpt><trkpt lat="46.50194833" lon="13.486185"><ele>776.0</ele><time>2015-11-29T12:30:42.685Z</time></trkpt><trkpt lat="46.50194833" lon="13.486185"><ele>776.0</ele><time>2015-11-29T12:30:43.698Z</time></trkpt><trkpt lat="46.50193" lon="13.486175"><ele>776.0</ele><time>2015-11-29T12:30:44.682Z</time></trkpt><trkpt lat="46.50193" lon="13.486175"><ele>776.0</ele><time>2015-11-29T12:30:45.694Z</time></trkpt><trkpt lat="46.50191167" lon="13.48617"><ele>776.0</ele><time>2015-11-29T12:30:46.682Z</time></trkpt><trkpt lat="46.50189833" lon="13.48615833"><ele>776.0</ele><time>2015-11-29T12:30:47.699Z</time></trkpt><trkpt lat="46.50189833" lon="13.48615833"><ele>776.0</ele><time>2015-11-29T12:30:48.667Z</time></trkpt><trkpt lat="46.50187833" lon="13.48615"><ele>776.0</ele><time>2015-11-29T12:30:49.685Z</time></trkpt><trkpt lat="46.501865" lon="13.48614"><ele>776.0</ele><time>2015-11-29T12:30:50.699Z</time></trkpt><trkpt lat="46.501865" lon="13.48614"><ele>776.0</ele><time>2015-11-29T12:30:51.683Z</time></trkpt><trkpt lat="46.50183833" lon="13.486125"><ele>776.0</ele><time>2015-11-29T12:30:52.693Z</time></trkpt><trkpt lat="46.50183833" lon="13.486125"><ele>776.0</ele><time>2015-11-29T12:30:53.679Z</time></trkpt><trkpt lat="46.50181833" lon="13.48612667"><ele>776.0</ele><time>2015-11-29T12:30:54.692Z</time></trkpt><trkpt lat="46.50181833" lon="13.48612667"><ele>776.0</ele><time>2015-11-29T12:30:55.679Z</time></trkpt><trkpt lat="46.50179667" lon="13.48612"><ele>776.0</ele><time>2015-11-29T12:30:56.694Z</time></trkpt><trkpt lat="46.50179667" lon="13.48612"><ele>776.0</ele><time>2015-11-29T12:30:57.679Z</time></trkpt><trkpt lat="46.501775" lon="13.486115"><ele>776.0</ele><time>2015-11-29T12:30:58.693Z</time></trkpt><trkpt lat="46.50176333" lon="13.48611167"><ele>776.0</ele><time>2015-11-29T12:30:59.680Z</time></trkpt><trkpt lat="46.50176333" lon="13.48611167"><ele>776.0</ele><time>2015-11-29T12:31:00.700Z</time></trkpt><trkpt lat="46.50173833" lon="13.48609667"><ele>777.0</ele><time>2015-11-29T12:31:01.685Z</time></trkpt><trkpt lat="46.50173" lon="13.48608833"><ele>777.0</ele><time>2015-11-29T12:31:02.697Z</time></trkpt><trkpt lat="46.50173" lon="13.48608833"><ele>777.0</ele><time>2015-11-29T12:31:03.683Z</time></trkpt><trkpt lat="46.50171167" lon="13.48607"><ele>777.0</ele><time>2015-11-29T12:31:04.697Z</time></trkpt><trkpt lat="46.50171167" lon="13.48607"><ele>777.0</ele><time>2015-11-29T12:31:05.679Z</time></trkpt><trkpt lat="46.501695" lon="13.48605167"><ele>777.0</ele><time>2015-11-29T12:31:06.694Z</time></trkpt><trkpt lat="46.501695" lon="13.48605167"><ele>777.0</ele><time>2015-11-29T12:31:07.675Z</time></trkpt><trkpt lat="46.50166833" lon="13.486025"><ele>777.0</ele><time>2015-11-29T12:31:08.697Z</time></trkpt><trkpt lat="46.50166833" lon="13.486025"><ele>777.0</ele><time>2015-11-29T12:31:09.675Z</time></trkpt><trkpt lat="46.50164" lon="13.48601"><ele>777.0</ele><time>2015-11-29T12:31:10.688Z</time></trkpt><trkpt lat="46.50164" lon="13.48601"><ele>777.0</ele><time>2015-11-29T12:31:11.701Z</time></trkpt><trkpt lat="46.50161333" lon="13.486005"><ele>777.0</ele><time>2015-11-29T12:31:12.690Z</time></trkpt><trkpt lat="46.5016" lon="13.48599667"><ele>777.0</ele><time>2015-11-29T12:31:13.702Z</time></trkpt><trkpt lat="46.50159833" lon="13.48599167"><ele>777.0</ele><time>2015-11-29T12:31:14.685Z</time></trkpt><trkpt lat="46.50159833" lon="13.48599167"><ele>777.0</ele><time>2015-11-29T12:31:15.697Z</time></trkpt><trkpt lat="46.50158333" lon="13.485975"><ele>778.0</ele><time>2015-11-29T12:31:16.679Z</time></trkpt><trkpt lat="46.50158333" lon="13.485975"><ele>778.0</ele><time>2015-11-29T12:31:17.692Z</time></trkpt><trkpt lat="46.50156" lon="13.48595833"><ele>778.0</ele><time>2015-11-29T12:31:18.682Z</time></trkpt><trkpt lat="46.50156" lon="13.48595833"><ele>778.0</ele><time>2015-11-29T12:31:19.695Z</time></trkpt><trkpt lat="46.501535" lon="13.485955"><ele>778.0</ele><time>2015-11-29T12:31:20.688Z</time></trkpt><trkpt lat="46.501535" lon="13.485955"><ele>778.0</ele><time>2015-11-29T12:31:21.699Z</time></trkpt><trkpt lat="46.50151167" lon="13.48593667"><ele>778.0</ele><time>2015-11-29T12:31:22.674Z</time></trkpt><trkpt lat="46.50150833" lon="13.48592333"><ele>778.0</ele><time>2015-11-29T12:31:23.687Z</time></trkpt><trkpt lat="46.50150167" lon="13.485905"><ele>778.0</ele><time>2015-11-29T12:31:24.699Z</time></trkpt><trkpt lat="46.50150167" lon="13.485905"><ele>778.0</ele><time>2015-11-29T12:31:25.683Z</time></trkpt><trkpt lat="46.501485" lon="13.48587667"><ele>778.0</ele><time>2015-11-29T12:31:26.695Z</time></trkpt><trkpt lat="46.501485" lon="13.48587667"><ele>778.0</ele><time>2015-11-29T12:31:27.685Z</time></trkpt><trkpt lat="46.50148833" lon="13.48584"><ele>778.0</ele><time>2015-11-29T12:31:28.698Z</time></trkpt><trkpt lat="46.50148833" lon="13.48584"><ele>778.0</ele><time>2015-11-29T12:31:29.683Z</time></trkpt><trkpt lat="46.50148333" lon="13.48581"><ele>778.0</ele><time>2015-11-29T12:31:30.695Z</time></trkpt><trkpt lat="46.50148333" lon="13.48581"><ele>778.0</ele><time>2015-11-29T12:31:31.677Z</time></trkpt><trkpt lat="46.501475" lon="13.48577833"><ele>778.0</ele><time>2015-11-29T12:31:32.693Z</time></trkpt><trkpt lat="46.501475" lon="13.48577833"><ele>778.0</ele><time>2015-11-29T12:31:33.681Z</time></trkpt><trkpt lat="46.50145333" lon="13.48576167"><ele>779.0</ele><time>2015-11-29T12:31:34.694Z</time></trkpt><trkpt lat="46.50145333" lon="13.48576167"><ele>779.0</ele><time>2015-11-29T12:31:35.677Z</time></trkpt><trkpt lat="46.50143167" lon="13.48574333"><ele>779.0</ele><time>2015-11-29T12:31:36.695Z</time></trkpt><trkpt lat="46.50143167" lon="13.48574333"><ele>779.0</ele><time>2015-11-29T12:31:37.681Z</time></trkpt><trkpt lat="46.50142333" lon="13.48571333"><ele>779.0</ele><time>2015-11-29T12:31:38.697Z</time></trkpt><trkpt lat="46.50142333" lon="13.48571333"><ele>779.0</ele><time>2015-11-29T12:31:39.675Z</time></trkpt><trkpt lat="46.501415" lon="13.485685"><ele>779.0</ele><time>2015-11-29T12:31:40.697Z</time></trkpt><trkpt lat="46.501415" lon="13.485685"><ele>779.0</ele><time>2015-11-29T12:31:41.677Z</time></trkpt><trkpt lat="46.50140167" lon="13.48564333"><ele>779.0</ele><time>2015-11-29T12:31:42.690Z</time></trkpt><trkpt lat="46.50140167" lon="13.48564333"><ele>779.0</ele><time>2015-11-29T12:31:43.702Z</time></trkpt><trkpt lat="46.50139333" lon="13.48560833"><ele>779.0</ele><time>2015-11-29T12:31:44.684Z</time></trkpt><trkpt lat="46.50139333" lon="13.48560833"><ele>779.0</ele><time>2015-11-29T12:31:45.695Z</time></trkpt><trkpt lat="46.501385" lon="13.48557"><ele>779.0</ele><time>2015-11-29T12:31:46.681Z</time></trkpt><trkpt lat="46.50138833" lon="13.485555"><ele>779.0</ele><time>2015-11-29T12:31:47.696Z</time></trkpt><trkpt lat="46.501395" lon="13.48553667"><ele>779.0</ele><time>2015-11-29T12:31:48.688Z</time></trkpt><trkpt lat="46.501395" lon="13.48553667"><ele>779.0</ele><time>2015-11-29T12:31:49.700Z</time></trkpt><trkpt lat="46.50140333" lon="13.48550167"><ele>779.0</ele><time>2015-11-29T12:31:50.688Z</time></trkpt><trkpt lat="46.50140333" lon="13.48550167"><ele>779.0</ele><time>2015-11-29T12:31:51.701Z</time></trkpt><trkpt lat="46.501415" lon="13.48549167"><ele>779.0</ele><time>2015-11-29T12:31:52.689Z</time></trkpt><trkpt lat="46.501415" lon="13.48549167"><ele>779.0</ele><time>2015-11-29T12:31:53.701Z</time></trkpt><trkpt lat="46.50143167" lon="13.48548"><ele>778.0</ele><time>2015-11-29T12:31:54.686Z</time></trkpt><trkpt lat="46.50144167" lon="13.48546667"><ele>778.0</ele><time>2015-11-29T12:31:55.698Z</time></trkpt><trkpt lat="46.50145" lon="13.485455"><ele>778.0</ele><time>2015-11-29T12:31:56.675Z</time></trkpt><trkpt lat="46.50145" lon="13.485455"><ele>778.0</ele><time>2015-11-29T12:31:57.697Z</time></trkpt><trkpt lat="46.501465" lon="13.48542833"><ele>778.0</ele><time>2015-11-29T12:31:58.686Z</time></trkpt><trkpt lat="46.501465" lon="13.48542833"><ele>778.0</ele><time>2015-11-29T12:31:59.698Z</time></trkpt><trkpt lat="46.50148333" lon="13.48540333"><ele>778.0</ele><time>2015-11-29T12:32:00.665Z</time></trkpt><trkpt lat="46.501495" lon="13.48539"><ele>778.0</ele><time>2015-11-29T12:32:01.687Z</time></trkpt><trkpt lat="46.501495" lon="13.48539"><ele>778.0</ele><time>2015-11-29T12:32:02.699Z</time></trkpt><trkpt lat="46.50151667" lon="13.48536667"><ele>778.0</ele><time>2015-11-29T12:32:03.685Z</time></trkpt><trkpt lat="46.50151667" lon="13.48536667"><ele>778.0</ele><time>2015-11-29T12:32:04.697Z</time></trkpt><trkpt lat="46.50153333" lon="13.48536167"><ele>778.0</ele><time>2015-11-29T12:32:05.686Z</time></trkpt><trkpt lat="46.50153333" lon="13.48536167"><ele>778.0</ele><time>2015-11-29T12:32:06.699Z</time></trkpt><trkpt lat="46.50152667" lon="13.485335"><ele>777.0</ele><time>2015-11-29T12:32:07.686Z</time></trkpt><trkpt lat="46.50153333" lon="13.48532333"><ele>777.0</ele><time>2015-11-29T12:32:08.698Z</time></trkpt><trkpt lat="46.50153333" lon="13.48532333"><ele>777.0</ele><time>2015-11-29T12:32:09.679Z</time></trkpt><trkpt lat="46.50154833" lon="13.48530167"><ele>777.0</ele><time>2015-11-29T12:32:10.692Z</time></trkpt><trkpt lat="46.50154833" lon="13.48530167"><ele>777.0</ele><time>2015-11-29T12:32:11.681Z</time></trkpt><trkpt lat="46.50156667" lon="13.48527167"><ele>777.0</ele><time>2015-11-29T12:32:12.705Z</time></trkpt><trkpt lat="46.50156667" lon="13.48527167"><ele>777.0</ele><time>2015-11-29T12:32:13.683Z</time></trkpt><trkpt lat="46.501585" lon="13.48527167"><ele>776.0</ele><time>2015-11-29T12:32:14.697Z</time></trkpt><trkpt lat="46.501585" lon="13.48527167"><ele>776.0</ele><time>2015-11-29T12:32:15.682Z</time></trkpt><trkpt lat="46.50159833" lon="13.48526"><ele>776.0</ele><time>2015-11-29T12:32:16.695Z</time></trkpt><trkpt lat="46.50159833" lon="13.48526"><ele>776.0</ele><time>2015-11-29T12:32:17.676Z</time></trkpt><trkpt lat="46.50160833" lon="13.48523167"><ele>776.0</ele><time>2015-11-29T12:32:18.698Z</time></trkpt><trkpt lat="46.50160833" lon="13.48523167"><ele>776.0</ele><time>2015-11-29T12:32:19.683Z</time></trkpt><trkpt lat="46.50161667" lon="13.48518"><ele>775.0</ele><time>2015-11-29T12:32:20.695Z</time></trkpt><trkpt lat="46.50161667" lon="13.48518"><ele>775.0</ele><time>2015-11-29T12:32:21.678Z</time></trkpt><trkpt lat="46.501625" lon="13.485135"><ele>775.0</ele><time>2015-11-29T12:32:22.692Z</time></trkpt><trkpt lat="46.501625" lon="13.485135"><ele>775.0</ele><time>2015-11-29T12:32:23.684Z</time></trkpt><trkpt lat="46.50162667" lon="13.48510667"><ele>775.0</ele><time>2015-11-29T12:32:24.697Z</time></trkpt><trkpt lat="46.50162667" lon="13.48510667"><ele>775.0</ele><time>2015-11-29T12:32:25.675Z</time></trkpt><trkpt lat="46.50162333" lon="13.48507167"><ele>775.0</ele><time>2015-11-29T12:32:26.687Z</time></trkpt><trkpt lat="46.50162333" lon="13.48507167"><ele>775.0</ele><time>2015-11-29T12:32:27.692Z</time></trkpt><trkpt lat="46.50163" lon="13.48506167"><ele>774.0</ele><time>2015-11-29T12:32:28.698Z</time></trkpt><trkpt lat="46.50163667" lon="13.48504667"><ele>774.0</ele><time>2015-11-29T12:32:29.704Z</time></trkpt><trkpt lat="46.50163667" lon="13.48504667"><ele>774.0</ele><time>2015-11-29T12:32:30.671Z</time></trkpt><trkpt lat="46.50163833" lon="13.48501"><ele>774.0</ele><time>2015-11-29T12:32:31.677Z</time></trkpt><trkpt lat="46.50163667" lon="13.48499333"><ele>773.0</ele><time>2015-11-29T12:32:32.686Z</time></trkpt><trkpt lat="46.50163667" lon="13.48499333"><ele>773.0</ele><time>2015-11-29T12:32:33.692Z</time></trkpt><trkpt lat="46.501635" lon="13.48497667"><ele>773.0</ele><time>2015-11-29T12:32:34.677Z</time></trkpt><trkpt lat="46.501635" lon="13.48496667"><ele>773.0</ele><time>2015-11-29T12:32:35.677Z</time></trkpt><trkpt lat="46.501635" lon="13.48496667"><ele>773.0</ele><time>2015-11-29T12:32:36.699Z</time></trkpt><trkpt lat="46.50163333" lon="13.48493667"><ele>773.0</ele><time>2015-11-29T12:32:37.680Z</time></trkpt><trkpt lat="46.50163333" lon="13.48493667"><ele>773.0</ele><time>2015-11-29T12:32:38.696Z</time></trkpt><trkpt lat="46.501625" lon="13.48494333"><ele>772.0</ele><time>2015-11-29T12:32:39.694Z</time></trkpt><trkpt lat="46.501625" lon="13.48494333"><ele>772.0</ele><time>2015-11-29T12:32:40.667Z</time></trkpt><trkpt lat="46.501625" lon="13.48491667"><ele>772.0</ele><time>2015-11-29T12:32:41.680Z</time></trkpt><trkpt lat="46.501625" lon="13.48491667"><ele>772.0</ele><time>2015-11-29T12:32:42.685Z</time></trkpt><trkpt lat="46.50161333" lon="13.48488333"><ele>772.0</ele><time>2015-11-29T12:32:43.691Z</time></trkpt><trkpt lat="46.501605" lon="13.48487167"><ele>772.0</ele><time>2015-11-29T12:32:44.696Z</time></trkpt><trkpt lat="46.501605" lon="13.48487167"><ele>772.0</ele><time>2015-11-29T12:32:45.702Z</time></trkpt><trkpt lat="46.50158833" lon="13.48485"><ele>772.0</ele><time>2015-11-29T12:32:46.688Z</time></trkpt><trkpt lat="46.50157833" lon="13.48484"><ele>772.0</ele><time>2015-11-29T12:32:47.693Z</time></trkpt><trkpt lat="46.50157833" lon="13.48484"><ele>772.0</ele><time>2015-11-29T12:32:48.679Z</time></trkpt><trkpt lat="46.501555" lon="13.484825"><ele>772.0</ele><time>2015-11-29T12:32:49.692Z</time></trkpt><trkpt lat="46.50153833" lon="13.484805"><ele>772.0</ele><time>2015-11-29T12:32:50.704Z</time></trkpt><trkpt lat="46.50153833" lon="13.484805"><ele>772.0</ele><time>2015-11-29T12:32:51.672Z</time></trkpt><trkpt lat="46.50151667" lon="13.48477333"><ele>772.0</ele><time>2015-11-29T12:32:52.679Z</time></trkpt><trkpt lat="46.50151667" lon="13.48477333"><ele>772.0</ele><time>2015-11-29T12:32:53.683Z</time></trkpt><trkpt lat="46.501505" lon="13.48474333"><ele>772.0</ele><time>2015-11-29T12:32:54.688Z</time></trkpt><trkpt lat="46.50149667" lon="13.484735"><ele>772.0</ele><time>2015-11-29T12:32:55.700Z</time></trkpt><trkpt lat="46.501475" lon="13.48472667"><ele>772.0</ele><time>2015-11-29T12:32:56.685Z</time></trkpt><trkpt lat="46.50146333" lon="13.48472"><ele>772.0</ele><time>2015-11-29T12:32:57.667Z</time></trkpt><trkpt lat="46.50146333" lon="13.48472"><ele>772.0</ele><time>2015-11-29T12:32:58.675Z</time></trkpt><trkpt lat="46.50144" lon="13.48471"><ele>772.0</ele><time>2015-11-29T12:32:59.680Z</time></trkpt><trkpt lat="46.50144" lon="13.48471"><ele>772.0</ele><time>2015-11-29T12:33:00.685Z</time></trkpt><trkpt lat="46.50141333" lon="13.48470667"><ele>772.0</ele><time>2015-11-29T12:33:01.697Z</time></trkpt><trkpt lat="46.50140333" lon="13.48471"><ele>772.0</ele><time>2015-11-29T12:33:02.685Z</time></trkpt><trkpt lat="46.50140333" lon="13.48471"><ele>772.0</ele><time>2015-11-29T12:33:03.696Z</time></trkpt><trkpt lat="46.50137333" lon="13.48470167"><ele>772.0</ele><time>2015-11-29T12:33:04.686Z</time></trkpt><trkpt lat="46.50136667" lon="13.48469667"><ele>772.0</ele><time>2015-11-29T12:33:05.703Z</time></trkpt><trkpt lat="46.50136667" lon="13.48469667"><ele>772.0</ele><time>2015-11-29T12:33:06.685Z</time></trkpt><trkpt lat="46.50134333" lon="13.48469833"><ele>772.0</ele><time>2015-11-29T12:33:07.687Z</time></trkpt><trkpt lat="46.50134333" lon="13.48469833"><ele>772.0</ele><time>2015-11-29T12:33:08.699Z</time></trkpt><trkpt lat="46.50132" lon="13.48469"><ele>772.0</ele><time>2015-11-29T12:33:09.700Z</time></trkpt><trkpt lat="46.50131167" lon="13.48469"><ele>772.0</ele><time>2015-11-29T12:33:10.688Z</time></trkpt><trkpt lat="46.50131167" lon="13.48469"><ele>772.0</ele><time>2015-11-29T12:33:11.699Z</time></trkpt><trkpt lat="46.501285" lon="13.48470333"><ele>772.0</ele><time>2015-11-29T12:33:12.684Z</time></trkpt><trkpt lat="46.501285" lon="13.48470333"><ele>772.0</ele><time>2015-11-29T12:33:13.698Z</time></trkpt><trkpt lat="46.50124833" lon="13.48471667"><ele>772.0</ele><time>2015-11-29T12:33:14.685Z</time></trkpt><trkpt lat="46.50124833" lon="13.48471667"><ele>772.0</ele><time>2015-11-29T12:33:15.697Z</time></trkpt><trkpt lat="46.50122" lon="13.48472333"><ele>771.0</ele><time>2015-11-29T12:33:16.680Z</time></trkpt><trkpt lat="46.50122" lon="13.48472333"><ele>771.0</ele><time>2015-11-29T12:33:17.693Z</time></trkpt><trkpt lat="46.50120333" lon="13.48472333"><ele>771.0</ele><time>2015-11-29T12:33:18.686Z</time></trkpt><trkpt lat="46.50120333" lon="13.48472333"><ele>771.0</ele><time>2015-11-29T12:33:19.670Z</time></trkpt><trkpt lat="46.50118" lon="13.48472667"><ele>771.0</ele><time>2015-11-29T12:33:20.686Z</time></trkpt><trkpt lat="46.50118" lon="13.48472667"><ele>771.0</ele><time>2015-11-29T12:33:21.699Z</time></trkpt><trkpt lat="46.50115833" lon="13.48472167"><ele>771.0</ele><time>2015-11-29T12:33:22.687Z</time></trkpt><trkpt lat="46.50115833" lon="13.48472167"><ele>771.0</ele><time>2015-11-29T12:33:23.699Z</time></trkpt><trkpt lat="46.50114" lon="13.48471667"><ele>771.0</ele><time>2015-11-29T12:33:24.687Z</time></trkpt><trkpt lat="46.50114" lon="13.48471333"><ele>771.0</ele><time>2015-11-29T12:33:25.704Z</time></trkpt><trkpt lat="46.50114" lon="13.48471333"><ele>771.0</ele><time>2015-11-29T12:33:26.694Z</time></trkpt><trkpt lat="46.50112667" lon="13.48471"><ele>771.0</ele><time>2015-11-29T12:33:27.687Z</time></trkpt><trkpt lat="46.501115" lon="13.48470833"><ele>770.0</ele><time>2015-11-29T12:33:28.700Z</time></trkpt><trkpt lat="46.50109667" lon="13.484705"><ele>770.0</ele><time>2015-11-29T12:33:29.688Z</time></trkpt><trkpt lat="46.50109667" lon="13.484705"><ele>770.0</ele><time>2015-11-29T12:33:30.700Z</time></trkpt><trkpt lat="46.50108833" lon="13.4847"><ele>770.0</ele><time>2015-11-29T12:33:31.689Z</time></trkpt><trkpt lat="46.50108833" lon="13.4847"><ele>770.0</ele><time>2015-11-29T12:33:32.701Z</time></trkpt><trkpt lat="46.501065" lon="13.48469333"><ele>770.0</ele><time>2015-11-29T12:33:33.680Z</time></trkpt><trkpt lat="46.50104833" lon="13.48469333"><ele>769.0</ele><time>2015-11-29T12:33:34.695Z</time></trkpt><trkpt lat="46.50104833" lon="13.48469333"><ele>769.0</ele><time>2015-11-29T12:33:35.683Z</time></trkpt><trkpt lat="46.50102" lon="13.4847"><ele>769.0</ele><time>2015-11-29T12:33:36.665Z</time></trkpt><trkpt lat="46.50102" lon="13.4847"><ele>769.0</ele><time>2015-11-29T12:33:37.680Z</time></trkpt><trkpt lat="46.50099167" lon="13.48471"><ele>769.0</ele><time>2015-11-29T12:33:38.692Z</time></trkpt><trkpt lat="46.50099167" lon="13.48471"><ele>769.0</ele><time>2015-11-29T12:33:39.685Z</time></trkpt><trkpt lat="46.50094333" lon="13.48473"><ele>768.0</ele><time>2015-11-29T12:33:40.696Z</time></trkpt><trkpt lat="46.500925" lon="13.48473833"><ele>768.0</ele><time>2015-11-29T12:33:41.688Z</time></trkpt><trkpt lat="46.50090667" lon="13.48474833"><ele>768.0</ele><time>2015-11-29T12:33:42.699Z</time></trkpt><trkpt lat="46.50090667" lon="13.48474833"><ele>768.0</ele><time>2015-11-29T12:33:43.666Z</time></trkpt><trkpt lat="46.50087333" lon="13.48476667"><ele>768.0</ele><time>2015-11-29T12:33:44.691Z</time></trkpt><trkpt lat="46.50087333" lon="13.48476667"><ele>768.0</ele><time>2015-11-29T12:33:45.704Z</time></trkpt><trkpt lat="46.50085333" lon="13.48478167"><ele>767.0</ele><time>2015-11-29T12:33:46.685Z</time></trkpt><trkpt lat="46.50084167" lon="13.48478667"><ele>767.0</ele><time>2015-11-29T12:33:47.698Z</time></trkpt><trkpt lat="46.50084167" lon="13.48478667"><ele>767.0</ele><time>2015-11-29T12:33:48.682Z</time></trkpt><trkpt lat="46.50080667" lon="13.484795"><ele>767.0</ele><time>2015-11-29T12:33:49.695Z</time></trkpt><trkpt lat="46.50080667" lon="13.48480333"><ele>766.0</ele><time>2015-11-29T12:33:50.690Z</time></trkpt><trkpt lat="46.500805" lon="13.48480667"><ele>766.0</ele><time>2015-11-29T12:33:51.702Z</time></trkpt><trkpt lat="46.500805" lon="13.48480667"><ele>766.0</ele><time>2015-11-29T12:33:52.678Z</time></trkpt><trkpt lat="46.50079167" lon="13.48480833"><ele>766.0</ele><time>2015-11-29T12:33:53.692Z</time></trkpt><trkpt lat="46.50079167" lon="13.48480833"><ele>766.0</ele><time>2015-11-29T12:33:54.704Z</time></trkpt><trkpt lat="46.500775" lon="13.48483167"><ele>766.0</ele><time>2015-11-29T12:33:55.684Z</time></trkpt><trkpt lat="46.50077" lon="13.48484667"><ele>766.0</ele><time>2015-11-29T12:33:56.696Z</time></trkpt><trkpt lat="46.50077" lon="13.48484667"><ele>766.0</ele><time>2015-11-29T12:33:57.678Z</time></trkpt><trkpt lat="46.50075833" lon="13.48485667"><ele>766.0</ele><time>2015-11-29T12:33:58.690Z</time></trkpt><trkpt lat="46.50075833" lon="13.48485667"><ele>766.0</ele><time>2015-11-29T12:33:59.702Z</time></trkpt><trkpt lat="46.50073833" lon="13.48487333"><ele>765.0</ele><time>2015-11-29T12:34:00.696Z</time></trkpt><trkpt lat="46.50073833" lon="13.48487333"><ele>765.0</ele><time>2015-11-29T12:34:01.684Z</time></trkpt><trkpt lat="46.50071333" lon="13.4849"><ele>765.0</ele><time>2015-11-29T12:34:02.698Z</time></trkpt><trkpt lat="46.50071333" lon="13.4849"><ele>765.0</ele><time>2015-11-29T12:34:03.680Z</time></trkpt><trkpt lat="46.500695" lon="13.48492167"><ele>765.0</ele><time>2015-11-29T12:34:04.694Z</time></trkpt><trkpt lat="46.500695" lon="13.48492167"><ele>765.0</ele><time>2015-11-29T12:34:05.684Z</time></trkpt><trkpt lat="46.500675" lon="13.48493667"><ele>766.0</ele><time>2015-11-29T12:34:06.696Z</time></trkpt><trkpt lat="46.500675" lon="13.48493667"><ele>766.0</ele><time>2015-11-29T12:34:07.683Z</time></trkpt><trkpt lat="46.500655" lon="13.48495333"><ele>766.0</ele><time>2015-11-29T12:34:08.695Z</time></trkpt><trkpt lat="46.500655" lon="13.48495333"><ele>766.0</ele><time>2015-11-29T12:34:09.679Z</time></trkpt><trkpt lat="46.50064333" lon="13.484975"><ele>766.0</ele><time>2015-11-29T12:34:10.691Z</time></trkpt><trkpt lat="46.50064333" lon="13.484975"><ele>766.0</ele><time>2015-11-29T12:34:11.704Z</time></trkpt><trkpt lat="46.50063167" lon="13.48499333"><ele>766.0</ele><time>2015-11-29T12:34:12.665Z</time></trkpt><trkpt lat="46.50063167" lon="13.48499333"><ele>766.0</ele><time>2015-11-29T12:34:13.685Z</time></trkpt><trkpt lat="46.500615" lon="13.485005"><ele>766.0</ele><time>2015-11-29T12:34:14.699Z</time></trkpt><trkpt lat="46.50061" lon="13.485025"><ele>766.0</ele><time>2015-11-29T12:34:15.687Z</time></trkpt><trkpt lat="46.50059833" lon="13.48504333"><ele>766.0</ele><time>2015-11-29T12:34:16.698Z</time></trkpt><trkpt lat="46.50059833" lon="13.48504333"><ele>766.0</ele><time>2015-11-29T12:34:17.685Z</time></trkpt><trkpt lat="46.50057833" lon="13.48508"><ele>766.0</ele><time>2015-11-29T12:34:18.698Z</time></trkpt><trkpt lat="46.50057667" lon="13.48508833"><ele>766.0</ele><time>2015-11-29T12:34:19.676Z</time></trkpt><trkpt lat="46.50057667" lon="13.48508833"><ele>766.0</ele><time>2015-11-29T12:34:20.689Z</time></trkpt><trkpt lat="46.50056667" lon="13.48509833"><ele>766.0</ele><time>2015-11-29T12:34:21.701Z</time></trkpt><trkpt lat="46.50056667" lon="13.48509833"><ele>766.0</ele><time>2015-11-29T12:34:22.679Z</time></trkpt><trkpt lat="46.50054" lon="13.48512333"><ele>766.0</ele><time>2015-11-29T12:34:23.692Z</time></trkpt><trkpt lat="46.50054" lon="13.48512333"><ele>766.0</ele><time>2015-11-29T12:34:24.696Z</time></trkpt><trkpt lat="46.50052167" lon="13.485145"><ele>766.0</ele><time>2015-11-29T12:34:25.701Z</time></trkpt><trkpt lat="46.50050833" lon="13.48514833"><ele>767.0</ele><time>2015-11-29T12:34:26.666Z</time></trkpt><trkpt lat="46.50050833" lon="13.48514833"><ele>767.0</ele><time>2015-11-29T12:34:27.687Z</time></trkpt><trkpt lat="46.50048833" lon="13.485165"><ele>767.0</ele><time>2015-11-29T12:34:28.693Z</time></trkpt><trkpt lat="46.50048833" lon="13.485165"><ele>767.0</ele><time>2015-11-29T12:34:29.698Z</time></trkpt><trkpt lat="46.50047833" lon="13.48518167"><ele>767.0</ele><time>2015-11-29T12:34:30.702Z</time></trkpt><trkpt lat="46.50046667" lon="13.48519167"><ele>767.0</ele><time>2015-11-29T12:34:31.688Z</time></trkpt><trkpt lat="46.50046167" lon="13.48519833"><ele>767.0</ele><time>2015-11-29T12:34:32.700Z</time></trkpt><trkpt lat="46.50046167" lon="13.48519833"><ele>767.0</ele><time>2015-11-29T12:34:33.682Z</time></trkpt><trkpt lat="46.50044667" lon="13.485215"><ele>767.0</ele><time>2015-11-29T12:34:34.695Z</time></trkpt><trkpt lat="46.50044667" lon="13.485215"><ele>767.0</ele><time>2015-11-29T12:34:35.682Z</time></trkpt><trkpt lat="46.50043167" lon="13.48523667"><ele>767.0</ele><time>2015-11-29T12:34:36.695Z</time></trkpt><trkpt lat="46.50043167" lon="13.48523667"><ele>767.0</ele><time>2015-11-29T12:34:37.683Z</time></trkpt><trkpt lat="46.50042167" lon="13.48524167"><ele>767.0</ele><time>2015-11-29T12:34:38.695Z</time></trkpt><trkpt lat="46.50042167" lon="13.48524167"><ele>767.0</ele><time>2015-11-29T12:34:39.682Z</time></trkpt><trkpt lat="46.50041167" lon="13.48525167"><ele>767.0</ele><time>2015-11-29T12:34:40.695Z</time></trkpt><trkpt lat="46.50041167" lon="13.48525167"><ele>767.0</ele><time>2015-11-29T12:34:41.682Z</time></trkpt><trkpt lat="46.50040167" lon="13.48526333"><ele>767.0</ele><time>2015-11-29T12:34:42.695Z</time></trkpt><trkpt lat="46.500395" lon="13.48527667"><ele>767.0</ele><time>2015-11-29T12:34:43.692Z</time></trkpt><trkpt lat="46.500395" lon="13.48527667"><ele>767.0</ele><time>2015-11-29T12:34:44.665Z</time></trkpt><trkpt lat="46.50038" lon="13.485305"><ele>767.0</ele><time>2015-11-29T12:34:45.689Z</time></trkpt><trkpt lat="46.50038" lon="13.485305"><ele>767.0</ele><time>2015-11-29T12:34:46.665Z</time></trkpt><trkpt lat="46.50036167" lon="13.48532167"><ele>766.0</ele><time>2015-11-29T12:34:47.695Z</time></trkpt><trkpt lat="46.50036167" lon="13.48532167"><ele>766.0</ele><time>2015-11-29T12:34:48.685Z</time></trkpt><trkpt lat="46.50034667" lon="13.48534333"><ele>766.0</ele><time>2015-11-29T12:34:49.700Z</time></trkpt><trkpt lat="46.50034667" lon="13.48534333"><ele>766.0</ele><time>2015-11-29T12:34:50.676Z</time></trkpt><trkpt lat="46.50032167" lon="13.48537667"><ele>766.0</ele><time>2015-11-29T12:34:51.689Z</time></trkpt><trkpt lat="46.50031333" lon="13.4854"><ele>767.0</ele><time>2015-11-29T12:34:52.702Z</time></trkpt><trkpt lat="46.50031333" lon="13.4854"><ele>767.0</ele><time>2015-11-29T12:34:53.677Z</time></trkpt><trkpt lat="46.50029167" lon="13.48542333"><ele>767.0</ele><time>2015-11-29T12:34:54.690Z</time></trkpt><trkpt lat="46.50028667" lon="13.48544333"><ele>767.0</ele><time>2015-11-29T12:34:55.702Z</time></trkpt><trkpt lat="46.50028667" lon="13.48544333"><ele>767.0</ele><time>2015-11-29T12:34:56.694Z</time></trkpt><trkpt lat="46.500275" lon="13.485485"><ele>767.0</ele><time>2015-11-29T12:34:57.685Z</time></trkpt><trkpt lat="46.50027333" lon="13.4855"><ele>768.0</ele><time>2015-11-29T12:34:58.698Z</time></trkpt><trkpt lat="46.50027333" lon="13.4855"><ele>768.0</ele><time>2015-11-29T12:34:59.684Z</time></trkpt><trkpt lat="46.500255" lon="13.48552167"><ele>768.0</ele><time>2015-11-29T12:35:00.665Z</time></trkpt><trkpt lat="46.50024333" lon="13.48554167"><ele>768.0</ele><time>2015-11-29T12:35:01.688Z</time></trkpt><trkpt lat="46.50024333" lon="13.48554167"><ele>768.0</ele><time>2015-11-29T12:35:02.701Z</time></trkpt><trkpt lat="46.50022" lon="13.48557"><ele>768.0</ele><time>2015-11-29T12:35:03.685Z</time></trkpt><trkpt lat="46.50022" lon="13.48557"><ele>768.0</ele><time>2015-11-29T12:35:04.704Z</time></trkpt><trkpt lat="46.500205" lon="13.48560167"><ele>768.0</ele><time>2015-11-29T12:35:05.695Z</time></trkpt><trkpt lat="46.500195" lon="13.48561167"><ele>768.0</ele><time>2015-11-29T12:35:06.696Z</time></trkpt><trkpt lat="46.50019" lon="13.48561333"><ele>768.0</ele><time>2015-11-29T12:35:07.701Z</time></trkpt><trkpt lat="46.50019" lon="13.48561333"><ele>768.0</ele><time>2015-11-29T12:35:08.667Z</time></trkpt><trkpt lat="46.500175" lon="13.48562667"><ele>768.0</ele><time>2015-11-29T12:35:09.676Z</time></trkpt><trkpt lat="46.50016333" lon="13.48564"><ele>768.0</ele><time>2015-11-29T12:35:10.682Z</time></trkpt><trkpt lat="46.50016333" lon="13.48564"><ele>768.0</ele><time>2015-11-29T12:35:11.688Z</time></trkpt><trkpt lat="46.50014333" lon="13.48567"><ele>768.0</ele><time>2015-11-29T12:35:12.693Z</time></trkpt><trkpt lat="46.50013667" lon="13.48568667"><ele>768.0</ele><time>2015-11-29T12:35:13.699Z</time></trkpt><trkpt lat="46.50013667" lon="13.48568667"><ele>768.0</ele><time>2015-11-29T12:35:14.704Z</time></trkpt><trkpt lat="46.50012167" lon="13.48571833"><ele>768.0</ele><time>2015-11-29T12:35:15.677Z</time></trkpt><trkpt lat="46.50012167" lon="13.48571833"><ele>768.0</ele><time>2015-11-29T12:35:16.683Z</time></trkpt><trkpt lat="46.50011167" lon="13.48574333"><ele>768.0</ele><time>2015-11-29T12:35:17.696Z</time></trkpt><trkpt lat="46.50010167" lon="13.48575833"><ele>768.0</ele><time>2015-11-29T12:35:18.701Z</time></trkpt><trkpt lat="46.50010167" lon="13.48575833"><ele>768.0</ele><time>2015-11-29T12:35:19.667Z</time></trkpt><trkpt lat="46.50008833" lon="13.48578333"><ele>768.0</ele><time>2015-11-29T12:35:20.673Z</time></trkpt><trkpt lat="46.50008833" lon="13.48578333"><ele>768.0</ele><time>2015-11-29T12:35:21.679Z</time></trkpt><trkpt lat="46.50008333" lon="13.485805"><ele>769.0</ele><time>2015-11-29T12:35:22.684Z</time></trkpt><trkpt lat="46.50008333" lon="13.485805"><ele>769.0</ele><time>2015-11-29T12:35:23.689Z</time></trkpt><trkpt lat="46.50007333" lon="13.48583333"><ele>769.0</ele><time>2015-11-29T12:35:24.694Z</time></trkpt><trkpt lat="46.500065" lon="13.48585"><ele>769.0</ele><time>2015-11-29T12:35:25.699Z</time></trkpt><trkpt lat="46.500065" lon="13.48585"><ele>769.0</ele><time>2015-11-29T12:35:26.681Z</time></trkpt><trkpt lat="46.50004667" lon="13.48587667"><ele>770.0</ele><time>2015-11-29T12:35:27.694Z</time></trkpt><trkpt lat="46.50004" lon="13.48589167"><ele>770.0</ele><time>2015-11-29T12:35:28.682Z</time></trkpt><trkpt lat="46.50004" lon="13.48589167"><ele>770.0</ele><time>2015-11-29T12:35:29.696Z</time></trkpt><trkpt lat="46.500025" lon="13.485925"><ele>771.0</ele><time>2015-11-29T12:35:30.687Z</time></trkpt><trkpt lat="46.500025" lon="13.485925"><ele>771.0</ele><time>2015-11-29T12:35:31.699Z</time></trkpt><trkpt lat="46.50000833" lon="13.48595167"><ele>771.0</ele><time>2015-11-29T12:35:32.682Z</time></trkpt><trkpt lat="46.50000833" lon="13.48595167"><ele>771.0</ele><time>2015-11-29T12:35:33.695Z</time></trkpt><trkpt lat="46.49999333" lon="13.48597833"><ele>771.0</ele><time>2015-11-29T12:35:34.700Z</time></trkpt><trkpt lat="46.49999333" lon="13.48597833"><ele>771.0</ele><time>2015-11-29T12:35:35.665Z</time></trkpt><trkpt lat="46.49997833" lon="13.48601"><ele>772.0</ele><time>2015-11-29T12:35:36.672Z</time></trkpt><trkpt lat="46.49997167" lon="13.48603"><ele>772.0</ele><time>2015-11-29T12:35:37.680Z</time></trkpt><trkpt lat="46.49997167" lon="13.48603"><ele>772.0</ele><time>2015-11-29T12:35:38.685Z</time></trkpt><trkpt lat="46.49994333" lon="13.486075"><ele>772.0</ele><time>2015-11-29T12:35:39.690Z</time></trkpt><trkpt lat="46.49993167" lon="13.48609333"><ele>772.0</ele><time>2015-11-29T12:35:40.696Z</time></trkpt><trkpt lat="46.49993167" lon="13.48609333"><ele>772.0</ele><time>2015-11-29T12:35:41.701Z</time></trkpt><trkpt lat="46.49991333" lon="13.48611333"><ele>772.0</ele><time>2015-11-29T12:35:42.666Z</time></trkpt><trkpt lat="46.49990167" lon="13.48612833"><ele>772.0</ele><time>2015-11-29T12:35:43.671Z</time></trkpt><trkpt lat="46.49990167" lon="13.48612833"><ele>772.0</ele><time>2015-11-29T12:35:44.677Z</time></trkpt><trkpt lat="46.49987833" lon="13.48615833"><ele>772.0</ele><time>2015-11-29T12:35:45.682Z</time></trkpt><trkpt lat="46.49987833" lon="13.48615833"><ele>772.0</ele><time>2015-11-29T12:35:46.695Z</time></trkpt><trkpt lat="46.49986" lon="13.48618667"><ele>772.0</ele><time>2015-11-29T12:35:47.668Z</time></trkpt><trkpt lat="46.49986" lon="13.48618667"><ele>772.0</ele><time>2015-11-29T12:35:48.695Z</time></trkpt><trkpt lat="46.49985" lon="13.486215"><ele>772.0</ele><time>2015-11-29T12:35:49.688Z</time></trkpt><trkpt lat="46.49984667" lon="13.48623"><ele>772.0</ele><time>2015-11-29T12:35:50.701Z</time></trkpt><trkpt lat="46.49984667" lon="13.48623"><ele>772.0</ele><time>2015-11-29T12:35:51.682Z</time></trkpt><trkpt lat="46.49984" lon="13.48626833"><ele>772.0</ele><time>2015-11-29T12:35:52.685Z</time></trkpt><trkpt lat="46.49984" lon="13.48626833"><ele>772.0</ele><time>2015-11-29T12:35:53.697Z</time></trkpt><trkpt lat="46.499835" lon="13.48630167"><ele>772.0</ele><time>2015-11-29T12:35:54.686Z</time></trkpt><trkpt lat="46.499835" lon="13.48630167"><ele>772.0</ele><time>2015-11-29T12:35:55.681Z</time></trkpt><trkpt lat="46.49983833" lon="13.48634167"><ele>772.0</ele><time>2015-11-29T12:35:56.694Z</time></trkpt><trkpt lat="46.49983833" lon="13.48634167"><ele>772.0</ele><time>2015-11-29T12:35:57.693Z</time></trkpt><trkpt lat="46.49983" lon="13.48638333"><ele>772.0</ele><time>2015-11-29T12:35:58.687Z</time></trkpt><trkpt lat="46.49982333" lon="13.48640167"><ele>772.0</ele><time>2015-11-29T12:35:59.700Z</time></trkpt><trkpt lat="46.49982333" lon="13.48640167"><ele>772.0</ele><time>2015-11-29T12:36:00.695Z</time></trkpt><trkpt lat="46.499825" lon="13.48641667"><ele>772.0</ele><time>2015-11-29T12:36:01.686Z</time></trkpt><trkpt lat="46.49982" lon="13.48642833"><ele>772.0</ele><time>2015-11-29T12:36:02.691Z</time></trkpt><trkpt lat="46.49982" lon="13.48642833"><ele>772.0</ele><time>2015-11-29T12:36:03.696Z</time></trkpt><trkpt lat="46.49981833" lon="13.48645667"><ele>772.0</ele><time>2015-11-29T12:36:04.701Z</time></trkpt><trkpt lat="46.49982167" lon="13.486475"><ele>772.0</ele><time>2015-11-29T12:36:05.687Z</time></trkpt><trkpt lat="46.49982167" lon="13.48649667"><ele>772.0</ele><time>2015-11-29T12:36:06.665Z</time></trkpt><trkpt lat="46.49982333" lon="13.486515"><ele>772.0</ele><time>2015-11-29T12:36:07.690Z</time></trkpt><trkpt lat="46.49982333" lon="13.486515"><ele>772.0</ele><time>2015-11-29T12:36:08.701Z</time></trkpt><trkpt lat="46.49982667" lon="13.48653333"><ele>772.0</ele><time>2015-11-29T12:36:09.668Z</time></trkpt><trkpt lat="46.49982833" lon="13.48654667"><ele>772.0</ele><time>2015-11-29T12:36:10.688Z</time></trkpt><trkpt lat="46.49982833" lon="13.48654667"><ele>772.0</ele><time>2015-11-29T12:36:11.700Z</time></trkpt><trkpt lat="46.499825" lon="13.48656667"><ele>773.0</ele><time>2015-11-29T12:36:12.689Z</time></trkpt><trkpt lat="46.49982167" lon="13.48657667"><ele>773.0</ele><time>2015-11-29T12:36:13.701Z</time></trkpt><trkpt lat="46.499815" lon="13.48658333"><ele>773.0</ele><time>2015-11-29T12:36:14.686Z</time></trkpt><trkpt lat="46.499815" lon="13.48658333"><ele>773.0</ele><time>2015-11-29T12:36:15.691Z</time></trkpt><trkpt lat="46.49978833" lon="13.48661333"><ele>773.0</ele><time>2015-11-29T12:36:16.696Z</time></trkpt><trkpt lat="46.49978833" lon="13.48661333"><ele>773.0</ele><time>2015-11-29T12:36:17.700Z</time></trkpt><trkpt lat="46.49976667" lon="13.48663667"><ele>773.0</ele><time>2015-11-29T12:36:18.682Z</time></trkpt><trkpt lat="46.49976667" lon="13.48663667"><ele>773.0</ele><time>2015-11-29T12:36:19.695Z</time></trkpt><trkpt lat="46.499735" lon="13.48665833"><ele>773.0</ele><time>2015-11-29T12:36:20.683Z</time></trkpt><trkpt lat="46.499735" lon="13.48665833"><ele>773.0</ele><time>2015-11-29T12:36:21.697Z</time></trkpt><trkpt lat="46.49970667" lon="13.48667"><ele>773.0</ele><time>2015-11-29T12:36:22.690Z</time></trkpt><trkpt lat="46.49970667" lon="13.48667"><ele>773.0</ele><time>2015-11-29T12:36:23.703Z</time></trkpt><trkpt lat="46.49969333" lon="13.48667833"><ele>774.0</ele><time>2015-11-29T12:36:24.687Z</time></trkpt><trkpt lat="46.49969333" lon="13.48667833"><ele>774.0</ele><time>2015-11-29T12:36:25.700Z</time></trkpt><trkpt lat="46.499665" lon="13.48669333"><ele>774.0</ele><time>2015-11-29T12:36:26.694Z</time></trkpt><trkpt lat="46.499655" lon="13.48669833"><ele>774.0</ele><time>2015-11-29T12:36:27.673Z</time></trkpt><trkpt lat="46.499655" lon="13.48669833"><ele>774.0</ele><time>2015-11-29T12:36:28.688Z</time></trkpt><trkpt lat="46.49963833" lon="13.48671333"><ele>774.0</ele><time>2015-11-29T12:36:29.700Z</time></trkpt><trkpt lat="46.49963833" lon="13.48671333"><ele>774.0</ele><time>2015-11-29T12:36:30.682Z</time></trkpt><trkpt lat="46.49961833" lon="13.48672333"><ele>774.0</ele><time>2015-11-29T12:36:31.695Z</time></trkpt><trkpt lat="46.499605" lon="13.486725"><ele>774.0</ele><time>2015-11-29T12:36:32.692Z</time></trkpt><trkpt lat="46.499605" lon="13.486725"><ele>774.0</ele><time>2015-11-29T12:36:33.704Z</time></trkpt><trkpt lat="46.49958167" lon="13.48672833"><ele>774.0</ele><time>2015-11-29T12:36:34.690Z</time></trkpt><trkpt lat="46.49958167" lon="13.48672833"><ele>774.0</ele><time>2015-11-29T12:36:35.703Z</time></trkpt><trkpt lat="46.499565" lon="13.48673167"><ele>774.0</ele><time>2015-11-29T12:36:36.686Z</time></trkpt><trkpt lat="46.49955167" lon="13.48673167"><ele>774.0</ele><time>2015-11-29T12:36:37.699Z</time></trkpt><trkpt lat="46.49955167" lon="13.48673167"><ele>774.0</ele><time>2015-11-29T12:36:38.688Z</time></trkpt><trkpt lat="46.49953" lon="13.48674"><ele>774.0</ele><time>2015-11-29T12:36:39.670Z</time></trkpt><trkpt lat="46.49952667" lon="13.48674667"><ele>774.0</ele><time>2015-11-29T12:36:40.692Z</time></trkpt><trkpt lat="46.49952667" lon="13.48674667"><ele>774.0</ele><time>2015-11-29T12:36:41.704Z</time></trkpt><trkpt lat="46.49951333" lon="13.48675667"><ele>774.0</ele><time>2015-11-29T12:36:42.669Z</time></trkpt><trkpt lat="46.49950333" lon="13.48676167"><ele>774.0</ele><time>2015-11-29T12:36:43.679Z</time></trkpt><trkpt lat="46.49950333" lon="13.48676167"><ele>774.0</ele><time>2015-11-29T12:36:44.685Z</time></trkpt><trkpt lat="46.49947833" lon="13.48677833"><ele>774.0</ele><time>2015-11-29T12:36:45.689Z</time></trkpt><trkpt lat="46.49946667" lon="13.48678333"><ele>774.0</ele><time>2015-11-29T12:36:46.687Z</time></trkpt><trkpt lat="46.49946667" lon="13.48678333"><ele>774.0</ele><time>2015-11-29T12:36:47.698Z</time></trkpt><trkpt lat="46.49945167" lon="13.48679167"><ele>775.0</ele><time>2015-11-29T12:36:48.704Z</time></trkpt><trkpt lat="46.49944167" lon="13.48680167"><ele>775.0</ele><time>2015-11-29T12:36:49.670Z</time></trkpt><trkpt lat="46.49944167" lon="13.48680167"><ele>775.0</ele><time>2015-11-29T12:36:50.676Z</time></trkpt><trkpt lat="46.499415" lon="13.48683"><ele>775.0</ele><time>2015-11-29T12:36:51.682Z</time></trkpt><trkpt lat="46.499415" lon="13.48683"><ele>775.0</ele><time>2015-11-29T12:36:52.688Z</time></trkpt><trkpt lat="46.4994" lon="13.48685"><ele>775.0</ele><time>2015-11-29T12:36:53.693Z</time></trkpt><trkpt lat="46.4994" lon="13.48685"><ele>775.0</ele><time>2015-11-29T12:36:54.698Z</time></trkpt><trkpt lat="46.49938333" lon="13.48686833"><ele>775.0</ele><time>2015-11-29T12:36:55.703Z</time></trkpt><trkpt lat="46.49938333" lon="13.48686833"><ele>775.0</ele><time>2015-11-29T12:36:56.674Z</time></trkpt><trkpt lat="46.49936833" lon="13.48689667"><ele>775.0</ele><time>2015-11-29T12:36:57.679Z</time></trkpt><trkpt lat="46.499355" lon="13.48690833"><ele>775.0</ele><time>2015-11-29T12:36:58.702Z</time></trkpt><trkpt lat="46.499355" lon="13.48690833"><ele>775.0</ele><time>2015-11-29T12:36:59.669Z</time></trkpt><trkpt lat="46.49934333" lon="13.48692333"><ele>776.0</ele><time>2015-11-29T12:37:00.679Z</time></trkpt><trkpt lat="46.49933333" lon="13.48693"><ele>776.0</ele><time>2015-11-29T12:37:01.684Z</time></trkpt><trkpt lat="46.49932333" lon="13.486935"><ele>776.0</ele><time>2015-11-29T12:37:02.691Z</time></trkpt><trkpt lat="46.49932333" lon="13.486935"><ele>776.0</ele><time>2015-11-29T12:37:03.697Z</time></trkpt><trkpt lat="46.49930667" lon="13.48694167"><ele>776.0</ele><time>2015-11-29T12:37:04.666Z</time></trkpt><trkpt lat="46.49930667" lon="13.48694167"><ele>776.0</ele><time>2015-11-29T12:37:05.680Z</time></trkpt><trkpt lat="46.49929667" lon="13.48695167"><ele>776.0</ele><time>2015-11-29T12:37:06.686Z</time></trkpt><trkpt lat="46.49929667" lon="13.48695167"><ele>776.0</ele><time>2015-11-29T12:37:07.701Z</time></trkpt><trkpt lat="46.49927667" lon="13.48697"><ele>776.0</ele><time>2015-11-29T12:37:08.666Z</time></trkpt><trkpt lat="46.49927667" lon="13.48697"><ele>776.0</ele><time>2015-11-29T12:37:09.679Z</time></trkpt><trkpt lat="46.49926167" lon="13.48699"><ele>776.0</ele><time>2015-11-29T12:37:10.685Z</time></trkpt><trkpt lat="46.49926167" lon="13.48699"><ele>776.0</ele><time>2015-11-29T12:37:11.691Z</time></trkpt><trkpt lat="46.49924167" lon="13.48701167"><ele>777.0</ele><time>2015-11-29T12:37:12.674Z</time></trkpt><trkpt lat="46.49924167" lon="13.48701167"><ele>777.0</ele><time>2015-11-29T12:37:13.690Z</time></trkpt><trkpt lat="46.49922167" lon="13.48703333"><ele>777.0</ele><time>2015-11-29T12:37:14.666Z</time></trkpt><trkpt lat="46.499215" lon="13.48704"><ele>777.0</ele><time>2015-11-29T12:37:15.698Z</time></trkpt><trkpt lat="46.499215" lon="13.48704"><ele>777.0</ele><time>2015-11-29T12:37:16.676Z</time></trkpt><trkpt lat="46.499195" lon="13.487065"><ele>777.0</ele><time>2015-11-29T12:37:17.690Z</time></trkpt><trkpt lat="46.499195" lon="13.487065"><ele>777.0</ele><time>2015-11-29T12:37:18.695Z</time></trkpt><trkpt lat="46.49917167" lon="13.48708833"><ele>777.0</ele><time>2015-11-29T12:37:19.701Z</time></trkpt><trkpt lat="46.49917167" lon="13.48708833"><ele>777.0</ele><time>2015-11-29T12:37:20.667Z</time></trkpt><trkpt lat="46.49915167" lon="13.48710833"><ele>778.0</ele><time>2015-11-29T12:37:21.673Z</time></trkpt><trkpt lat="46.49915167" lon="13.48710833"><ele>778.0</ele><time>2015-11-29T12:37:22.679Z</time></trkpt><trkpt lat="46.49914" lon="13.487125"><ele>778.0</ele><time>2015-11-29T12:37:23.684Z</time></trkpt><trkpt lat="46.49914" lon="13.487125"><ele>778.0</ele><time>2015-11-29T12:37:24.689Z</time></trkpt><trkpt lat="46.49911667" lon="13.48714833"><ele>778.0</ele><time>2015-11-29T12:37:25.694Z</time></trkpt><trkpt lat="46.49910667" lon="13.487155"><ele>778.0</ele><time>2015-11-29T12:37:26.698Z</time></trkpt><trkpt lat="46.49910667" lon="13.487155"><ele>778.0</ele><time>2015-11-29T12:37:27.682Z</time></trkpt><trkpt lat="46.499085" lon="13.48716833"><ele>778.0</ele><time>2015-11-29T12:37:28.695Z</time></trkpt><trkpt lat="46.499075" lon="13.48717333"><ele>778.0</ele><time>2015-11-29T12:37:29.668Z</time></trkpt><trkpt lat="46.499075" lon="13.48717333"><ele>778.0</ele><time>2015-11-29T12:37:30.682Z</time></trkpt><trkpt lat="46.49905333" lon="13.487195"><ele>779.0</ele><time>2015-11-29T12:37:31.695Z</time></trkpt><trkpt lat="46.49904333" lon="13.48720333"><ele>779.0</ele><time>2015-11-29T12:37:32.667Z</time></trkpt><trkpt lat="46.49904333" lon="13.48720333"><ele>779.0</ele><time>2015-11-29T12:37:33.682Z</time></trkpt><trkpt lat="46.49902167" lon="13.48721833"><ele>779.0</ele><time>2015-11-29T12:37:34.697Z</time></trkpt><trkpt lat="46.49902167" lon="13.48721833"><ele>779.0</ele><time>2015-11-29T12:37:35.680Z</time></trkpt><trkpt lat="46.49900167" lon="13.48723667"><ele>779.0</ele><time>2015-11-29T12:37:36.692Z</time></trkpt><trkpt lat="46.49898833" lon="13.48725"><ele>779.0</ele><time>2015-11-29T12:37:37.700Z</time></trkpt><trkpt lat="46.49897667" lon="13.48725833"><ele>779.0</ele><time>2015-11-29T12:37:38.665Z</time></trkpt><trkpt lat="46.49897667" lon="13.48725833"><ele>779.0</ele><time>2015-11-29T12:37:39.677Z</time></trkpt><trkpt lat="46.49895333" lon="13.48727833"><ele>779.0</ele><time>2015-11-29T12:37:40.666Z</time></trkpt><trkpt lat="46.49895333" lon="13.48727833"><ele>779.0</ele><time>2015-11-29T12:37:41.680Z</time></trkpt><trkpt lat="46.49893333" lon="13.48729167"><ele>779.0</ele><time>2015-11-29T12:37:42.685Z</time></trkpt><trkpt lat="46.49893333" lon="13.48729167"><ele>779.0</ele><time>2015-11-29T12:37:43.690Z</time></trkpt><trkpt lat="46.49891167" lon="13.4873"><ele>779.0</ele><time>2015-11-29T12:37:44.697Z</time></trkpt><trkpt lat="46.49891167" lon="13.4873"><ele>779.0</ele><time>2015-11-29T12:37:45.702Z</time></trkpt><trkpt lat="46.49889" lon="13.48731333"><ele>779.0</ele><time>2015-11-29T12:37:46.696Z</time></trkpt><trkpt lat="46.49887667" lon="13.487325"><ele>779.0</ele><time>2015-11-29T12:37:47.701Z</time></trkpt><trkpt lat="46.498865" lon="13.48732667"><ele>779.0</ele><time>2015-11-29T12:37:48.674Z</time></trkpt><trkpt lat="46.498865" lon="13.48732667"><ele>779.0</ele><time>2015-11-29T12:37:49.681Z</time></trkpt><trkpt lat="46.49884" lon="13.48733"><ele>779.0</ele><time>2015-11-29T12:37:50.686Z</time></trkpt><trkpt lat="46.49884" lon="13.48733"><ele>779.0</ele><time>2015-11-29T12:37:51.691Z</time></trkpt><trkpt lat="46.49881667" lon="13.48733833"><ele>778.0</ele><time>2015-11-29T12:37:52.678Z</time></trkpt><trkpt lat="46.49881667" lon="13.48733833"><ele>778.0</ele><time>2015-11-29T12:37:53.684Z</time></trkpt><trkpt lat="46.4988" lon="13.48735167"><ele>778.0</ele><time>2015-11-29T12:37:54.689Z</time></trkpt><trkpt lat="46.4988" lon="13.48735167"><ele>778.0</ele><time>2015-11-29T12:37:55.696Z</time></trkpt><trkpt lat="46.49878167" lon="13.48736333"><ele>778.0</ele><time>2015-11-29T12:37:56.702Z</time></trkpt><trkpt lat="46.49878167" lon="13.48736333"><ele>778.0</ele><time>2015-11-29T12:37:57.667Z</time></trkpt><trkpt lat="46.49876167" lon="13.48738"><ele>778.0</ele><time>2015-11-29T12:37:58.674Z</time></trkpt><trkpt lat="46.49874833" lon="13.48739333"><ele>778.0</ele><time>2015-11-29T12:37:59.680Z</time></trkpt><trkpt lat="46.49874833" lon="13.48739333"><ele>778.0</ele><time>2015-11-29T12:38:00.685Z</time></trkpt><trkpt lat="46.49871833" lon="13.48742"><ele>778.0</ele><time>2015-11-29T12:38:01.691Z</time></trkpt><trkpt lat="46.498705" lon="13.48743"><ele>777.0</ele><time>2015-11-29T12:38:02.697Z</time></trkpt><trkpt lat="46.498705" lon="13.48743"><ele>777.0</ele><time>2015-11-29T12:38:03.704Z</time></trkpt><trkpt lat="46.49867333" lon="13.48743833"><ele>777.0</ele><time>2015-11-29T12:38:04.686Z</time></trkpt><trkpt lat="46.49866167" lon="13.48744167"><ele>777.0</ele><time>2015-11-29T12:38:05.698Z</time></trkpt><trkpt lat="46.49865167" lon="13.48744333"><ele>777.0</ele><time>2015-11-29T12:38:06.682Z</time></trkpt><trkpt lat="46.49864167" lon="13.48744833"><ele>777.0</ele><time>2015-11-29T12:38:07.695Z</time></trkpt><trkpt lat="46.49864167" lon="13.48744833"><ele>777.0</ele><time>2015-11-29T12:38:08.700Z</time></trkpt><trkpt lat="46.49861333" lon="13.48746833"><ele>777.0</ele><time>2015-11-29T12:38:09.665Z</time></trkpt><trkpt lat="46.498595" lon="13.48748167"><ele>777.0</ele><time>2015-11-29T12:38:10.688Z</time></trkpt><trkpt lat="46.498595" lon="13.48748167"><ele>777.0</ele><time>2015-11-29T12:38:11.701Z</time></trkpt><trkpt lat="46.49856833" lon="13.48750167"><ele>776.0</ele><time>2015-11-29T12:38:12.682Z</time></trkpt><trkpt lat="46.49856833" lon="13.48750167"><ele>776.0</ele><time>2015-11-29T12:38:13.695Z</time></trkpt><trkpt lat="46.49855167" lon="13.48751"><ele>776.0</ele><time>2015-11-29T12:38:14.668Z</time></trkpt><trkpt lat="46.49855167" lon="13.48751"><ele>776.0</ele><time>2015-11-29T12:38:15.681Z</time></trkpt><trkpt lat="46.49852667" lon="13.48752333"><ele>776.0</ele><time>2015-11-29T12:38:16.694Z</time></trkpt><trkpt lat="46.49852667" lon="13.48752333"><ele>776.0</ele><time>2015-11-29T12:38:17.680Z</time></trkpt><trkpt lat="46.4985" lon="13.48754333"><ele>776.0</ele><time>2015-11-29T12:38:18.693Z</time></trkpt><trkpt lat="46.4985" lon="13.48754333"><ele>776.0</ele><time>2015-11-29T12:38:19.665Z</time></trkpt><trkpt lat="46.49847833" lon="13.48755833"><ele>776.0</ele><time>2015-11-29T12:38:20.680Z</time></trkpt><trkpt lat="46.49847333" lon="13.48756167"><ele>776.0</ele><time>2015-11-29T12:38:21.685Z</time></trkpt><trkpt lat="46.49847333" lon="13.48756167"><ele>776.0</ele><time>2015-11-29T12:38:22.690Z</time></trkpt><trkpt lat="46.49844667" lon="13.48757667"><ele>776.0</ele><time>2015-11-29T12:38:23.694Z</time></trkpt><trkpt lat="46.49844667" lon="13.48757667"><ele>776.0</ele><time>2015-11-29T12:38:24.699Z</time></trkpt><trkpt lat="46.498415" lon="13.48759167"><ele>776.0</ele><time>2015-11-29T12:38:25.704Z</time></trkpt><trkpt lat="46.498405" lon="13.48759667"><ele>776.0</ele><time>2015-11-29T12:38:26.669Z</time></trkpt><trkpt lat="46.498405" lon="13.48759667"><ele>776.0</ele><time>2015-11-29T12:38:27.677Z</time></trkpt><trkpt lat="46.49838333" lon="13.48762"><ele>775.0</ele><time>2015-11-29T12:38:28.682Z</time></trkpt><trkpt lat="46.49836833" lon="13.48763167"><ele>775.0</ele><time>2015-11-29T12:38:29.700Z</time></trkpt><trkpt lat="46.49836833" lon="13.48763167"><ele>775.0</ele><time>2015-11-29T12:38:30.679Z</time></trkpt><trkpt lat="46.49834333" lon="13.48765"><ele>775.0</ele><time>2015-11-29T12:38:31.693Z</time></trkpt><trkpt lat="46.49834333" lon="13.48765"><ele>775.0</ele><time>2015-11-29T12:38:32.665Z</time></trkpt><trkpt lat="46.498325" lon="13.48766333"><ele>775.0</ele><time>2015-11-29T12:38:33.688Z</time></trkpt><trkpt lat="46.49831333" lon="13.48766833"><ele>775.0</ele><time>2015-11-29T12:38:34.667Z</time></trkpt><trkpt lat="46.49831333" lon="13.48766833"><ele>775.0</ele><time>2015-11-29T12:38:35.672Z</time></trkpt><trkpt lat="46.49828833" lon="13.48767333"><ele>775.0</ele><time>2015-11-29T12:38:36.683Z</time></trkpt><trkpt lat="46.49828833" lon="13.48767333"><ele>775.0</ele><time>2015-11-29T12:38:37.688Z</time></trkpt><trkpt lat="46.49828" lon="13.48769333"><ele>775.0</ele><time>2015-11-29T12:38:38.693Z</time></trkpt><trkpt lat="46.49828" lon="13.48769333"><ele>775.0</ele><time>2015-11-29T12:38:39.698Z</time></trkpt><trkpt lat="46.49826833" lon="13.487705"><ele>775.0</ele><time>2015-11-29T12:38:40.703Z</time></trkpt><trkpt lat="46.49826833" lon="13.487705"><ele>775.0</ele><time>2015-11-29T12:38:41.668Z</time></trkpt><trkpt lat="46.49824" lon="13.48772833"><ele>775.0</ele><time>2015-11-29T12:38:42.675Z</time></trkpt><trkpt lat="46.49824" lon="13.48772833"><ele>775.0</ele><time>2015-11-29T12:38:43.680Z</time></trkpt><trkpt lat="46.49821" lon="13.48774833"><ele>775.0</ele><time>2015-11-29T12:38:44.685Z</time></trkpt><trkpt lat="46.49821" lon="13.48774833"><ele>775.0</ele><time>2015-11-29T12:38:45.691Z</time></trkpt><trkpt lat="46.49819" lon="13.48776833"><ele>775.0</ele><time>2015-11-29T12:38:46.694Z</time></trkpt><trkpt lat="46.49819" lon="13.48776833"><ele>775.0</ele><time>2015-11-29T12:38:47.681Z</time></trkpt><trkpt lat="46.49816833" lon="13.48777833"><ele>775.0</ele><time>2015-11-29T12:38:48.703Z</time></trkpt><trkpt lat="46.498155" lon="13.48778833"><ele>775.0</ele><time>2015-11-29T12:38:49.685Z</time></trkpt><trkpt lat="46.498155" lon="13.48778833"><ele>775.0</ele><time>2015-11-29T12:38:50.691Z</time></trkpt><trkpt lat="46.49813" lon="13.4878"><ele>775.0</ele><time>2015-11-29T12:38:51.696Z</time></trkpt><trkpt lat="46.49813" lon="13.4878"><ele>775.0</ele><time>2015-11-29T12:38:52.702Z</time></trkpt><trkpt lat="46.49811" lon="13.487815"><ele>775.0</ele><time>2015-11-29T12:38:53.667Z</time></trkpt><trkpt lat="46.49809833" lon="13.48782333"><ele>775.0</ele><time>2015-11-29T12:38:54.691Z</time></trkpt><trkpt lat="46.49809833" lon="13.48782333"><ele>775.0</ele><time>2015-11-29T12:38:55.696Z</time></trkpt><trkpt lat="46.49807167" lon="13.48784333"><ele>775.0</ele><time>2015-11-29T12:38:56.700Z</time></trkpt><trkpt lat="46.49806" lon="13.48785333"><ele>775.0</ele><time>2015-11-29T12:38:57.691Z</time></trkpt><trkpt lat="46.49806" lon="13.48785333"><ele>775.0</ele><time>2015-11-29T12:38:58.672Z</time></trkpt><trkpt lat="46.49804833" lon="13.48788167"><ele>775.0</ele><time>2015-11-29T12:38:59.690Z</time></trkpt><trkpt lat="46.49804167" lon="13.48788833"><ele>775.0</ele><time>2015-11-29T12:39:00.696Z</time></trkpt><trkpt lat="46.49804167" lon="13.48788833"><ele>775.0</ele><time>2015-11-29T12:39:01.701Z</time></trkpt><trkpt lat="46.49804333" lon="13.48788667"><ele>775.0</ele><time>2015-11-29T12:39:02.667Z</time></trkpt><trkpt lat="46.49804333" lon="13.48788667"><ele>775.0</ele><time>2015-11-29T12:39:03.673Z</time></trkpt><trkpt lat="46.49804" lon="13.487885"><ele>775.0</ele><time>2015-11-29T12:39:04.683Z</time></trkpt><trkpt lat="46.49804" lon="13.487885"><ele>775.0</ele><time>2015-11-29T12:39:05.688Z</time></trkpt><trkpt lat="46.49804" lon="13.487885"><ele>775.0</ele><time>2015-11-29T12:39:06.692Z</time></trkpt><trkpt lat="46.49804" lon="13.487885"><ele>775.0</ele><time>2015-11-29T12:39:07.697Z</time></trkpt><trkpt lat="46.49804" lon="13.487885"><ele>775.0</ele><time>2015-11-29T12:39:08.673Z</time></trkpt><trkpt lat="46.49804" lon="13.487885"><ele>775.0</ele><time>2015-11-29T12:39:09.698Z</time></trkpt><trkpt lat="46.49804" lon="13.487885"><ele>775.0</ele><time>2015-11-29T12:39:10.704Z</time></trkpt><trkpt lat="46.49804" lon="13.487885"><ele>775.0</ele><time>2015-11-29T12:39:11.669Z</time></trkpt><trkpt lat="46.498015" lon="13.48789"><ele>776.0</ele><time>2015-11-29T12:39:12.676Z</time></trkpt><trkpt lat="46.498015" lon="13.48789"><ele>776.0</ele><time>2015-11-29T12:39:13.682Z</time></trkpt><trkpt lat="46.497995" lon="13.48791"><ele>776.0</ele><time>2015-11-29T12:39:14.687Z</time></trkpt><trkpt lat="46.497995" lon="13.48791"><ele>776.0</ele><time>2015-11-29T12:39:15.692Z</time></trkpt><trkpt lat="46.49797" lon="13.48792333"><ele>776.0</ele><time>2015-11-29T12:39:16.697Z</time></trkpt><trkpt lat="46.49797" lon="13.48792333"><ele>776.0</ele><time>2015-11-29T12:39:17.680Z</time></trkpt><trkpt lat="46.49795" lon="13.487945"><ele>776.0</ele><time>2015-11-29T12:39:18.692Z</time></trkpt><trkpt lat="46.49795" lon="13.487945"><ele>776.0</ele><time>2015-11-29T12:39:19.704Z</time></trkpt><trkpt lat="46.49793167" lon="13.48795667"><ele>776.0</ele><time>2015-11-29T12:39:20.690Z</time></trkpt><trkpt lat="46.49793167" lon="13.48795667"><ele>776.0</ele><time>2015-11-29T12:39:21.665Z</time></trkpt><trkpt lat="46.49791167" lon="13.48796833"><ele>776.0</ele><time>2015-11-29T12:39:22.689Z</time></trkpt><trkpt lat="46.49791167" lon="13.48796833"><ele>776.0</ele><time>2015-11-29T12:39:23.701Z</time></trkpt><trkpt lat="46.49789" lon="13.48798667"><ele>776.0</ele><time>2015-11-29T12:39:24.683Z</time></trkpt><trkpt lat="46.49789" lon="13.48798667"><ele>776.0</ele><time>2015-11-29T12:39:25.688Z</time></trkpt><trkpt lat="46.49786667" lon="13.48800333"><ele>776.0</ele><time>2015-11-29T12:39:26.693Z</time></trkpt><trkpt lat="46.49786667" lon="13.48800333"><ele>776.0</ele><time>2015-11-29T12:39:27.698Z</time></trkpt><trkpt lat="46.49785333" lon="13.48802333"><ele>776.0</ele><time>2015-11-29T12:39:28.703Z</time></trkpt><trkpt lat="46.49784" lon="13.488035"><ele>776.0</ele><time>2015-11-29T12:39:29.684Z</time></trkpt><trkpt lat="46.49784" lon="13.488035"><ele>776.0</ele><time>2015-11-29T12:39:30.689Z</time></trkpt><trkpt lat="46.49781" lon="13.48805167"><ele>776.0</ele><time>2015-11-29T12:39:31.694Z</time></trkpt><trkpt lat="46.49779667" lon="13.48805"><ele>776.0</ele><time>2015-11-29T12:39:32.699Z</time></trkpt><trkpt lat="46.49779667" lon="13.48805"><ele>776.0</ele><time>2015-11-29T12:39:33.704Z</time></trkpt><trkpt lat="46.49776833" lon="13.48804333"><ele>776.0</ele><time>2015-11-29T12:39:34.669Z</time></trkpt><trkpt lat="46.49776167" lon="13.48804667"><ele>776.0</ele><time>2015-11-29T12:39:35.676Z</time></trkpt><trkpt lat="46.49776167" lon="13.48804667"><ele>776.0</ele><time>2015-11-29T12:39:36.681Z</time></trkpt><trkpt lat="46.49774667" lon="13.488065"><ele>777.0</ele><time>2015-11-29T12:39:37.695Z</time></trkpt><trkpt lat="46.49773333" lon="13.48806833"><ele>777.0</ele><time>2015-11-29T12:39:38.667Z</time></trkpt><trkpt lat="46.49773333" lon="13.48806833"><ele>777.0</ele><time>2015-11-29T12:39:39.696Z</time></trkpt><trkpt lat="46.49771" lon="13.48807333"><ele>777.0</ele><time>2015-11-29T12:39:40.690Z</time></trkpt><trkpt lat="46.49771" lon="13.48807333"><ele>777.0</ele><time>2015-11-29T12:39:41.702Z</time></trkpt><trkpt lat="46.497685" lon="13.488085"><ele>776.0</ele><time>2015-11-29T12:39:42.689Z</time></trkpt><trkpt lat="46.49766667" lon="13.48808833"><ele>777.0</ele><time>2015-11-29T12:39:43.702Z</time></trkpt><trkpt lat="46.49766667" lon="13.48808833"><ele>777.0</ele><time>2015-11-29T12:39:44.687Z</time></trkpt><trkpt lat="46.49763833" lon="13.48811"><ele>777.0</ele><time>2015-11-29T12:39:45.665Z</time></trkpt><trkpt lat="46.49763833" lon="13.48811"><ele>777.0</ele><time>2015-11-29T12:39:46.695Z</time></trkpt><trkpt lat="46.497615" lon="13.488125"><ele>777.0</ele><time>2015-11-29T12:39:47.689Z</time></trkpt><trkpt lat="46.497605" lon="13.48813333"><ele>777.0</ele><time>2015-11-29T12:39:48.701Z</time></trkpt><trkpt lat="46.497605" lon="13.48813333"><ele>777.0</ele><time>2015-11-29T12:39:49.681Z</time></trkpt><trkpt lat="46.497585" lon="13.48815"><ele>777.0</ele><time>2015-11-29T12:39:50.694Z</time></trkpt><trkpt lat="46.497585" lon="13.48815"><ele>777.0</ele><time>2015-11-29T12:39:51.667Z</time></trkpt><trkpt lat="46.49756667" lon="13.488165"><ele>777.0</ele><time>2015-11-29T12:39:52.692Z</time></trkpt><trkpt lat="46.49756667" lon="13.488165"><ele>777.0</ele><time>2015-11-29T12:39:53.704Z</time></trkpt><trkpt lat="46.49754833" lon="13.48818333"><ele>777.0</ele><time>2015-11-29T12:39:54.683Z</time></trkpt><trkpt lat="46.49754833" lon="13.48818333"><ele>777.0</ele><time>2015-11-29T12:39:55.688Z</time></trkpt><trkpt lat="46.497535" lon="13.48820167"><ele>777.0</ele><time>2015-11-29T12:39:56.693Z</time></trkpt><trkpt lat="46.49752667" lon="13.48820833"><ele>777.0</ele><time>2015-11-29T12:39:57.698Z</time></trkpt><trkpt lat="46.49752667" lon="13.48820833"><ele>777.0</ele><time>2015-11-29T12:39:58.703Z</time></trkpt><trkpt lat="46.49751167" lon="13.48822"><ele>778.0</ele><time>2015-11-29T12:39:59.680Z</time></trkpt><trkpt lat="46.49750833" lon="13.48823333"><ele>778.0</ele><time>2015-11-29T12:40:00.704Z</time></trkpt><trkpt lat="46.49750833" lon="13.48823333"><ele>778.0</ele><time>2015-11-29T12:40:01.680Z</time></trkpt><trkpt lat="46.4975" lon="13.48824167"><ele>778.0</ele><time>2015-11-29T12:40:02.694Z</time></trkpt><trkpt lat="46.49749167" lon="13.48824667"><ele>778.0</ele><time>2015-11-29T12:40:03.667Z</time></trkpt><trkpt lat="46.49749167" lon="13.48824667"><ele>778.0</ele><time>2015-11-29T12:40:04.673Z</time></trkpt><trkpt lat="46.49747833" lon="13.48825333"><ele>779.0</ele><time>2015-11-29T12:40:05.680Z</time></trkpt><trkpt lat="46.49746667" lon="13.48825833"><ele>779.0</ele><time>2015-11-29T12:40:06.666Z</time></trkpt><trkpt lat="46.49746667" lon="13.48825833"><ele>779.0</ele><time>2015-11-29T12:40:07.682Z</time></trkpt><trkpt lat="46.49744667" lon="13.48828167"><ele>779.0</ele><time>2015-11-29T12:40:08.703Z</time></trkpt><trkpt lat="46.49744667" lon="13.48828167"><ele>779.0</ele><time>2015-11-29T12:40:09.681Z</time></trkpt><trkpt lat="46.49742833" lon="13.48830333"><ele>779.0</ele><time>2015-11-29T12:40:10.688Z</time></trkpt><trkpt lat="46.49742833" lon="13.48830333"><ele>779.0</ele><time>2015-11-29T12:40:11.693Z</time></trkpt><trkpt lat="46.49740167" lon="13.48832667"><ele>779.0</ele><time>2015-11-29T12:40:12.698Z</time></trkpt><trkpt lat="46.49740167" lon="13.48832667"><ele>779.0</ele><time>2015-11-29T12:40:13.702Z</time></trkpt><trkpt lat="46.49736833" lon="13.48836"><ele>779.0</ele><time>2015-11-29T12:40:14.692Z</time></trkpt><trkpt lat="46.49736833" lon="13.48836"><ele>779.0</ele><time>2015-11-29T12:40:15.665Z</time></trkpt><trkpt lat="46.49734" lon="13.488365"><ele>779.0</ele><time>2015-11-29T12:40:16.670Z</time></trkpt><trkpt lat="46.49734" lon="13.488365"><ele>779.0</ele><time>2015-11-29T12:40:17.680Z</time></trkpt><trkpt lat="46.49731167" lon="13.48838"><ele>779.0</ele><time>2015-11-29T12:40:18.685Z</time></trkpt><trkpt lat="46.49731167" lon="13.48838"><ele>779.0</ele><time>2015-11-29T12:40:19.692Z</time></trkpt><trkpt lat="46.49728333" lon="13.48839833"><ele>779.0</ele><time>2015-11-29T12:40:20.697Z</time></trkpt><trkpt lat="46.49728333" lon="13.48839833"><ele>779.0</ele><time>2015-11-29T12:40:21.702Z</time></trkpt><trkpt lat="46.49727333" lon="13.48840333"><ele>779.0</ele><time>2015-11-29T12:40:22.668Z</time></trkpt><trkpt lat="46.49727333" lon="13.48840333"><ele>779.0</ele><time>2015-11-29T12:40:23.677Z</time></trkpt><trkpt lat="46.497255" lon="13.48841"><ele>779.0</ele><time>2015-11-29T12:40:24.683Z</time></trkpt><trkpt lat="46.49725167" lon="13.488415"><ele>779.0</ele><time>2015-11-29T12:40:25.702Z</time></trkpt><trkpt lat="46.49725167" lon="13.488415"><ele>779.0</ele><time>2015-11-29T12:40:26.688Z</time></trkpt><trkpt lat="46.49723667" lon="13.488425"><ele>779.0</ele><time>2015-11-29T12:40:27.702Z</time></trkpt><trkpt lat="46.49723667" lon="13.488425"><ele>779.0</ele><time>2015-11-29T12:40:28.668Z</time></trkpt><trkpt lat="46.49721833" lon="13.488425"><ele>779.0</ele><time>2015-11-29T12:40:29.678Z</time></trkpt><trkpt lat="46.49721" lon="13.48843"><ele>779.0</ele><time>2015-11-29T12:40:30.690Z</time></trkpt><trkpt lat="46.49721" lon="13.48843"><ele>779.0</ele><time>2015-11-29T12:40:31.702Z</time></trkpt><trkpt lat="46.49718667" lon="13.48844"><ele>779.0</ele><time>2015-11-29T12:40:32.692Z</time></trkpt><trkpt lat="46.49718667" lon="13.48844"><ele>779.0</ele><time>2015-11-29T12:40:33.665Z</time></trkpt><trkpt lat="46.49716333" lon="13.48844667"><ele>779.0</ele><time>2015-11-29T12:40:34.692Z</time></trkpt><trkpt lat="46.49716333" lon="13.48844667"><ele>779.0</ele><time>2015-11-29T12:40:35.665Z</time></trkpt><trkpt lat="46.49714" lon="13.48846"><ele>779.0</ele><time>2015-11-29T12:40:36.696Z</time></trkpt><trkpt lat="46.49714" lon="13.48846"><ele>779.0</ele><time>2015-11-29T12:40:37.680Z</time></trkpt><trkpt lat="46.49711667" lon="13.48847167"><ele>778.0</ele><time>2015-11-29T12:40:38.692Z</time></trkpt><trkpt lat="46.497105" lon="13.48847667"><ele>778.0</ele><time>2015-11-29T12:40:39.665Z</time></trkpt><trkpt lat="46.497105" lon="13.48847667"><ele>778.0</ele><time>2015-11-29T12:40:40.685Z</time></trkpt><trkpt lat="46.49708" lon="13.488495"><ele>778.0</ele><time>2015-11-29T12:40:41.673Z</time></trkpt><trkpt lat="46.49706667" lon="13.48850667"><ele>778.0</ele><time>2015-11-29T12:40:42.695Z</time></trkpt><trkpt lat="46.49706667" lon="13.48850667"><ele>778.0</ele><time>2015-11-29T12:40:43.700Z</time></trkpt><trkpt lat="46.49704" lon="13.488525"><ele>779.0</ele><time>2015-11-29T12:40:44.665Z</time></trkpt><trkpt lat="46.49704" lon="13.488525"><ele>779.0</ele><time>2015-11-29T12:40:45.670Z</time></trkpt><trkpt lat="46.49702" lon="13.48854"><ele>779.0</ele><time>2015-11-29T12:40:46.666Z</time></trkpt><trkpt lat="46.49701" lon="13.48854667"><ele>779.0</ele><time>2015-11-29T12:40:47.671Z</time></trkpt><trkpt lat="46.497" lon="13.48855"><ele>779.0</ele><time>2015-11-29T12:40:48.686Z</time></trkpt><trkpt lat="46.497" lon="13.48855"><ele>779.0</ele><time>2015-11-29T12:40:49.691Z</time></trkpt><trkpt lat="46.49697833" lon="13.48856"><ele>779.0</ele><time>2015-11-29T12:40:50.696Z</time></trkpt><trkpt lat="46.49697833" lon="13.48856"><ele>779.0</ele><time>2015-11-29T12:40:51.701Z</time></trkpt><trkpt lat="46.49695333" lon="13.48857167"><ele>779.0</ele><time>2015-11-29T12:40:52.675Z</time></trkpt><trkpt lat="46.49695333" lon="13.48857167"><ele>779.0</ele><time>2015-11-29T12:40:53.698Z</time></trkpt><trkpt lat="46.496925" lon="13.48859167"><ele>779.0</ele><time>2015-11-29T12:40:54.684Z</time></trkpt><trkpt lat="46.49691" lon="13.4886"><ele>779.0</ele><time>2015-11-29T12:40:55.698Z</time></trkpt><trkpt lat="46.49691" lon="13.4886"><ele>779.0</ele><time>2015-11-29T12:40:56.686Z</time></trkpt><trkpt lat="46.49688667" lon="13.48860333"><ele>779.0</ele><time>2015-11-29T12:40:57.699Z</time></trkpt><trkpt lat="46.49687167" lon="13.48861"><ele>779.0</ele><time>2015-11-29T12:40:58.704Z</time></trkpt><trkpt lat="46.49687167" lon="13.48861"><ele>779.0</ele><time>2015-11-29T12:40:59.668Z</time></trkpt><trkpt lat="46.49684667" lon="13.48861833"><ele>779.0</ele><time>2015-11-29T12:41:00.679Z</time></trkpt><trkpt lat="46.49683167" lon="13.48862333"><ele>780.0</ele><time>2015-11-29T12:41:01.693Z</time></trkpt><trkpt lat="46.49683167" lon="13.48862333"><ele>780.0</ele><time>2015-11-29T12:41:02.665Z</time></trkpt><trkpt lat="46.496815" lon="13.48861833"><ele>780.0</ele><time>2015-11-29T12:41:03.692Z</time></trkpt><trkpt lat="46.496805" lon="13.48862333"><ele>780.0</ele><time>2015-11-29T12:41:04.704Z</time></trkpt><trkpt lat="46.496805" lon="13.48862333"><ele>780.0</ele><time>2015-11-29T12:41:05.682Z</time></trkpt><trkpt lat="46.49678" lon="13.48863667"><ele>780.0</ele><time>2015-11-29T12:41:06.704Z</time></trkpt><trkpt lat="46.49678" lon="13.48863667"><ele>780.0</ele><time>2015-11-29T12:41:07.691Z</time></trkpt><trkpt lat="46.49675333" lon="13.48863667"><ele>780.0</ele><time>2015-11-29T12:41:08.704Z</time></trkpt><trkpt lat="46.49675333" lon="13.48863667"><ele>780.0</ele><time>2015-11-29T12:41:09.680Z</time></trkpt><trkpt lat="46.496735" lon="13.48863833"><ele>779.0</ele><time>2015-11-29T12:41:10.693Z</time></trkpt><trkpt lat="46.496735" lon="13.48863833"><ele>779.0</ele><time>2015-11-29T12:41:11.699Z</time></trkpt><trkpt lat="46.49671" lon="13.48864667"><ele>780.0</ele><time>2015-11-29T12:41:12.703Z</time></trkpt><trkpt lat="46.49669333" lon="13.48865"><ele>779.0</ele><time>2015-11-29T12:41:13.668Z</time></trkpt><trkpt lat="46.49667833" lon="13.48864667"><ele>779.0</ele><time>2015-11-29T12:41:14.673Z</time></trkpt><trkpt lat="46.49667833" lon="13.48864667"><ele>779.0</ele><time>2015-11-29T12:41:15.681Z</time></trkpt><trkpt lat="46.49665167" lon="13.48864833"><ele>779.0</ele><time>2015-11-29T12:41:16.687Z</time></trkpt><trkpt lat="46.49664" lon="13.48864833"><ele>779.0</ele><time>2015-11-29T12:41:17.696Z</time></trkpt><trkpt lat="46.49664" lon="13.48864833"><ele>779.0</ele><time>2015-11-29T12:41:18.701Z</time></trkpt><trkpt lat="46.496615" lon="13.48865167"><ele>779.0</ele><time>2015-11-29T12:41:19.666Z</time></trkpt><trkpt lat="46.496605" lon="13.48865"><ele>779.0</ele><time>2015-11-29T12:41:20.672Z</time></trkpt><trkpt lat="46.496605" lon="13.48865"><ele>779.0</ele><time>2015-11-29T12:41:21.679Z</time></trkpt><trkpt lat="46.496585" lon="13.48865333"><ele>779.0</ele><time>2015-11-29T12:41:22.684Z</time></trkpt><trkpt lat="46.496585" lon="13.48865333"><ele>779.0</ele><time>2015-11-29T12:41:23.689Z</time></trkpt><trkpt lat="46.49656" lon="13.48866167"><ele>779.0</ele><time>2015-11-29T12:41:24.694Z</time></trkpt><trkpt lat="46.49656" lon="13.48866167"><ele>779.0</ele><time>2015-11-29T12:41:25.699Z</time></trkpt><trkpt lat="46.49653" lon="13.48868167"><ele>779.0</ele><time>2015-11-29T12:41:26.704Z</time></trkpt><trkpt lat="46.49653" lon="13.48868167"><ele>779.0</ele><time>2015-11-29T12:41:27.670Z</time></trkpt><trkpt lat="46.49650333" lon="13.48868833"><ele>779.0</ele><time>2015-11-29T12:41:28.674Z</time></trkpt><trkpt lat="46.49649" lon="13.48868833"><ele>780.0</ele><time>2015-11-29T12:41:29.680Z</time></trkpt><trkpt lat="46.49649" lon="13.48868833"><ele>780.0</ele><time>2015-11-29T12:41:30.685Z</time></trkpt><trkpt lat="46.49647167" lon="13.48869667"><ele>779.0</ele><time>2015-11-29T12:41:31.696Z</time></trkpt><trkpt lat="46.49646" lon="13.48870333"><ele>779.0</ele><time>2015-11-29T12:41:32.701Z</time></trkpt><trkpt lat="46.49646" lon="13.48870333"><ele>779.0</ele><time>2015-11-29T12:41:33.666Z</time></trkpt><trkpt lat="46.49644" lon="13.488705"><ele>779.0</ele><time>2015-11-29T12:41:34.673Z</time></trkpt><trkpt lat="46.49644" lon="13.488705"><ele>779.0</ele><time>2015-11-29T12:41:35.679Z</time></trkpt><trkpt lat="46.496415" lon="13.48871"><ele>780.0</ele><time>2015-11-29T12:41:36.686Z</time></trkpt><trkpt lat="46.496415" lon="13.48871"><ele>780.0</ele><time>2015-11-29T12:41:37.691Z</time></trkpt><trkpt lat="46.49639333" lon="13.488715"><ele>780.0</ele><time>2015-11-29T12:41:38.696Z</time></trkpt><trkpt lat="46.49639333" lon="13.488715"><ele>780.0</ele><time>2015-11-29T12:41:39.702Z</time></trkpt><trkpt lat="46.49637" lon="13.48872"><ele>780.0</ele><time>2015-11-29T12:41:40.667Z</time></trkpt><trkpt lat="46.49635833" lon="13.48872333"><ele>780.0</ele><time>2015-11-29T12:41:41.673Z</time></trkpt><trkpt lat="46.49635833" lon="13.48872333"><ele>780.0</ele><time>2015-11-29T12:41:42.679Z</time></trkpt><trkpt lat="46.49633" lon="13.488735"><ele>780.0</ele><time>2015-11-29T12:41:43.684Z</time></trkpt><trkpt lat="46.496315" lon="13.48874"><ele>780.0</ele><time>2015-11-29T12:41:44.689Z</time></trkpt><trkpt lat="46.496315" lon="13.48874"><ele>780.0</ele><time>2015-11-29T12:41:45.694Z</time></trkpt><trkpt lat="46.496285" lon="13.48875167"><ele>780.0</ele><time>2015-11-29T12:41:46.675Z</time></trkpt><trkpt lat="46.49627167" lon="13.48875833"><ele>780.0</ele><time>2015-11-29T12:41:47.692Z</time></trkpt><trkpt lat="46.49627167" lon="13.48875833"><ele>780.0</ele><time>2015-11-29T12:41:48.704Z</time></trkpt><trkpt lat="46.49625667" lon="13.48877333"><ele>780.0</ele><time>2015-11-29T12:41:49.670Z</time></trkpt><trkpt lat="46.49625667" lon="13.48877333"><ele>780.0</ele><time>2015-11-29T12:41:50.682Z</time></trkpt><trkpt lat="46.49622667" lon="13.48877833"><ele>780.0</ele><time>2015-11-29T12:41:51.687Z</time></trkpt><trkpt lat="46.49620833" lon="13.48878667"><ele>780.0</ele><time>2015-11-29T12:41:52.692Z</time></trkpt><trkpt lat="46.49619167" lon="13.48879167"><ele>780.0</ele><time>2015-11-29T12:41:53.704Z</time></trkpt><trkpt lat="46.49619167" lon="13.48879167"><ele>780.0</ele><time>2015-11-29T12:41:54.685Z</time></trkpt><trkpt lat="46.49617333" lon="13.48877833"><ele>780.0</ele><time>2015-11-29T12:41:55.698Z</time></trkpt><trkpt lat="46.49617333" lon="13.48877833"><ele>780.0</ele><time>2015-11-29T12:41:56.665Z</time></trkpt><trkpt lat="46.496155" lon="13.48877167"><ele>780.0</ele><time>2015-11-29T12:41:57.693Z</time></trkpt><trkpt lat="46.496155" lon="13.48877167"><ele>780.0</ele><time>2015-11-29T12:41:58.698Z</time></trkpt><trkpt lat="46.496125" lon="13.488775"><ele>780.0</ele><time>2015-11-29T12:41:59.704Z</time></trkpt><trkpt lat="46.496125" lon="13.488775"><ele>780.0</ele><time>2015-11-29T12:42:00.669Z</time></trkpt><trkpt lat="46.49610333" lon="13.488765"><ele>780.0</ele><time>2015-11-29T12:42:01.677Z</time></trkpt><trkpt lat="46.49610333" lon="13.488765"><ele>780.0</ele><time>2015-11-29T12:42:02.681Z</time></trkpt><trkpt lat="46.49608167" lon="13.48876167"><ele>780.0</ele><time>2015-11-29T12:42:03.698Z</time></trkpt><trkpt lat="46.49608167" lon="13.48876167"><ele>780.0</ele><time>2015-11-29T12:42:04.670Z</time></trkpt><trkpt lat="46.49605" lon="13.48876667"><ele>780.0</ele><time>2015-11-29T12:42:05.676Z</time></trkpt><trkpt lat="46.496035" lon="13.48877167"><ele>780.0</ele><time>2015-11-29T12:42:06.683Z</time></trkpt><trkpt lat="46.496035" lon="13.48877167"><ele>780.0</ele><time>2015-11-29T12:42:07.693Z</time></trkpt><trkpt lat="46.49601167" lon="13.48878"><ele>780.0</ele><time>2015-11-29T12:42:08.665Z</time></trkpt><trkpt lat="46.49600333" lon="13.48878167"><ele>780.0</ele><time>2015-11-29T12:42:09.695Z</time></trkpt><trkpt lat="46.495995" lon="13.48877333"><ele>780.0</ele><time>2015-11-29T12:42:10.695Z</time></trkpt><trkpt lat="46.495995" lon="13.48877333"><ele>780.0</ele><time>2015-11-29T12:42:11.668Z</time></trkpt><trkpt lat="46.49596333" lon="13.488785"><ele>780.0</ele><time>2015-11-29T12:42:12.692Z</time></trkpt><trkpt lat="46.49596333" lon="13.488785"><ele>780.0</ele><time>2015-11-29T12:42:13.665Z</time></trkpt><trkpt lat="46.495935" lon="13.48879167"><ele>780.0</ele><time>2015-11-29T12:42:14.693Z</time></trkpt><trkpt lat="46.495935" lon="13.48879167"><ele>780.0</ele><time>2015-11-29T12:42:15.665Z</time></trkpt><trkpt lat="46.49591667" lon="13.488795"><ele>780.0</ele><time>2015-11-29T12:42:16.703Z</time></trkpt><trkpt lat="46.49591667" lon="13.488795"><ele>780.0</ele><time>2015-11-29T12:42:17.684Z</time></trkpt><trkpt lat="46.495895" lon="13.48880167"><ele>780.0</ele><time>2015-11-29T12:42:18.698Z</time></trkpt><trkpt lat="46.495895" lon="13.48880167"><ele>780.0</ele><time>2015-11-29T12:42:19.685Z</time></trkpt><trkpt lat="46.49586333" lon="13.48881833"><ele>781.0</ele><time>2015-11-29T12:42:20.698Z</time></trkpt><trkpt lat="46.49585" lon="13.48882167"><ele>781.0</ele><time>2015-11-29T12:42:21.693Z</time></trkpt><trkpt lat="46.49583833" lon="13.48883"><ele>781.0</ele><time>2015-11-29T12:42:22.666Z</time></trkpt><trkpt lat="46.49583833" lon="13.48883"><ele>781.0</ele><time>2015-11-29T12:42:23.688Z</time></trkpt><trkpt lat="46.495815" lon="13.48883667"><ele>781.0</ele><time>2015-11-29T12:42:24.703Z</time></trkpt><trkpt lat="46.495815" lon="13.48883667"><ele>781.0</ele><time>2015-11-29T12:42:25.675Z</time></trkpt><trkpt lat="46.49579333" lon="13.48884667"><ele>781.0</ele><time>2015-11-29T12:42:26.665Z</time></trkpt><trkpt lat="46.495785" lon="13.48884667"><ele>781.0</ele><time>2015-11-29T12:42:27.693Z</time></trkpt><trkpt lat="46.495775" lon="13.48885"><ele>781.0</ele><time>2015-11-29T12:42:28.666Z</time></trkpt><trkpt lat="46.495775" lon="13.48885"><ele>781.0</ele><time>2015-11-29T12:42:29.670Z</time></trkpt><trkpt lat="46.49575" lon="13.48886"><ele>781.0</ele><time>2015-11-29T12:42:30.682Z</time></trkpt><trkpt lat="46.49575" lon="13.48886"><ele>781.0</ele><time>2015-11-29T12:42:31.688Z</time></trkpt><trkpt lat="46.49573" lon="13.48886833"><ele>781.0</ele><time>2015-11-29T12:42:32.693Z</time></trkpt><trkpt lat="46.49573" lon="13.48886833"><ele>781.0</ele><time>2015-11-29T12:42:33.698Z</time></trkpt><trkpt lat="46.49570667" lon="13.48888333"><ele>781.0</ele><time>2015-11-29T12:42:34.702Z</time></trkpt><trkpt lat="46.495695" lon="13.48888833"><ele>781.0</ele><time>2015-11-29T12:42:35.667Z</time></trkpt><trkpt lat="46.49569167" lon="13.48889333"><ele>782.0</ele><time>2015-11-29T12:42:36.674Z</time></trkpt><trkpt lat="46.49569167" lon="13.48889333"><ele>782.0</ele><time>2015-11-29T12:42:37.679Z</time></trkpt><trkpt lat="46.49568667" lon="13.48892333"><ele>782.0</ele><time>2015-11-29T12:42:38.685Z</time></trkpt><trkpt lat="46.49568667" lon="13.48892333"><ele>782.0</ele><time>2015-11-29T12:42:39.689Z</time></trkpt><trkpt lat="46.49568333" lon="13.48897"><ele>782.0</ele><time>2015-11-29T12:42:40.702Z</time></trkpt><trkpt lat="46.49568333" lon="13.48897"><ele>782.0</ele><time>2015-11-29T12:42:41.669Z</time></trkpt><trkpt lat="46.49567833" lon="13.48899333"><ele>782.0</ele><time>2015-11-29T12:42:42.675Z</time></trkpt><trkpt lat="46.49567833" lon="13.48899333"><ele>782.0</ele><time>2015-11-29T12:42:43.682Z</time></trkpt><trkpt lat="46.49567833" lon="13.48902333"><ele>782.0</ele><time>2015-11-29T12:42:44.688Z</time></trkpt><trkpt lat="46.495675" lon="13.48904667"><ele>782.0</ele><time>2015-11-29T12:42:45.701Z</time></trkpt><trkpt lat="46.495675" lon="13.48904667"><ele>782.0</ele><time>2015-11-29T12:42:46.685Z</time></trkpt><trkpt lat="46.49566167" lon="13.48908"><ele>782.0</ele><time>2015-11-29T12:42:47.693Z</time></trkpt><trkpt lat="46.49566167" lon="13.48908"><ele>782.0</ele><time>2015-11-29T12:42:48.699Z</time></trkpt><trkpt lat="46.49565167" lon="13.4891"><ele>782.0</ele><time>2015-11-29T12:42:49.704Z</time></trkpt><trkpt lat="46.49564333" lon="13.48911833"><ele>782.0</ele><time>2015-11-29T12:42:50.669Z</time></trkpt><trkpt lat="46.49564333" lon="13.48911833"><ele>782.0</ele><time>2015-11-29T12:42:51.675Z</time></trkpt><trkpt lat="46.49562667" lon="13.48916"><ele>783.0</ele><time>2015-11-29T12:42:52.681Z</time></trkpt><trkpt lat="46.49562" lon="13.48917"><ele>783.0</ele><time>2015-11-29T12:42:53.686Z</time></trkpt><trkpt lat="46.49562" lon="13.48917"><ele>783.0</ele><time>2015-11-29T12:42:54.697Z</time></trkpt><trkpt lat="46.49560667" lon="13.48919"><ele>783.0</ele><time>2015-11-29T12:42:55.693Z</time></trkpt><trkpt lat="46.4956" lon="13.48920167"><ele>783.0</ele><time>2015-11-29T12:42:56.670Z</time></trkpt><trkpt lat="46.4956" lon="13.48920167"><ele>783.0</ele><time>2015-11-29T12:42:57.693Z</time></trkpt><trkpt lat="46.49557833" lon="13.48923333"><ele>783.0</ele><time>2015-11-29T12:42:58.665Z</time></trkpt><trkpt lat="46.49556667" lon="13.48924667"><ele>783.0</ele><time>2015-11-29T12:42:59.671Z</time></trkpt><trkpt lat="46.49556667" lon="13.48924667"><ele>783.0</ele><time>2015-11-29T12:43:00.676Z</time></trkpt><trkpt lat="46.495555" lon="13.489255"><ele>783.0</ele><time>2015-11-29T12:43:01.681Z</time></trkpt><trkpt lat="46.495545" lon="13.48926"><ele>783.0</ele><time>2015-11-29T12:43:02.687Z</time></trkpt><trkpt lat="46.495545" lon="13.48926"><ele>783.0</ele><time>2015-11-29T12:43:03.693Z</time></trkpt><trkpt lat="46.49552167" lon="13.48928167"><ele>784.0</ele><time>2015-11-29T12:43:04.671Z</time></trkpt><trkpt lat="46.49550667" lon="13.48929333"><ele>784.0</ele><time>2015-11-29T12:43:05.682Z</time></trkpt><trkpt lat="46.49550667" lon="13.48929333"><ele>784.0</ele><time>2015-11-29T12:43:06.687Z</time></trkpt><trkpt lat="46.49549167" lon="13.48930833"><ele>784.0</ele><time>2015-11-29T12:43:07.691Z</time></trkpt><trkpt lat="46.49549167" lon="13.48930833"><ele>784.0</ele><time>2015-11-29T12:43:08.696Z</time></trkpt><trkpt lat="46.495475" lon="13.48932833"><ele>784.0</ele><time>2015-11-29T12:43:09.669Z</time></trkpt><trkpt lat="46.49546833" lon="13.48933667"><ele>784.0</ele><time>2015-11-29T12:43:10.691Z</time></trkpt><trkpt lat="46.49546833" lon="13.48933667"><ele>784.0</ele><time>2015-11-29T12:43:11.703Z</time></trkpt><trkpt lat="46.49545333" lon="13.48936667"><ele>784.0</ele><time>2015-11-29T12:43:12.671Z</time></trkpt><trkpt lat="46.49545333" lon="13.48936667"><ele>784.0</ele><time>2015-11-29T12:43:13.680Z</time></trkpt><trkpt lat="46.49543667" lon="13.48939333"><ele>784.0</ele><time>2015-11-29T12:43:14.685Z</time></trkpt><trkpt lat="46.49543667" lon="13.48939333"><ele>784.0</ele><time>2015-11-29T12:43:15.690Z</time></trkpt><trkpt lat="46.49542333" lon="13.48941667"><ele>784.0</ele><time>2015-11-29T12:43:16.695Z</time></trkpt><trkpt lat="46.49541333" lon="13.48943333"><ele>784.0</ele><time>2015-11-29T12:43:17.701Z</time></trkpt><trkpt lat="46.49541333" lon="13.48943333"><ele>784.0</ele><time>2015-11-29T12:43:18.666Z</time></trkpt><trkpt lat="46.495395" lon="13.48945667"><ele>784.0</ele><time>2015-11-29T12:43:19.671Z</time></trkpt><trkpt lat="46.49538667" lon="13.489465"><ele>784.0</ele><time>2015-11-29T12:43:20.677Z</time></trkpt><trkpt lat="46.49538667" lon="13.489465"><ele>784.0</ele><time>2015-11-29T12:43:21.684Z</time></trkpt><trkpt lat="46.49536667" lon="13.48947833"><ele>784.0</ele><time>2015-11-29T12:43:22.689Z</time></trkpt><trkpt lat="46.49536667" lon="13.48947833"><ele>784.0</ele><time>2015-11-29T12:43:23.695Z</time></trkpt><trkpt lat="46.49534" lon="13.48948833"><ele>784.0</ele><time>2015-11-29T12:43:24.700Z</time></trkpt><trkpt lat="46.49532667" lon="13.48949333"><ele>784.0</ele><time>2015-11-29T12:43:25.666Z</time></trkpt><trkpt lat="46.49531667" lon="13.48949667"><ele>784.0</ele><time>2015-11-29T12:43:26.671Z</time></trkpt><trkpt lat="46.49530667" lon="13.4895"><ele>784.0</ele><time>2015-11-29T12:43:27.683Z</time></trkpt><trkpt lat="46.49530667" lon="13.4895"><ele>784.0</ele><time>2015-11-29T12:43:28.689Z</time></trkpt><trkpt lat="46.49528667" lon="13.4895"><ele>784.0</ele><time>2015-11-29T12:43:29.696Z</time></trkpt><trkpt lat="46.49528667" lon="13.4895"><ele>784.0</ele><time>2015-11-29T12:43:30.701Z</time></trkpt><trkpt lat="46.495265" lon="13.489505"><ele>785.0</ele><time>2015-11-29T12:43:31.667Z</time></trkpt><trkpt lat="46.49524833" lon="13.48951"><ele>785.0</ele><time>2015-11-29T12:43:32.672Z</time></trkpt><trkpt lat="46.495235" lon="13.48951667"><ele>784.0</ele><time>2015-11-29T12:43:33.687Z</time></trkpt><trkpt lat="46.495235" lon="13.48951667"><ele>784.0</ele><time>2015-11-29T12:43:34.692Z</time></trkpt><trkpt lat="46.49521167" lon="13.48951"><ele>784.0</ele><time>2015-11-29T12:43:35.697Z</time></trkpt><trkpt lat="46.49519833" lon="13.48951333"><ele>784.0</ele><time>2015-11-29T12:43:36.702Z</time></trkpt><trkpt lat="46.49519833" lon="13.48951333"><ele>784.0</ele><time>2015-11-29T12:43:37.667Z</time></trkpt><trkpt lat="46.49517" lon="13.48951833"><ele>784.0</ele><time>2015-11-29T12:43:38.672Z</time></trkpt><trkpt lat="46.49516" lon="13.48951333"><ele>784.0</ele><time>2015-11-29T12:43:39.679Z</time></trkpt><trkpt lat="46.49516" lon="13.48951333"><ele>784.0</ele><time>2015-11-29T12:43:40.683Z</time></trkpt><trkpt lat="46.49514" lon="13.48950333"><ele>784.0</ele><time>2015-11-29T12:43:41.697Z</time></trkpt><trkpt lat="46.49513333" lon="13.489525"><ele>784.0</ele><time>2015-11-29T12:43:42.670Z</time></trkpt><trkpt lat="46.49513333" lon="13.489525"><ele>784.0</ele><time>2015-11-29T12:43:43.680Z</time></trkpt><trkpt lat="46.49510333" lon="13.48953333"><ele>784.0</ele><time>2015-11-29T12:43:44.686Z</time></trkpt><trkpt lat="46.49509833" lon="13.48953667"><ele>784.0</ele><time>2015-11-29T12:43:45.691Z</time></trkpt><trkpt lat="46.49509833" lon="13.48953667"><ele>784.0</ele><time>2015-11-29T12:43:46.682Z</time></trkpt><trkpt lat="46.49508667" lon="13.48954167"><ele>784.0</ele><time>2015-11-29T12:43:47.688Z</time></trkpt><trkpt lat="46.49507667" lon="13.48954333"><ele>784.0</ele><time>2015-11-29T12:43:48.701Z</time></trkpt><trkpt lat="46.49507667" lon="13.48954333"><ele>784.0</ele><time>2015-11-29T12:43:49.697Z</time></trkpt><trkpt lat="46.495055" lon="13.48953833"><ele>785.0</ele><time>2015-11-29T12:43:50.703Z</time></trkpt><trkpt lat="46.49504167" lon="13.48952833"><ele>785.0</ele><time>2015-11-29T12:43:51.667Z</time></trkpt><trkpt lat="46.49504167" lon="13.48952833"><ele>785.0</ele><time>2015-11-29T12:43:52.673Z</time></trkpt><trkpt lat="46.49502333" lon="13.48952167"><ele>785.0</ele><time>2015-11-29T12:43:53.682Z</time></trkpt><trkpt lat="46.49501667" lon="13.48951667"><ele>785.0</ele><time>2015-11-29T12:43:54.689Z</time></trkpt><trkpt lat="46.49501667" lon="13.48951667"><ele>785.0</ele><time>2015-11-29T12:43:55.694Z</time></trkpt><trkpt lat="46.495" lon="13.48951167"><ele>785.0</ele><time>2015-11-29T12:43:56.670Z</time></trkpt><trkpt lat="46.495" lon="13.48951167"><ele>785.0</ele><time>2015-11-29T12:43:57.686Z</time></trkpt><trkpt lat="46.49496833" lon="13.48949667"><ele>785.0</ele><time>2015-11-29T12:43:58.693Z</time></trkpt><trkpt lat="46.49496833" lon="13.48949667"><ele>785.0</ele><time>2015-11-29T12:43:59.698Z</time></trkpt><trkpt lat="46.49495333" lon="13.489495"><ele>786.0</ele><time>2015-11-29T12:44:00.703Z</time></trkpt><trkpt lat="46.49495333" lon="13.489495"><ele>786.0</ele><time>2015-11-29T12:44:01.669Z</time></trkpt><trkpt lat="46.49493" lon="13.48948833"><ele>786.0</ele><time>2015-11-29T12:44:02.674Z</time></trkpt><trkpt lat="46.49491833" lon="13.48948667"><ele>786.0</ele><time>2015-11-29T12:44:03.680Z</time></trkpt><trkpt lat="46.49491833" lon="13.48948667"><ele>786.0</ele><time>2015-11-29T12:44:04.685Z</time></trkpt><trkpt lat="46.49489833" lon="13.48947667"><ele>786.0</ele><time>2015-11-29T12:44:05.690Z</time></trkpt><trkpt lat="46.49489" lon="13.489475"><ele>786.0</ele><time>2015-11-29T12:44:06.702Z</time></trkpt><trkpt lat="46.49489" lon="13.489475"><ele>786.0</ele><time>2015-11-29T12:44:07.666Z</time></trkpt><trkpt lat="46.494875" lon="13.48946167"><ele>786.0</ele><time>2015-11-29T12:44:08.673Z</time></trkpt><trkpt lat="46.494875" lon="13.48946167"><ele>786.0</ele><time>2015-11-29T12:44:09.683Z</time></trkpt><trkpt lat="46.49485" lon="13.48944333"><ele>786.0</ele><time>2015-11-29T12:44:10.666Z</time></trkpt><trkpt lat="46.49485" lon="13.48944333"><ele>786.0</ele><time>2015-11-29T12:44:11.671Z</time></trkpt><trkpt lat="46.49483167" lon="13.48943333"><ele>787.0</ele><time>2015-11-29T12:44:12.676Z</time></trkpt><trkpt lat="46.494825" lon="13.48943"><ele>787.0</ele><time>2015-11-29T12:44:13.682Z</time></trkpt><trkpt lat="46.494805" lon="13.48942667"><ele>787.0</ele><time>2015-11-29T12:44:14.696Z</time></trkpt><trkpt lat="46.494805" lon="13.48942667"><ele>787.0</ele><time>2015-11-29T12:44:15.669Z</time></trkpt><trkpt lat="46.49477667" lon="13.48940833"><ele>787.0</ele><time>2015-11-29T12:44:16.674Z</time></trkpt><trkpt lat="46.49477667" lon="13.48940833"><ele>787.0</ele><time>2015-11-29T12:44:17.680Z</time></trkpt><trkpt lat="46.49475167" lon="13.48939"><ele>787.0</ele><time>2015-11-29T12:44:18.687Z</time></trkpt><trkpt lat="46.49475167" lon="13.48939"><ele>787.0</ele><time>2015-11-29T12:44:19.692Z</time></trkpt><trkpt lat="46.494735" lon="13.48937167"><ele>787.0</ele><time>2015-11-29T12:44:20.698Z</time></trkpt><trkpt lat="46.494735" lon="13.48937167"><ele>787.0</ele><time>2015-11-29T12:44:21.704Z</time></trkpt><trkpt lat="46.49472" lon="13.489345"><ele>787.0</ele><time>2015-11-29T12:44:22.670Z</time></trkpt><trkpt lat="46.49470833" lon="13.48933667"><ele>787.0</ele><time>2015-11-29T12:44:23.675Z</time></trkpt><trkpt lat="46.49470833" lon="13.48933667"><ele>787.0</ele><time>2015-11-29T12:44:24.682Z</time></trkpt><trkpt lat="46.494695" lon="13.48931667"><ele>787.0</ele><time>2015-11-29T12:44:25.687Z</time></trkpt><trkpt lat="46.49468667" lon="13.48930167"><ele>787.0</ele><time>2015-11-29T12:44:26.693Z</time></trkpt><trkpt lat="46.49468667" lon="13.48930167"><ele>787.0</ele><time>2015-11-29T12:44:27.698Z</time></trkpt><trkpt lat="46.49467333" lon="13.489275"><ele>787.0</ele><time>2015-11-29T12:44:28.703Z</time></trkpt><trkpt lat="46.49466833" lon="13.48926167"><ele>787.0</ele><time>2015-11-29T12:44:29.668Z</time></trkpt><trkpt lat="46.49466833" lon="13.48926167"><ele>787.0</ele><time>2015-11-29T12:44:30.673Z</time></trkpt><trkpt lat="46.49466333" lon="13.48923833"><ele>787.0</ele><time>2015-11-29T12:44:31.667Z</time></trkpt><trkpt lat="46.49465667" lon="13.48922833"><ele>787.0</ele><time>2015-11-29T12:44:32.696Z</time></trkpt><trkpt lat="46.49465667" lon="13.48922833"><ele>787.0</ele><time>2015-11-29T12:44:33.669Z</time></trkpt><trkpt lat="46.49463167" lon="13.48919833"><ele>787.0</ele><time>2015-11-29T12:44:34.674Z</time></trkpt><trkpt lat="46.49461833" lon="13.48918333"><ele>787.0</ele><time>2015-11-29T12:44:35.681Z</time></trkpt><trkpt lat="46.49461833" lon="13.48918333"><ele>787.0</ele><time>2015-11-29T12:44:36.687Z</time></trkpt><trkpt lat="46.49459333" lon="13.48916167"><ele>787.0</ele><time>2015-11-29T12:44:37.693Z</time></trkpt><trkpt lat="46.49458" lon="13.48916167"><ele>787.0</ele><time>2015-11-29T12:44:38.702Z</time></trkpt><trkpt lat="46.49458" lon="13.48916167"><ele>787.0</ele><time>2015-11-29T12:44:39.669Z</time></trkpt><trkpt lat="46.49455333" lon="13.48914833"><ele>787.0</ele><time>2015-11-29T12:44:40.676Z</time></trkpt><trkpt lat="46.49455333" lon="13.48914833"><ele>787.0</ele><time>2015-11-29T12:44:41.690Z</time></trkpt><trkpt lat="46.49453" lon="13.48911667"><ele>787.0</ele><time>2015-11-29T12:44:42.704Z</time></trkpt><trkpt lat="46.49453" lon="13.48911667"><ele>787.0</ele><time>2015-11-29T12:44:43.689Z</time></trkpt><trkpt lat="46.494525" lon="13.48908833"><ele>786.0</ele><time>2015-11-29T12:44:44.694Z</time></trkpt><trkpt lat="46.494525" lon="13.48908833"><ele>786.0</ele><time>2015-11-29T12:44:45.699Z</time></trkpt><trkpt lat="46.49450833" lon="13.489055"><ele>786.0</ele><time>2015-11-29T12:44:46.698Z</time></trkpt><trkpt lat="46.49449833" lon="13.489035"><ele>786.0</ele><time>2015-11-29T12:44:47.704Z</time></trkpt><trkpt lat="46.49449833" lon="13.489035"><ele>786.0</ele><time>2015-11-29T12:44:48.669Z</time></trkpt><trkpt lat="46.49448667" lon="13.48901333"><ele>786.0</ele><time>2015-11-29T12:44:49.673Z</time></trkpt><trkpt lat="46.49448" lon="13.48900167"><ele>786.0</ele><time>2015-11-29T12:44:50.693Z</time></trkpt><trkpt lat="46.49448" lon="13.48900167"><ele>786.0</ele><time>2015-11-29T12:44:51.669Z</time></trkpt><trkpt lat="46.494465" lon="13.48896667"><ele>786.0</ele><time>2015-11-29T12:44:52.704Z</time></trkpt><trkpt lat="46.494465" lon="13.48896667"><ele>786.0</ele><time>2015-11-29T12:44:53.683Z</time></trkpt><trkpt lat="46.49445167" lon="13.48893167"><ele>786.0</ele><time>2015-11-29T12:44:54.673Z</time></trkpt><trkpt lat="46.49444667" lon="13.48892"><ele>786.0</ele><time>2015-11-29T12:44:55.689Z</time></trkpt><trkpt lat="46.49444667" lon="13.48892"><ele>786.0</ele><time>2015-11-29T12:44:56.701Z</time></trkpt><trkpt lat="46.494435" lon="13.48889667"><ele>786.0</ele><time>2015-11-29T12:44:57.694Z</time></trkpt><trkpt lat="46.494435" lon="13.48889667"><ele>786.0</ele><time>2015-11-29T12:44:58.699Z</time></trkpt><trkpt lat="46.49441" lon="13.48885667"><ele>786.0</ele><time>2015-11-29T12:44:59.704Z</time></trkpt><trkpt lat="46.49441" lon="13.48885667"><ele>786.0</ele><time>2015-11-29T12:45:00.669Z</time></trkpt><trkpt lat="46.494385" lon="13.48881833"><ele>785.0</ele><time>2015-11-29T12:45:01.700Z</time></trkpt><trkpt lat="46.49438167" lon="13.48879833"><ele>785.0</ele><time>2015-11-29T12:45:02.675Z</time></trkpt><trkpt lat="46.49438167" lon="13.48879833"><ele>785.0</ele><time>2015-11-29T12:45:03.682Z</time></trkpt><trkpt lat="46.49437667" lon="13.48876833"><ele>785.0</ele><time>2015-11-29T12:45:04.687Z</time></trkpt><trkpt lat="46.49437" lon="13.48875333"><ele>785.0</ele><time>2015-11-29T12:45:05.695Z</time></trkpt><trkpt lat="46.49437" lon="13.48875333"><ele>785.0</ele><time>2015-11-29T12:45:06.700Z</time></trkpt><trkpt lat="46.494355" lon="13.48871667"><ele>785.0</ele><time>2015-11-29T12:45:07.665Z</time></trkpt><trkpt lat="46.49434833" lon="13.4887"><ele>785.0</ele><time>2015-11-29T12:45:08.670Z</time></trkpt><trkpt lat="46.49434833" lon="13.4887"><ele>785.0</ele><time>2015-11-29T12:45:09.685Z</time></trkpt><trkpt lat="46.494335" lon="13.48867833"><ele>785.0</ele><time>2015-11-29T12:45:10.672Z</time></trkpt><trkpt lat="46.494335" lon="13.48867833"><ele>785.0</ele><time>2015-11-29T12:45:11.692Z</time></trkpt><trkpt lat="46.49432167" lon="13.48865167"><ele>785.0</ele><time>2015-11-29T12:45:12.669Z</time></trkpt><trkpt lat="46.49432167" lon="13.48865167"><ele>785.0</ele><time>2015-11-29T12:45:13.674Z</time></trkpt><trkpt lat="46.494305" lon="13.48861667"><ele>785.0</ele><time>2015-11-29T12:45:14.679Z</time></trkpt><trkpt lat="46.494305" lon="13.48861667"><ele>785.0</ele><time>2015-11-29T12:45:15.684Z</time></trkpt><trkpt lat="46.49429667" lon="13.48858667"><ele>785.0</ele><time>2015-11-29T12:45:16.689Z</time></trkpt><trkpt lat="46.494285" lon="13.48857333"><ele>785.0</ele><time>2015-11-29T12:45:17.694Z</time></trkpt><trkpt lat="46.494285" lon="13.48857333"><ele>785.0</ele><time>2015-11-29T12:45:18.666Z</time></trkpt><trkpt lat="46.49425833" lon="13.48855"><ele>785.0</ele><time>2015-11-29T12:45:19.704Z</time></trkpt><trkpt lat="46.49424833" lon="13.48854167"><ele>785.0</ele><time>2015-11-29T12:45:20.671Z</time></trkpt><trkpt lat="46.49424833" lon="13.48854167"><ele>785.0</ele><time>2015-11-29T12:45:21.678Z</time></trkpt><trkpt lat="46.49422833" lon="13.48852167"><ele>785.0</ele><time>2015-11-29T12:45:22.694Z</time></trkpt><trkpt lat="46.49422833" lon="13.48852167"><ele>785.0</ele><time>2015-11-29T12:45:23.699Z</time></trkpt><trkpt lat="46.49420833" lon="13.48849667"><ele>785.0</ele><time>2015-11-29T12:45:24.665Z</time></trkpt><trkpt lat="46.49420833" lon="13.48849667"><ele>785.0</ele><time>2015-11-29T12:45:25.670Z</time></trkpt><trkpt lat="46.49418667" lon="13.48847833"><ele>785.0</ele><time>2015-11-29T12:45:26.676Z</time></trkpt><trkpt lat="46.49418667" lon="13.48847833"><ele>785.0</ele><time>2015-11-29T12:45:27.681Z</time></trkpt><trkpt lat="46.49416667" lon="13.48847"><ele>785.0</ele><time>2015-11-29T12:45:28.687Z</time></trkpt><trkpt lat="46.49416667" lon="13.48847"><ele>785.0</ele><time>2015-11-29T12:45:29.693Z</time></trkpt><trkpt lat="46.49414" lon="13.48845167"><ele>785.0</ele><time>2015-11-29T12:45:30.698Z</time></trkpt><trkpt lat="46.49414" lon="13.48845167"><ele>785.0</ele><time>2015-11-29T12:45:31.704Z</time></trkpt><trkpt lat="46.49412" lon="13.48843667"><ele>785.0</ele><time>2015-11-29T12:45:32.669Z</time></trkpt><trkpt lat="46.49412" lon="13.48843667"><ele>785.0</ele><time>2015-11-29T12:45:33.674Z</time></trkpt><trkpt lat="46.49409833" lon="13.48843"><ele>785.0</ele><time>2015-11-29T12:45:34.684Z</time></trkpt><trkpt lat="46.49408667" lon="13.488425"><ele>785.0</ele><time>2015-11-29T12:45:35.689Z</time></trkpt><trkpt lat="46.49408667" lon="13.488425"><ele>785.0</ele><time>2015-11-29T12:45:36.702Z</time></trkpt><trkpt lat="46.49406667" lon="13.48842"><ele>785.0</ele><time>2015-11-29T12:45:37.667Z</time></trkpt><trkpt lat="46.49406667" lon="13.48842"><ele>785.0</ele><time>2015-11-29T12:45:38.673Z</time></trkpt><trkpt lat="46.49404167" lon="13.48841167"><ele>785.0</ele><time>2015-11-29T12:45:39.679Z</time></trkpt><trkpt lat="46.49403167" lon="13.48840667"><ele>785.0</ele><time>2015-11-29T12:45:40.684Z</time></trkpt><trkpt lat="46.49403167" lon="13.48840667"><ele>785.0</ele><time>2015-11-29T12:45:41.689Z</time></trkpt><trkpt lat="46.49400833" lon="13.48839833"><ele>785.0</ele><time>2015-11-29T12:45:42.694Z</time></trkpt><trkpt lat="46.49400833" lon="13.48839833"><ele>785.0</ele><time>2015-11-29T12:45:43.698Z</time></trkpt><trkpt lat="46.49398333" lon="13.48839667"><ele>785.0</ele><time>2015-11-29T12:45:44.704Z</time></trkpt><trkpt lat="46.49398333" lon="13.48839667"><ele>785.0</ele><time>2015-11-29T12:45:45.669Z</time></trkpt><trkpt lat="46.49396667" lon="13.48839333"><ele>785.0</ele><time>2015-11-29T12:45:46.670Z</time></trkpt><trkpt lat="46.49395167" lon="13.48839333"><ele>785.0</ele><time>2015-11-29T12:45:47.673Z</time></trkpt><trkpt lat="46.49395167" lon="13.48839333"><ele>785.0</ele><time>2015-11-29T12:45:48.691Z</time></trkpt><trkpt lat="46.493925" lon="13.488395"><ele>786.0</ele><time>2015-11-29T12:45:49.669Z</time></trkpt><trkpt lat="46.493925" lon="13.488395"><ele>786.0</ele><time>2015-11-29T12:45:50.684Z</time></trkpt><trkpt lat="46.493895" lon="13.48839667"><ele>786.0</ele><time>2015-11-29T12:45:51.669Z</time></trkpt><trkpt lat="46.49388" lon="13.48839333"><ele>786.0</ele><time>2015-11-29T12:45:52.696Z</time></trkpt><trkpt lat="46.49388" lon="13.48839333"><ele>786.0</ele><time>2015-11-29T12:45:53.668Z</time></trkpt><trkpt lat="46.49386" lon="13.48839"><ele>787.0</ele><time>2015-11-29T12:45:54.694Z</time></trkpt><trkpt lat="46.49386" lon="13.48839"><ele>787.0</ele><time>2015-11-29T12:45:55.668Z</time></trkpt><trkpt lat="46.49384" lon="13.488385"><ele>787.0</ele><time>2015-11-29T12:45:56.665Z</time></trkpt><trkpt lat="46.49384" lon="13.488385"><ele>787.0</ele><time>2015-11-29T12:45:57.688Z</time></trkpt><trkpt lat="46.49382" lon="13.488375"><ele>787.0</ele><time>2015-11-29T12:45:58.701Z</time></trkpt><trkpt lat="46.49382" lon="13.488375"><ele>787.0</ele><time>2015-11-29T12:45:59.668Z</time></trkpt><trkpt lat="46.493795" lon="13.48838333"><ele>787.0</ele><time>2015-11-29T12:46:00.674Z</time></trkpt><trkpt lat="46.493795" lon="13.48838333"><ele>787.0</ele><time>2015-11-29T12:46:01.679Z</time></trkpt><trkpt lat="46.493775" lon="13.48839833"><ele>787.0</ele><time>2015-11-29T12:46:02.684Z</time></trkpt><trkpt lat="46.493775" lon="13.48839833"><ele>787.0</ele><time>2015-11-29T12:46:03.689Z</time></trkpt><trkpt lat="46.49375" lon="13.48840667"><ele>787.0</ele><time>2015-11-29T12:46:04.696Z</time></trkpt><trkpt lat="46.49375" lon="13.48840667"><ele>787.0</ele><time>2015-11-29T12:46:05.672Z</time></trkpt><trkpt lat="46.49373333" lon="13.48841167"><ele>787.0</ele><time>2015-11-29T12:46:06.703Z</time></trkpt><trkpt lat="46.49372" lon="13.48842167"><ele>787.0</ele><time>2015-11-29T12:46:07.702Z</time></trkpt><trkpt lat="46.49372" lon="13.48842167"><ele>787.0</ele><time>2015-11-29T12:46:08.682Z</time></trkpt><trkpt lat="46.49368667" lon="13.48844167"><ele>787.0</ele><time>2015-11-29T12:46:09.688Z</time></trkpt><trkpt lat="46.49367667" lon="13.48844833"><ele>787.0</ele><time>2015-11-29T12:46:10.704Z</time></trkpt><trkpt lat="46.49367667" lon="13.48844833"><ele>787.0</ele><time>2015-11-29T12:46:11.689Z</time></trkpt><trkpt lat="46.49365833" lon="13.488455"><ele>787.0</ele><time>2015-11-29T12:46:12.666Z</time></trkpt><trkpt lat="46.49365833" lon="13.488455"><ele>787.0</ele><time>2015-11-29T12:46:13.691Z</time></trkpt><trkpt lat="46.49363667" lon="13.48848"><ele>787.0</ele><time>2015-11-29T12:46:14.668Z</time></trkpt><trkpt lat="46.49363667" lon="13.48848"><ele>787.0</ele><time>2015-11-29T12:46:15.684Z</time></trkpt><trkpt lat="46.493615" lon="13.488505"><ele>787.0</ele><time>2015-11-29T12:46:16.689Z</time></trkpt><trkpt lat="46.49360167" lon="13.48850667"><ele>787.0</ele><time>2015-11-29T12:46:17.695Z</time></trkpt><trkpt lat="46.49360167" lon="13.48850667"><ele>787.0</ele><time>2015-11-29T12:46:18.700Z</time></trkpt><trkpt lat="46.49358667" lon="13.48853"><ele>787.0</ele><time>2015-11-29T12:46:19.667Z</time></trkpt><trkpt lat="46.49358667" lon="13.48853"><ele>787.0</ele><time>2015-11-29T12:46:20.685Z</time></trkpt><trkpt lat="46.49357167" lon="13.48855667"><ele>787.0</ele><time>2015-11-29T12:46:21.668Z</time></trkpt><trkpt lat="46.49356333" lon="13.48857"><ele>787.0</ele><time>2015-11-29T12:46:22.695Z</time></trkpt><trkpt lat="46.49356333" lon="13.48857"><ele>787.0</ele><time>2015-11-29T12:46:23.700Z</time></trkpt><trkpt lat="46.49354667" lon="13.48860167"><ele>787.0</ele><time>2015-11-29T12:46:24.697Z</time></trkpt><trkpt lat="46.49354667" lon="13.48860167"><ele>787.0</ele><time>2015-11-29T12:46:25.669Z</time></trkpt><trkpt lat="46.49354167" lon="13.48863833"><ele>787.0</ele><time>2015-11-29T12:46:26.675Z</time></trkpt><trkpt lat="46.49354167" lon="13.48863833"><ele>787.0</ele><time>2015-11-29T12:46:27.680Z</time></trkpt><trkpt lat="46.49353833" lon="13.488675"><ele>787.0</ele><time>2015-11-29T12:46:28.688Z</time></trkpt><trkpt lat="46.49353833" lon="13.488675"><ele>787.0</ele><time>2015-11-29T12:46:29.693Z</time></trkpt><trkpt lat="46.49352667" lon="13.48871167"><ele>787.0</ele><time>2015-11-29T12:46:30.698Z</time></trkpt><trkpt lat="46.49352667" lon="13.48871167"><ele>787.0</ele><time>2015-11-29T12:46:31.702Z</time></trkpt><trkpt lat="46.49351833" lon="13.48874833"><ele>787.0</ele><time>2015-11-29T12:46:32.703Z</time></trkpt><trkpt lat="46.49351833" lon="13.48874833"><ele>787.0</ele><time>2015-11-29T12:46:33.689Z</time></trkpt><trkpt lat="46.49351667" lon="13.48878667"><ele>787.0</ele><time>2015-11-29T12:46:34.702Z</time></trkpt><trkpt lat="46.49351667" lon="13.48878667"><ele>787.0</ele><time>2015-11-29T12:46:35.686Z</time></trkpt><trkpt lat="46.49351667" lon="13.48881667"><ele>787.0</ele><time>2015-11-29T12:46:36.692Z</time></trkpt><trkpt lat="46.49351667" lon="13.48881667"><ele>787.0</ele><time>2015-11-29T12:46:37.698Z</time></trkpt><trkpt lat="46.49351833" lon="13.48884833"><ele>787.0</ele><time>2015-11-29T12:46:38.704Z</time></trkpt><trkpt lat="46.49351833" lon="13.48884833"><ele>787.0</ele><time>2015-11-29T12:46:39.671Z</time></trkpt><trkpt lat="46.49352333" lon="13.48888167"><ele>787.0</ele><time>2015-11-29T12:46:40.678Z</time></trkpt><trkpt lat="46.49352167" lon="13.48889833"><ele>787.0</ele><time>2015-11-29T12:46:41.684Z</time></trkpt><trkpt lat="46.49352167" lon="13.48889833"><ele>787.0</ele><time>2015-11-29T12:46:42.688Z</time></trkpt><trkpt lat="46.49352" lon="13.48893333"><ele>787.0</ele><time>2015-11-29T12:46:43.701Z</time></trkpt><trkpt lat="46.49352" lon="13.48893333"><ele>787.0</ele><time>2015-11-29T12:46:44.665Z</time></trkpt><trkpt lat="46.49351833" lon="13.48897333"><ele>787.0</ele><time>2015-11-29T12:46:45.670Z</time></trkpt><trkpt lat="46.49352" lon="13.48899333"><ele>787.0</ele><time>2015-11-29T12:46:46.679Z</time></trkpt><trkpt lat="46.49352" lon="13.48899333"><ele>787.0</ele><time>2015-11-29T12:46:47.670Z</time></trkpt><trkpt lat="46.49351833" lon="13.48903167"><ele>787.0</ele><time>2015-11-29T12:46:48.699Z</time></trkpt><trkpt lat="46.49352167" lon="13.48904667"><ele>787.0</ele><time>2015-11-29T12:46:49.687Z</time></trkpt><trkpt lat="46.49352167" lon="13.48906333"><ele>787.0</ele><time>2015-11-29T12:46:50.673Z</time></trkpt><trkpt lat="46.49352167" lon="13.48906333"><ele>787.0</ele><time>2015-11-29T12:46:51.693Z</time></trkpt><trkpt lat="46.49353" lon="13.489095"><ele>787.0</ele><time>2015-11-29T12:46:52.666Z</time></trkpt><trkpt lat="46.49353" lon="13.489095"><ele>787.0</ele><time>2015-11-29T12:46:53.689Z</time></trkpt><trkpt lat="46.49353333" lon="13.48913167"><ele>787.0</ele><time>2015-11-29T12:46:54.703Z</time></trkpt><trkpt lat="46.49353333" lon="13.48913167"><ele>787.0</ele><time>2015-11-29T12:46:55.665Z</time></trkpt><trkpt lat="46.49353833" lon="13.48916"><ele>788.0</ele><time>2015-11-29T12:46:56.698Z</time></trkpt><trkpt lat="46.49353833" lon="13.48916"><ele>788.0</ele><time>2015-11-29T12:46:57.671Z</time></trkpt><trkpt lat="46.49353667" lon="13.48919667"><ele>788.0</ele><time>2015-11-29T12:46:58.698Z</time></trkpt><trkpt lat="46.49353667" lon="13.48919667"><ele>788.0</ele><time>2015-11-29T12:46:59.673Z</time></trkpt><trkpt lat="46.49354" lon="13.48923"><ele>788.0</ele><time>2015-11-29T12:47:00.701Z</time></trkpt><trkpt lat="46.49354" lon="13.48923"><ele>788.0</ele><time>2015-11-29T12:47:01.693Z</time></trkpt><trkpt lat="46.49354" lon="13.48926833"><ele>789.0</ele><time>2015-11-29T12:47:02.665Z</time></trkpt><trkpt lat="46.49354" lon="13.48926833"><ele>789.0</ele><time>2015-11-29T12:47:03.691Z</time></trkpt><trkpt lat="46.49354667" lon="13.48930333"><ele>789.0</ele><time>2015-11-29T12:47:04.665Z</time></trkpt><trkpt lat="46.49354667" lon="13.48930333"><ele>789.0</ele><time>2015-11-29T12:47:05.693Z</time></trkpt><trkpt lat="46.49355333" lon="13.489335"><ele>789.0</ele><time>2015-11-29T12:47:06.665Z</time></trkpt><trkpt lat="46.493555" lon="13.48934833"><ele>789.0</ele><time>2015-11-29T12:47:07.694Z</time></trkpt><trkpt lat="46.49355833" lon="13.489365"><ele>789.0</ele><time>2015-11-29T12:47:08.667Z</time></trkpt><trkpt lat="46.49356" lon="13.489385"><ele>789.0</ele><time>2015-11-29T12:47:09.673Z</time></trkpt><trkpt lat="46.49356" lon="13.489385"><ele>789.0</ele><time>2015-11-29T12:47:10.680Z</time></trkpt><trkpt lat="46.493565" lon="13.48942333"><ele>789.0</ele><time>2015-11-29T12:47:11.686Z</time></trkpt><trkpt lat="46.49356667" lon="13.48944167"><ele>789.0</ele><time>2015-11-29T12:47:12.700Z</time></trkpt><trkpt lat="46.49356667" lon="13.48944167"><ele>789.0</ele><time>2015-11-29T12:47:13.690Z</time></trkpt><trkpt lat="46.49357167" lon="13.48948167"><ele>789.0</ele><time>2015-11-29T12:47:14.681Z</time></trkpt><trkpt lat="46.49357167" lon="13.48948167"><ele>789.0</ele><time>2015-11-29T12:47:15.693Z</time></trkpt><trkpt lat="46.493575" lon="13.48951333"><ele>789.0</ele><time>2015-11-29T12:47:16.673Z</time></trkpt><trkpt lat="46.493575" lon="13.48951333"><ele>789.0</ele><time>2015-11-29T12:47:17.693Z</time></trkpt><trkpt lat="46.49358333" lon="13.48954333"><ele>789.0</ele><time>2015-11-29T12:47:18.665Z</time></trkpt><trkpt lat="46.49358333" lon="13.48954333"><ele>789.0</ele><time>2015-11-29T12:47:19.694Z</time></trkpt><trkpt lat="46.49359333" lon="13.48958"><ele>789.0</ele><time>2015-11-29T12:47:20.673Z</time></trkpt><trkpt lat="46.49359333" lon="13.48958"><ele>789.0</ele><time>2015-11-29T12:47:21.691Z</time></trkpt><trkpt lat="46.49359667" lon="13.489615"><ele>788.0</ele><time>2015-11-29T12:47:22.704Z</time></trkpt><trkpt lat="46.49359667" lon="13.489615"><ele>788.0</ele><time>2015-11-29T12:47:23.689Z</time></trkpt><trkpt lat="46.49360667" lon="13.489645"><ele>788.0</ele><time>2015-11-29T12:47:24.703Z</time></trkpt><trkpt lat="46.49360667" lon="13.489645"><ele>788.0</ele><time>2015-11-29T12:47:25.694Z</time></trkpt><trkpt lat="46.49362" lon="13.48968167"><ele>788.0</ele><time>2015-11-29T12:47:26.674Z</time></trkpt><trkpt lat="46.49362" lon="13.48968167"><ele>788.0</ele><time>2015-11-29T12:47:27.693Z</time></trkpt><trkpt lat="46.49362167" lon="13.48971667"><ele>788.0</ele><time>2015-11-29T12:47:28.665Z</time></trkpt><trkpt lat="46.49362333" lon="13.48973333"><ele>788.0</ele><time>2015-11-29T12:47:29.698Z</time></trkpt><trkpt lat="46.49362333" lon="13.48973333"><ele>788.0</ele><time>2015-11-29T12:47:30.674Z</time></trkpt><trkpt lat="46.49363167" lon="13.48976833"><ele>789.0</ele><time>2015-11-29T12:47:31.695Z</time></trkpt><trkpt lat="46.49364167" lon="13.489785"><ele>789.0</ele><time>2015-11-29T12:47:32.667Z</time></trkpt><trkpt lat="46.49364167" lon="13.489785"><ele>789.0</ele><time>2015-11-29T12:47:33.689Z</time></trkpt><trkpt lat="46.493655" lon="13.48982"><ele>789.0</ele><time>2015-11-29T12:47:34.703Z</time></trkpt><trkpt lat="46.493655" lon="13.48982"><ele>789.0</ele><time>2015-11-29T12:47:35.670Z</time></trkpt><trkpt lat="46.49366" lon="13.48985333"><ele>789.0</ele><time>2015-11-29T12:47:36.700Z</time></trkpt><trkpt lat="46.49366" lon="13.48985333"><ele>789.0</ele><time>2015-11-29T12:47:37.692Z</time></trkpt><trkpt lat="46.49367333" lon="13.48988333"><ele>789.0</ele><time>2015-11-29T12:47:38.704Z</time></trkpt><trkpt lat="46.49367333" lon="13.48988333"><ele>789.0</ele><time>2015-11-29T12:47:39.694Z</time></trkpt><trkpt lat="46.49368833" lon="13.48991667"><ele>789.0</ele><time>2015-11-29T12:47:40.670Z</time></trkpt><trkpt lat="46.49368833" lon="13.48991667"><ele>789.0</ele><time>2015-11-29T12:47:41.693Z</time></trkpt><trkpt lat="46.49370167" lon="13.48994333"><ele>789.0</ele><time>2015-11-29T12:47:42.665Z</time></trkpt><trkpt lat="46.49370167" lon="13.48994333"><ele>789.0</ele><time>2015-11-29T12:47:43.698Z</time></trkpt><trkpt lat="46.49371167" lon="13.48996667"><ele>789.0</ele><time>2015-11-29T12:47:44.670Z</time></trkpt><trkpt lat="46.49371167" lon="13.48996667"><ele>789.0</ele><time>2015-11-29T12:47:45.693Z</time></trkpt></trkseg></trk></gpx>